Darstellungsparameter: Aktuell verwendete Einstellungen:
Skalierung der Graphiken ... ?
xyx+y,   Skalierungsfaktor:      Skalierung: Modus: x, Faktor: 1
Darstellungszeitraum ... ?
Vom - - bis: - -   Zeitraum: 03.03.2017 - 31.03.2017
Min/Max/Avg-Anzeige ... ?
Zeige MMA aktuell
Zeige MMA Monat
Zeige MMA alles
Zeige --A aktuell
Zeige --A Monat
Zeige --A alles
Keine MMA-Anzeige
MMA:
Keine MMA-Graphiken
MMA-Basis: 03.03.2017 - 31.03.2017
Quicknavigation für Darstellung... ?
Tage:      1T, 2T, 3T, 5T -1T -2T -3T -5T +1T +2T +3T +5T
Wochen: 1W, 2W, 3W -1W -2W -3W +1W +2W +3W
Monate: 1M, 3M, 6M -1M -3M -6M +1M +3M +6M
Jahre:    1J, 3J, 5J, 10J -1J -3J -5J -10J +1J +3J +5J +10J
Nutze für die Darstellung ... ?
Originaldaten oder Mittelwerte auf ...
Stundenbasis Tagesbasis Wochenbasis
Monatsbasis Jahresbasis      Datenbasis: Original-Daten
Darstellen als:
Statistik (Auto) Statistik J:M      Darstellung:
Zur Graphik,    zurück zur Übersicht aller Sensoren.
 
Tabellarische Datenbersicht: ?
 
Sensor: Nr:Datum:Temp:Feuchte:
Aussen-T/F 1 03-03-2017 00:02:18 2.2 C 25 %
2 03-03-2017 00:14:18 2.1 C 25 %
3 03-03-2017 00:26:17 2.2 C 25 %
4 03-03-2017 00:38:17 2.1 C 20 %
5 03-03-2017 00:50:17 2 C 25 %
6 03-03-2017 01:02:17 2 C 27 %
7 03-03-2017 01:14:17 1.9 C 30 %
8 03-03-2017 01:26:17 2.2 C 30 %
9 03-03-2017 01:38:17 2 C 29 %
10 03-03-2017 01:50:17 2 C 30 %
11 03-03-2017 02:02:17 1.9 C 30 %
12 03-03-2017 02:14:17 1.8 C 31 %
13 03-03-2017 02:26:17 1.5 C 31 %
14 03-03-2017 02:38:17 1.4 C 32 %
15 03-03-2017 02:50:17 1.3 C 32 %
16 03-03-2017 03:02:17 1.2 C 33 %
17 03-03-2017 03:14:17 1.5 C 34 %
18 03-03-2017 03:26:17 1.1 C 32 %
19 03-03-2017 03:38:17 1 C 34 %
20 03-03-2017 03:50:17 0.6 C 36 %
21 03-03-2017 04:02:17 0.4 C 37 %
22 03-03-2017 04:14:17 0.3 C 38 %
23 03-03-2017 04:26:17 0.4 C 40 %
24 03-03-2017 04:38:17 0.3 C 41 %
25 03-03-2017 04:50:17 0.2 C 41 %
Sensor: Nr:Datum:Temp:Feuchte:
Aussen-T/F 26 03-03-2017 05:02:17 -0.2 C 41 %
27 03-03-2017 05:14:17 -0.7 C 41 %
28 03-03-2017 05:26:17 -0.7 C 42 %
29 03-03-2017 05:38:17 -0.9 C 43 %
30 03-03-2017 05:50:17 -0.9 C 44 %
31 03-03-2017 06:02:17 -0.6 C 45 %
32 03-03-2017 06:14:17 -0.6 C 46 %
33 03-03-2017 06:26:17 -0.7 C 46 %
34 03-03-2017 06:38:17 -0.8 C 46 %
35 03-03-2017 06:50:17 -0.5 C 48 %
36 03-03-2017 07:02:17 -0.1 C 49 %
37 03-03-2017 07:14:18 -0.4 C 48 %
38 03-03-2017 07:26:17 -0.3 C 48 %
39 03-03-2017 07:38:17 -0.1 C 48 %
40 03-03-2017 07:50:17 0.2 C 49 %
41 03-03-2017 08:02:17 0.5 C 49 %
42 03-03-2017 08:14:17 0.8 C 49 %
43 03-03-2017 08:26:17 1.2 C 47 %
44 03-03-2017 08:38:17 1.8 C 47 %
45 03-03-2017 08:50:17 2.4 C 46 %
46 03-03-2017 09:02:17 2.9 C 45 %
47 03-03-2017 09:14:17 3.5 C 42 %
48 03-03-2017 09:26:17 4.2 C 41 %
49 03-03-2017 09:38:17 5.2 C 37 %
50 03-03-2017 09:50:17 6 C 35 %
Sensor: Nr:Datum:Temp:Feuchte:
Aussen-T/F 51 03-03-2017 10:02:17 6.4 C 32 %
52 03-03-2017 10:14:17 7 C 27 %
53 03-03-2017 10:26:17 7.5 C 20 %
54 03-03-2017 10:38:17 8.3 C 20 %
55 03-03-2017 10:50:17 9.4 C 20 %
56 03-03-2017 11:02:17 9.6 C 20 %
57 03-03-2017 11:14:17 9.7 C 20 %
58 03-03-2017 11:26:17 10.3 C 20 %
59 03-03-2017 11:38:17 10.6 C 20 %
60 03-03-2017 11:50:17 9.8 C 20 %
61 03-03-2017 12:02:17 10.5 C 20 %
62 03-03-2017 12:14:17 10.7 C 20 %
63 03-03-2017 12:26:17 10.9 C 20 %
64 03-03-2017 12:38:17 11.7 C 20 %
65 03-03-2017 12:50:17 11.6 C 20 %
66 03-03-2017 13:02:17 11.6 C 20 %
67 03-03-2017 13:14:17 12 C 20 %
68 03-03-2017 13:26:17 12.3 C 20 %
69 03-03-2017 13:38:17 12.3 C 20 %
70 03-03-2017 13:50:17 12.2 C 20 %
71 03-03-2017 14:02:17 12.3 C 20 %
72 03-03-2017 14:14:17 12.4 C 20 %
73 03-03-2017 14:26:17 12.6 C 20 %
74 03-03-2017 14:38:17 12.5 C 20 %
75 03-03-2017 14:50:17 12.3 C 20 %
Sensor: Nr:Datum:Temp:Feuchte:
Aussen-T/F 76 03-03-2017 15:02:17 12.4 C 20 %
77 03-03-2017 15:14:17 12.4 C 20 %
78 03-03-2017 15:26:17 12.4 C 20 %
79 03-03-2017 15:38:17 12.4 C 20 %
80 03-03-2017 15:50:17 12.3 C 20 %
81 03-03-2017 16:02:17 12.2 C 20 %
82 03-03-2017 16:14:18 11.9 C 20 %
83 03-03-2017 16:26:17 11.6 C 20 %
84 03-03-2017 16:38:17 11.3 C 20 %
85 03-03-2017 16:50:17 11.2 C 20 %
86 03-03-2017 17:02:17 10.9 C 20 %
87 03-03-2017 17:14:18 10.5 C 20 %
88 03-03-2017 17:26:17 10 C 20 %
89 03-03-2017 17:38:17 9.2 C 20 %
90 03-03-2017 17:50:17 8.6 C 20 %
91 03-03-2017 18:02:17 8.1 C 20 %
92 03-03-2017 18:14:17 7.6 C 20 %
93 03-03-2017 18:26:17 7.6 C 20 %
94 03-03-2017 18:38:17 7.4 C 20 %
95 03-03-2017 18:50:17 7 C 20 %
96 03-03-2017 19:02:17 6.6 C 20 %
97 03-03-2017 19:14:17 6.3 C 20 %
98 03-03-2017 19:26:17 6 C 20 %
99 03-03-2017 19:38:17 5.7 C 20 %
100 03-03-2017 19:50:17 5.7 C 20 %
Sensor: Nr:Datum:Temp:Feuchte:
Aussen-T/F 101 03-03-2017 20:02:17 5.9 C 20 %
102 03-03-2017 20:14:17 5.8 C 20 %
103 03-03-2017 20:26:17 5.8 C 20 %
104 03-03-2017 20:38:17 5.9 C 20 %
105 03-03-2017 20:50:17 6.3 C 20 %
106 03-03-2017 21:02:17 5.9 C 20 %
107 03-03-2017 21:14:17 6 C 20 %
108 03-03-2017 21:26:17 5.8 C 20 %
109 03-03-2017 21:38:17 5.6 C 20 %
110 03-03-2017 21:50:17 5.6 C 20 %
111 03-03-2017 22:02:17 5.6 C 20 %
112 03-03-2017 22:14:17 5.8 C 20 %
113 03-03-2017 22:26:17 5.7 C 20 %
114 03-03-2017 22:38:17 5.7 C 20 %
115 03-03-2017 22:50:17 5.7 C 20 %
116 03-03-2017 23:02:17 5.6 C 20 %
117 03-03-2017 23:14:17 5.8 C 20 %
118 03-03-2017 23:26:17 5.7 C 20 %
119 03-03-2017 23:38:17 6 C 20 %
120 03-03-2017 23:50:17 6.5 C 20 %
121 04-03-2017 00:02:17 6.3 C 20 %
122 04-03-2017 00:14:17 6.2 C 20 %
123 04-03-2017 00:26:17 6.2 C 20 %
124 04-03-2017 00:38:17 6.3 C 20 %
125 04-03-2017 00:50:17 6.3 C 20 %
Sensor: Nr:Datum:Temp:Feuchte:
Aussen-T/F 126 04-03-2017 01:02:17 6.7 C 20 %
127 04-03-2017 01:14:17 6.3 C 20 %
128 04-03-2017 01:26:17 6.2 C 20 %
129 04-03-2017 01:38:17 6.2 C 20 %
130 04-03-2017 01:50:17 6.2 C 20 %
131 04-03-2017 02:02:17 6.2 C 20 %
132 04-03-2017 02:14:17 6.3 C 20 %
133 04-03-2017 02:26:17 6.5 C 20 %
134 04-03-2017 02:38:17 6.7 C 20 %
135 04-03-2017 02:50:17 6.7 C 20 %
136 04-03-2017 03:02:17 7.3 C 20 %
137 04-03-2017 03:14:17 7.7 C 20 %
138 04-03-2017 03:26:17 8.4 C 20 %
139 04-03-2017 03:38:18 8.7 C 20 %
140 04-03-2017 03:50:17 8.8 C 20 %
141 04-03-2017 04:02:17 8.5 C 20 %
142 04-03-2017 04:14:17 8.7 C 20 %
143 04-03-2017 04:26:17 8.9 C 20 %
144 04-03-2017 04:38:17 9 C 20 %
145 04-03-2017 04:50:17 8.8 C 20 %
146 04-03-2017 05:02:17 9.6 C 20 %
147 04-03-2017 05:14:17 9.9 C 20 %
148 04-03-2017 05:26:17 10.3 C 20 %
149 04-03-2017 05:38:17 10.5 C 20 %
150 04-03-2017 05:50:17 10.4 C 20 %
Sensor: Nr:Datum:Temp:Feuchte:
Aussen-T/F 151 04-03-2017 06:02:17 10.4 C 20 %
152 04-03-2017 06:14:17 10.4 C 20 %
153 04-03-2017 06:26:17 10 C 20 %
154 04-03-2017 06:38:17 10 C 20 %
155 04-03-2017 06:50:17 9.4 C 20 %
156 04-03-2017 07:02:17 8.8 C 20 %
157 04-03-2017 07:14:17 8.4 C 20 %
158 04-03-2017 07:26:17 8.1 C 20 %
159 04-03-2017 07:38:17 8.1 C 20 %
160 04-03-2017 07:50:17 8.1 C 20 %
161 04-03-2017 08:02:17 8.1 C 20 %
162 04-03-2017 08:14:17 8.6 C 20 %
163 04-03-2017 08:26:17 8.7 C 20 %
164 04-03-2017 08:38:17 8.7 C 20 %
165 04-03-2017 08:50:17 8.3 C 20 %
166 04-03-2017 09:02:17 8.1 C 20 %
167 04-03-2017 09:14:17 8.1 C 20 %
168 04-03-2017 09:26:17 8.5 C 20 %
169 04-03-2017 09:38:17 9 C 20 %
170 04-03-2017 09:50:17 9.7 C 20 %
171 04-03-2017 10:02:17 11.2 C 20 %
172 04-03-2017 10:14:17 12.5 C 20 %
173 04-03-2017 10:26:17 13.2 C 20 %
174 04-03-2017 10:38:17 14.1 C 20 %
175 04-03-2017 10:50:17 14.4 C 20 %
Sensor: Nr:Datum:Temp:Feuchte:
Aussen-T/F 176 04-03-2017 11:02:17 14.9 C 20 %
177 04-03-2017 11:14:17 16.8 C 20 %
178 04-03-2017 11:26:17 15.6 C 20 %
179 04-03-2017 11:38:17 15.4 C 20 %
180 04-03-2017 11:50:17 15.2 C 20 %
181 04-03-2017 12:02:17 15 C 20 %
182 04-03-2017 12:14:17 15.2 C 20 %
183 04-03-2017 12:26:17 15.1 C 20 %
184 04-03-2017 12:38:17 15.2 C 20 %
185 04-03-2017 12:50:17 15.4 C 20 %
186 04-03-2017 13:02:17 16 C 20 %
187 04-03-2017 13:14:17 16.3 C 20 %
188 04-03-2017 13:26:17 16 C 20 %
189 04-03-2017 13:38:17 16.5 C 20 %
190 04-03-2017 13:50:17 16.5 C 20 %
191 04-03-2017 14:02:17 16.4 C 20 %
192 04-03-2017 14:14:17 16.7 C 20 %
193 04-03-2017 14:26:18 17 C 20 %
194 04-03-2017 14:38:17 17.2 C 20 %
195 04-03-2017 14:50:17 17 C 20 %
196 04-03-2017 15:02:17 17.2 C 20 %
197 04-03-2017 15:14:17 16.7 C 20 %
198 04-03-2017 15:26:17 17.2 C 20 %
199 04-03-2017 15:38:17 16.9 C 20 %
200 04-03-2017 15:50:17 16.4 C 20 %
Sensor: Nr:Datum:Temp:Feuchte:
Aussen-T/F 201 04-03-2017 16:02:17 15.8 C 20 %
202 04-03-2017 16:14:17 15.4 C 20 %
203 04-03-2017 16:26:17 15.2 C 20 %
204 04-03-2017 16:38:17 15 C 20 %
205 04-03-2017 16:50:16 14.8 C 20 %
206 04-03-2017 17:02:17 14.6 C 20 %
207 04-03-2017 17:14:17 13.8 C 20 %
208 04-03-2017 17:26:18 13.1 C 20 %
209 04-03-2017 17:38:17 12.7 C 20 %
210 04-03-2017 17:50:17 12.4 C 20 %
211 04-03-2017 18:02:17 12.1 C 20 %
212 04-03-2017 18:14:17 10.8 C 20 %
213 04-03-2017 18:26:17 10.3 C 20 %
214 04-03-2017 18:38:17 10 C 20 %
215 04-03-2017 18:50:17 9.7 C 20 %
216 04-03-2017 19:02:17 9.6 C 20 %
217 04-03-2017 19:14:17 9 C 20 %
218 04-03-2017 19:26:17 8.6 C 20 %
219 04-03-2017 19:38:17 7.8 C 20 %
220 04-03-2017 19:50:17 7.5 C 27 %
221 04-03-2017 20:02:17 7.5 C 33 %
222 04-03-2017 20:14:17 7.4 C 36 %
223 04-03-2017 20:26:17 7.4 C 39 %
224 04-03-2017 20:38:17 7.2 C 40 %
225 04-03-2017 20:50:17 7.1 C 41 %
Sensor: Nr:Datum:Temp:Feuchte:
Aussen-T/F 226 04-03-2017 21:02:17 7 C 42 %
227 04-03-2017 21:14:17 6.8 C 44 %
228 04-03-2017 21:26:17 6.5 C 44 %
229 04-03-2017 21:38:17 6.5 C 45 %
230 04-03-2017 21:50:17 6.5 C 46 %
231 04-03-2017 22:02:17 6.3 C 46 %
232 04-03-2017 22:14:17 6.1 C 46 %
233 04-03-2017 22:26:17 6.2 C 46 %
234 04-03-2017 22:38:17 6.3 C 47 %
235 04-03-2017 22:50:17 6.4 C 48 %
236 04-03-2017 23:02:17 6.4 C 48 %
237 04-03-2017 23:14:17 6.6 C 50 %
238 04-03-2017 23:26:17 6.7 C 51 %
239 04-03-2017 23:38:17 6.7 C 51 %
240 04-03-2017 23:50:17 6.7 C 51 %
241 05-03-2017 00:02:17 6.8 C 52 %
242 05-03-2017 00:14:17 6.8 C 52 %
243 05-03-2017 00:26:18 6.8 C 52 %
244 05-03-2017 00:38:17 6.8 C 51 %
245 05-03-2017 00:50:17 6.8 C 50 %
246 05-03-2017 01:02:17 6.1 C 40 %
247 05-03-2017 01:14:17 5.9 C 33 %
248 05-03-2017 01:26:17 5.9 C 31 %
249 05-03-2017 01:38:17 5.9 C 23 %
250 05-03-2017 01:50:17 5.9 C 20 %
Sensor: Nr:Datum:Temp:Feuchte:
Aussen-T/F 251 05-03-2017 02:02:17 5.9 C 20 %
252 05-03-2017 02:14:17 5.9 C 20 %
253 05-03-2017 02:26:17 6 C 20 %
254 05-03-2017 02:38:17 6 C 20 %
255 05-03-2017 02:50:17 5.9 C 20 %
256 05-03-2017 03:02:17 5.6 C 21 %
257 05-03-2017 03:14:17 5.7 C 25 %
258 05-03-2017 03:26:17 5.8 C 25 %
259 05-03-2017 03:38:17 5.8 C 27 %
260 05-03-2017 03:50:17 5.7 C 27 %
261 05-03-2017 04:02:17 6 C 27 %
262 05-03-2017 04:14:17 6.3 C 25 %
263 05-03-2017 04:26:17 6.4 C 20 %
264 05-03-2017 04:38:18 6.3 C 20 %
265 05-03-2017 04:50:17 6.4 C 20 %
266 05-03-2017 05:02:17 6.2 C 20 %
267 05-03-2017 05:14:17 6.4 C 20 %
268 05-03-2017 05:26:17 6.2 C 20 %
269 05-03-2017 05:38:18 6.1 C 21 %
270 05-03-2017 05:50:17 6.3 C 21 %
271 05-03-2017 06:02:18 6.4 C 20 %
272 05-03-2017 06:14:18 6.3 C 20 %
273 05-03-2017 06:26:16 5.7 C 20 %
274 05-03-2017 06:38:17 5.1 C 21 %
275 05-03-2017 06:50:17 5.1 C 28 %
Sensor: Nr:Datum:Temp:Feuchte:
Aussen-T/F 276 05-03-2017 07:02:17 5.7 C 28 %
277 05-03-2017 07:14:17 5.9 C 28 %
278 05-03-2017 07:26:17 6 C 27 %
279 05-03-2017 07:38:17 6.1 C 28 %
280 05-03-2017 07:50:17 6.2 C 26 %
281 05-03-2017 08:02:17 6.3 C 26 %
282 05-03-2017 08:14:17 6.9 C 21 %
283 05-03-2017 08:26:17 7.1 C 20 %
284 05-03-2017 08:38:18 6.9 C 20 %
285 05-03-2017 08:50:17 6.3 C 25 %
286 05-03-2017 09:02:17 6.5 C 31 %
287 05-03-2017 09:14:17 6.5 C 32 %
288 05-03-2017 09:26:17 6.4 C 33 %
289 05-03-2017 09:38:17 7.1 C 32 %
290 05-03-2017 09:50:17 7.3 C 30 %
291 05-03-2017 10:02:17 7.6 C 26 %
292 05-03-2017 10:14:17 7.8 C 20 %
293 05-03-2017 10:26:17 7.9 C 20 %
294 05-03-2017 10:38:17 8.1 C 20 %
295 05-03-2017 10:50:17 8.7 C 20 %
296 05-03-2017 11:02:17 8.6 C 20 %
297 05-03-2017 11:14:17 11.1 C 20 %
298 05-03-2017 11:26:17 11 C 20 %
299 05-03-2017 11:38:17 10.7 C 20 %
300 05-03-2017 11:50:17 10.4 C 20 %
Sensor: Nr:Datum:Temp:Feuchte:
Aussen-T/F 301 05-03-2017 12:02:17 8 C 20 %
302 05-03-2017 12:14:17 7.4 C 20 %
303 05-03-2017 12:26:17 8.2 C 20 %
304 05-03-2017 12:38:17 8.2 C 20 %
305 05-03-2017 12:50:17 8.2 C 20 %
306 05-03-2017 13:02:17 7.2 C 20 %
307 05-03-2017 13:14:17 7.4 C 26 %
308 05-03-2017 13:26:17 7.4 C 27 %
309 05-03-2017 13:38:17 7.5 C 26 %
310 05-03-2017 13:50:17 7.8 C 21 %
311 05-03-2017 14:02:17 8 C 20 %
312 05-03-2017 14:14:17 7.9 C 20 %
313 05-03-2017 14:26:17 8.1 C 20 %
314 05-03-2017 14:38:17 8.8 C 20 %
315 05-03-2017 14:50:17 9.2 C 20 %
316 05-03-2017 15:02:17 9.5 C 20 %
317 05-03-2017 15:14:17 9.7 C 20 %
318 05-03-2017 15:26:17 9.6 C 20 %
319 05-03-2017 15:38:17 9.7 C 20 %
320 05-03-2017 15:50:17 9.8 C 20 %
321 05-03-2017 16:02:17 9 C 20 %
322 05-03-2017 16:14:17 8.3 C 20 %
323 05-03-2017 16:26:17 7.9 C 20 %
324 05-03-2017 16:38:17 7.5 C 20 %
325 05-03-2017 16:50:17 6.8 C 21 %
Sensor: Nr:Datum:Temp:Feuchte:
Aussen-T/F 326 05-03-2017 17:02:17 6.4 C 30 %
327 05-03-2017 17:14:17 6.3 C 34 %
328 05-03-2017 17:26:17 6.1 C 36 %
329 05-03-2017 17:38:17 6.1 C 37 %
330 05-03-2017 17:50:17 5.8 C 38 %
331 05-03-2017 18:03:17 5.6 C 40 %
332 05-03-2017 18:14:17 5.4 C 40 %
333 05-03-2017 18:26:17 5.2 C 41 %
334 05-03-2017 18:38:17 5 C 41 %
335 05-03-2017 18:50:17 5 C 42 %
336 05-03-2017 19:14:17 5 C 42 %
337 05-03-2017 19:14:17 4.9 C 43 %
338 05-03-2017 19:26:17 4.8 C 43 %
339 05-03-2017 19:38:17 4.6 C 43 %
340 05-03-2017 19:50:17 4.5 C 42 %
341 05-03-2017 20:03:17 4.4 C 41 %
342 05-03-2017 20:14:17 4.4 C 40 %
343 05-03-2017 20:26:17 4.3 C 41 %
344 05-03-2017 20:38:17 4.4 C 41 %
345 05-03-2017 20:50:17 4.4 C 43 %
346 05-03-2017 21:02:17 4.4 C 43 %
347 05-03-2017 21:14:17 4.5 C 43 %
348 05-03-2017 21:26:17 4.4 C 43 %
349 05-03-2017 21:38:17 4.4 C 42 %
350 05-03-2017 21:51:17 4.4 C 41 %
Sensor: Nr:Datum:Temp:Feuchte:
Aussen-T/F 351 05-03-2017 22:03:17 4.4 C 40 %
352 05-03-2017 22:14:17 4.4 C 40 %
353 05-03-2017 22:26:17 4.4 C 41 %
354 05-03-2017 22:39:17 4.4 C 41 %
355 05-03-2017 22:50:17 4.4 C 41 %
356 05-03-2017 23:02:17 4.4 C 41 %
357 05-03-2017 23:14:17 4.5 C 41 %
358 05-03-2017 23:27:17 4.4 C 41 %
359 05-03-2017 23:38:17 4.5 C 41 %
360 05-03-2017 23:51:17 4.5 C 40 %
361 06-03-2017 00:14:17 4.2 C 40 %
362 06-03-2017 00:15:17 4.2 C 40 %
363 06-03-2017 00:27:17 4.4 C 40 %
364 06-03-2017 00:39:17 4.5 C 38 %
365 06-03-2017 00:50:17 4.4 C 38 %
366 06-03-2017 01:02:18 3.9 C 38 %
367 06-03-2017 01:14:18 4 C 37 %
368 06-03-2017 01:26:17 4.1 C 37 %
369 06-03-2017 01:38:18 4.1 C 35 %
370 06-03-2017 01:51:17 4.2 C 35 %
371 06-03-2017 02:03:17 3.8 C 35 %
372 06-03-2017 02:14:17 3.7 C 36 %
373 06-03-2017 02:26:17 4.2 C 36 %
374 06-03-2017 02:38:18 4.7 C 35 %
375 06-03-2017 02:51:17 4.7 C 32 %
Sensor: Nr:Datum:Temp:Feuchte:
Aussen-T/F 376 06-03-2017 03:03:17 4.6 C 31 %
377 06-03-2017 03:15:17 4.8 C 31 %
378 06-03-2017 03:27:17 4.8 C 32 %
379 06-03-2017 03:39:17 4.7 C 33 %
380 06-03-2017 03:51:18 4.7 C 35 %
381 06-03-2017 04:03:17 4.7 C 35 %
382 06-03-2017 04:15:17 4.6 C 35 %
383 06-03-2017 04:27:17 4.7 C 32 %
384 06-03-2017 04:39:17 4.5 C 32 %
385 06-03-2017 04:51:17 4.5 C 34 %
386 06-03-2017 05:03:17 4.9 C 34 %
387 06-03-2017 05:15:18 4.7 C 35 %
388 06-03-2017 05:27:18 4.6 C 35 %
389 06-03-2017 05:39:17 4.7 C 36 %
390 06-03-2017 05:51:17 4.6 C 36 %
391 06-03-2017 06:03:17 4.8 C 35 %
392 06-03-2017 06:15:17 4.9 C 34 %
393 06-03-2017 06:27:17 4.8 C 33 %
394 06-03-2017 06:39:17 4.8 C 33 %
395 06-03-2017 06:51:17 4.9 C 32 %
396 06-03-2017 07:03:17 5 C 31 %
397 06-03-2017 07:15:17 5.1 C 30 %
398 06-03-2017 07:27:17 5.2 C 28 %
399 06-03-2017 07:39:17 5.2 C 28 %
400 06-03-2017 07:51:17 5.5 C 26 %
Sensor: Nr:Datum:Temp:Feuchte:
Aussen-T/F 401 06-03-2017 08:03:17 5.7 C 25 %
402 06-03-2017 08:15:17 5.8 C 21 %
403 06-03-2017 08:27:17 5.9 C 20 %
404 06-03-2017 08:39:17 6.1 C 20 %
405 06-03-2017 08:51:17 6.2 C 20 %
406 06-03-2017 09:03:17 6.3 C 20 %
407 06-03-2017 09:15:17 6.4 C 20 %
408 06-03-2017 09:27:17 6.8 C 20 %
409 06-03-2017 09:39:16 7 C 20 %
410 06-03-2017 09:51:17 7.2 C 20 %
411 06-03-2017 10:03:18 7 C 20 %
412 06-03-2017 10:15:17 7.6 C 20 %
413 06-03-2017 10:27:17 7.6 C 20 %
414 06-03-2017 10:39:17 8 C 20 %
415 06-03-2017 10:51:17 7.7 C 20 %
416 06-03-2017 11:03:17 7.5 C 20 %
417 06-03-2017 11:15:17 8.2 C 20 %
418 06-03-2017 11:27:17 7.9 C 20 %
419 06-03-2017 11:39:17 7.4 C 20 %
420 06-03-2017 11:51:17 7.2 C 20 %
421 06-03-2017 12:03:17 7.2 C 20 %
422 06-03-2017 12:15:17 7.2 C 20 %
423 06-03-2017 12:27:17 7.5 C 20 %
424 06-03-2017 12:39:17 7.8 C 20 %
425 06-03-2017 12:51:17 8.1 C 20 %
Sensor: Nr:Datum:Temp:Feuchte:
Aussen-T/F 426 06-03-2017 13:03:16 8.4 C 20 %
427 06-03-2017 13:15:17 8.2 C 20 %
428 06-03-2017 13:27:17 8.2 C 20 %
429 06-03-2017 13:39:17 9.1 C 20 %
430 06-03-2017 13:51:17 9.2 C 20 %
431 06-03-2017 14:03:16 9 C 20 %
432 06-03-2017 14:15:17 8.2 C 20 %
433 06-03-2017 14:27:17 8 C 20 %
434 06-03-2017 14:39:16 7.9 C 20 %
435 06-03-2017 14:51:16 7.9 C 20 %
436 06-03-2017 15:03:16 7.3 C 20 %
437 06-03-2017 15:15:17 7.1 C 20 %
438 06-03-2017 15:27:17 7.6 C 26 %
439 06-03-2017 15:39:17 7.7 C 26 %
440 06-03-2017 15:51:17 7.3 C 26 %
441 06-03-2017 16:03:17 7 C 28 %
442 06-03-2017 16:15:16 6.7 C 31 %
443 06-03-2017 16:27:16 6.8 C 32 %
444 06-03-2017 16:39:16 6.8 C 32 %
445 06-03-2017 16:51:17 7 C 31 %
446 06-03-2017 17:03:17 6.5 C 30 %
447 06-03-2017 17:15:16 6.3 C 31 %
448 06-03-2017 17:27:16 6.2 C 32 %
449 06-03-2017 17:39:16 5.9 C 35 %
450 06-03-2017 17:51:17 5.8 C 35 %
Sensor: Nr:Datum:Temp:Feuchte:
Aussen-T/F 451 06-03-2017 18:03:17 5.6 C 37 %
452 06-03-2017 18:15:16 5.5 C 39 %
453 06-03-2017 18:27:16 5.4 C 40 %
454 06-03-2017 18:39:17 5.3 C 41 %
455 06-03-2017 18:51:17 5.2 C 42 %
456 06-03-2017 19:03:16 5.1 C 43 %
457 06-03-2017 19:15:17 4.8 C 44 %
458 06-03-2017 19:27:17 4.3 C 44 %
459 06-03-2017 19:39:16 4.5 C 46 %
460 06-03-2017 19:51:16 4.7 C 47 %
461 06-03-2017 20:03:16 4.9 C 46 %
462 06-03-2017 20:15:17 4.9 C 45 %
463 06-03-2017 20:27:17 5 C 45 %
464 06-03-2017 20:39:17 5 C 44 %
465 06-03-2017 20:51:16 5 C 43 %
466 06-03-2017 21:03:17 5 C 42 %
467 06-03-2017 21:15:16 5.1 C 40 %
468 06-03-2017 21:27:16 4.9 C 40 %
469 06-03-2017 21:39:16 5 C 37 %
470 06-03-2017 21:51:16 5 C 36 %
471 06-03-2017 22:03:16 5 C 35 %
472 06-03-2017 22:15:16 5 C 33 %
473 06-03-2017 22:27:16 4.9 C 34 %
474 06-03-2017 22:39:16 4.9 C 34 %
475 06-03-2017 22:51:16 5 C 32 %
Sensor: Nr:Datum:Temp:Feuchte:
Aussen-T/F 476 06-03-2017 23:03:16 4.9 C 33 %
477 06-03-2017 23:15:16 4.9 C 35 %
478 06-03-2017 23:27:16 4.9 C 35 %
479 06-03-2017 23:39:16 4.8 C 35 %
480 06-03-2017 23:51:16 4.8 C 35 %
481 07-03-2017 00:03:16 4.8 C 38 %
482 07-03-2017 00:15:16 4.8 C 40 %
483 07-03-2017 00:27:16 4.7 C 42 %
484 07-03-2017 00:39:16 4.7 C 43 %
485 07-03-2017 00:51:16 4.8 C 45 %
486 07-03-2017 01:03:17 4.8 C 45 %
487 07-03-2017 01:15:16 4.8 C 45 %
488 07-03-2017 01:27:16 4.8 C 44 %
489 07-03-2017 01:39:16 4.8 C 44 %
490 07-03-2017 01:51:16 4.9 C 43 %
491 07-03-2017 02:03:16 4.7 C 44 %
492 07-03-2017 02:15:16 4.7 C 45 %
493 07-03-2017 02:27:17 4.6 C 46 %
494 07-03-2017 02:39:16 4.6 C 46 %
495 07-03-2017 02:51:17 4.5 C 45 %
496 07-03-2017 03:03:17 4.2 C 45 %
497 07-03-2017 03:15:17 4.3 C 45 %
498 07-03-2017 03:27:17 4.5 C 46 %
499 07-03-2017 03:39:17 4.5 C 47 %
500 07-03-2017 03:51:17 4.5 C 47 %
Sensor: Nr:Datum:Temp:Feuchte:
Aussen-T/F 501 07-03-2017 04:03:17 4.4 C 47 %
502 07-03-2017 04:15:17 4.4 C 47 %
503 07-03-2017 04:27:17 4.3 C 46 %
504 07-03-2017 04:39:17 4.2 C 46 %
505 07-03-2017 04:51:17 4.1 C 45 %
506 07-03-2017 05:03:17 4.1 C 45 %
507 07-03-2017 05:15:17 4.1 C 44 %
508 07-03-2017 05:27:17 4.1 C 44 %
509 07-03-2017 05:39:17 4.1 C 44 %
510 07-03-2017 05:51:17 4 C 44 %
511 07-03-2017 06:03:17 4 C 44 %
512 07-03-2017 06:15:17 3.9 C 45 %
513 07-03-2017 06:27:17 3.9 C 44 %
514 07-03-2017 06:39:17 3.9 C 44 %
515 07-03-2017 06:51:17 3.8 C 44 %
516 07-03-2017 07:03:17 3.7 C 44 %
517 07-03-2017 07:15:17 3.7 C 44 %
518 07-03-2017 07:27:17 3.8 C 45 %
519 07-03-2017 07:39:17 4 C 43 %
520 07-03-2017 07:51:17 4 C 43 %
521 07-03-2017 08:03:17 4.2 C 43 %
522 07-03-2017 08:15:17 4.6 C 43 %
523 07-03-2017 08:27:17 4.7 C 41 %
524 07-03-2017 08:39:17 4.8 C 40 %
525 07-03-2017 08:51:17 5 C 37 %
Sensor: Nr:Datum:Temp:Feuchte:
Aussen-T/F 526 07-03-2017 09:03:17 5 C 35 %
527 07-03-2017 09:15:17 5.1 C 35 %
528 07-03-2017 09:27:17 5.7 C 33 %
529 07-03-2017 09:39:17 5.8 C 30 %
530 07-03-2017 09:51:17 5.8 C 26 %
531 07-03-2017 10:03:17 6.1 C 25 %
532 07-03-2017 10:15:17 6.6 C 25 %
533 07-03-2017 10:27:17 6.5 C 20 %
534 07-03-2017 10:39:17 7.8 C 20 %
535 07-03-2017 10:51:17 7.5 C 20 %
536 07-03-2017 11:03:17 6.1 C 20 %
537 07-03-2017 11:15:17 6 C 27 %
538 07-03-2017 11:27:17 6 C 28 %
539 07-03-2017 11:39:17 6.2 C 29 %
540 07-03-2017 11:51:17 7.2 C 30 %
541 07-03-2017 12:03:17 6.9 C 26 %
542 07-03-2017 12:15:17 7.1 C 26 %
543 07-03-2017 12:27:17 7.3 C 20 %
544 07-03-2017 12:39:17 7.1 C 21 %
545 07-03-2017 12:51:17 7.8 C 20 %
546 07-03-2017 13:03:17 7.4 C 20 %
547 07-03-2017 13:15:17 7.9 C 20 %
548 07-03-2017 13:27:17 6.2 C 20 %
549 07-03-2017 13:39:17 6.1 C 20 %
550 07-03-2017 13:51:17 7.3 C 20 %
Sensor: Nr:Datum:Temp:Feuchte:
Aussen-T/F 551 07-03-2017 14:03:17 8.8 C 20 %
552 07-03-2017 14:15:17 9.6 C 20 %
553 07-03-2017 14:27:17 7.2 C 20 %
554 07-03-2017 14:39:17 6.2 C 20 %
555 07-03-2017 14:51:17 6.1 C 29 %
556 07-03-2017 15:03:17 6.5 C 32 %
557 07-03-2017 15:15:17 6.1 C 33 %
558 07-03-2017 15:27:17 6.2 C 35 %
559 07-03-2017 15:39:17 7.2 C 37 %
560 07-03-2017 15:51:17 7.1 C 36 %
561 07-03-2017 16:03:17 6.9 C 37 %
562 07-03-2017 16:15:17 6.6 C 35 %
563 07-03-2017 16:27:17 6.8 C 36 %
564 07-03-2017 16:39:17 6.4 C 36 %
565 07-03-2017 16:51:17 6.5 C 37 %
566 07-03-2017 17:03:17 6.6 C 38 %
567 07-03-2017 17:15:17 6.6 C 37 %
568 07-03-2017 17:27:17 7.7 C 38 %
569 07-03-2017 17:39:17 10.8 C 20 %
570 07-03-2017 17:51:17 8.6 C 20 %
571 07-03-2017 18:03:17 6.2 C 20 %
572 07-03-2017 18:15:17 5.5 C 29 %
573 07-03-2017 18:27:17 5.2 C 32 %
574 07-03-2017 18:39:17 5.2 C 35 %
575 07-03-2017 18:51:17 5.2 C 36 %
Sensor: Nr:Datum:Temp:Feuchte:
Aussen-T/F 576 07-03-2017 19:03:17 5.3 C 36 %
577 07-03-2017 19:15:17 5.2 C 36 %
578 07-03-2017 19:27:17 5.3 C 37 %
579 07-03-2017 19:39:17 5.2 C 37 %
580 07-03-2017 19:51:17 5.2 C 38 %
581 07-03-2017 20:03:17 5.1 C 38 %
582 07-03-2017 20:15:17 5.2 C 40 %
583 07-03-2017 20:27:17 5.2 C 40 %
584 07-03-2017 20:39:17 4.7 C 40 %
585 07-03-2017 20:51:17 4.3 C 41 %
586 07-03-2017 21:03:17 4.2 C 43 %
587 07-03-2017 21:15:17 4.3 C 45 %
588 07-03-2017 21:27:17 4.3 C 46 %
589 07-03-2017 21:39:17 4.4 C 46 %
590 07-03-2017 21:51:17 4.5 C 47 %
591 07-03-2017 22:03:17 4.5 C 47 %
592 07-03-2017 22:15:17 4.5 C 46 %
593 07-03-2017 22:27:17 4 C 46 %
594 07-03-2017 22:39:18 4.1 C 47 %
595 07-03-2017 22:51:17 4.1 C 48 %
596 07-03-2017 23:03:17 4.1 C 49 %
597 07-03-2017 23:15:17 4.2 C 50 %
598 07-03-2017 23:27:17 4.1 C 50 %
599 07-03-2017 23:39:17 3.4 C 50 %
600 07-03-2017 23:51:16 2.5 C 50 %
Sensor: Nr:Datum:Temp:Feuchte:
Aussen-T/F 601 08-03-2017 00:03:18 2.3 C 51 %
602 08-03-2017 00:15:17 2.1 C 53 %
603 08-03-2017 00:27:17 2 C 55 %
604 08-03-2017 00:39:17 1.8 C 58 %
605 08-03-2017 00:51:17 1.7 C 61 %
606 08-03-2017 01:03:17 1.7 C 62 %
607 08-03-2017 01:15:17 1.4 C 64 %
608 08-03-2017 01:27:17 1 C 64 %
609 08-03-2017 01:39:17 0.8 C 67 %
610 08-03-2017 01:51:17 0.8 C 69 %
611 08-03-2017 02:03:18 1.3 C 70 %
612 08-03-2017 02:15:17 1.2 C 71 %
613 08-03-2017 02:27:17 1 C 71 %
614 08-03-2017 02:39:17 1 C 71 %
615 08-03-2017 02:51:17 0.7 C 72 %
616 08-03-2017 03:03:17 0.6 C 73 %
617 08-03-2017 03:15:17 0.4 C 73 %
618 08-03-2017 03:27:17 0.4 C 73 %
619 08-03-2017 03:39:17 0.3 C 74 %
620 08-03-2017 03:51:17 0.4 C 74 %
621 08-03-2017 04:03:17 0.6 C 75 %
622 08-03-2017 04:15:17 0.5 C 75 %
623 08-03-2017 04:27:17 0.4 C 75 %
624 08-03-2017 04:39:17 0.1 C 74 %
625 08-03-2017 04:51:17 0 C 75 %
Sensor: Nr:Datum:Temp:Feuchte:
Aussen-T/F 626 08-03-2017 05:03:17 -0.1 C 74 %
627 08-03-2017 05:15:17 -0.3 C 74 %
628 08-03-2017 05:27:17 -0.2 C 74 %
629 08-03-2017 05:39:17 -0.2 C 74 %
630 08-03-2017 05:51:17 -0.1 C 75 %
631 08-03-2017 06:03:17 -0.1 C 74 %
632 08-03-2017 06:15:17 0.3 C 75 %
633 08-03-2017 06:27:17 0.2 C 74 %
634 08-03-2017 06:39:17 0.3 C 74 %
635 08-03-2017 06:51:17 0.5 C 74 %
636 08-03-2017 07:03:17 0.7 C 74 %
637 08-03-2017 07:15:17 0.8 C 74 %
638 08-03-2017 07:27:17 0.8 C 74 %
639 08-03-2017 07:39:17 0.9 C 73 %
640 08-03-2017 07:51:17 1.2 C 73 %
641 08-03-2017 08:03:17 1.4 C 73 %
642 08-03-2017 08:15:17 1.6 C 73 %
643 08-03-2017 08:27:17 1.8 C 73 %
644 08-03-2017 08:39:17 2.1 C 72 %
645 08-03-2017 08:51:17 2.4 C 72 %
646 08-03-2017 09:03:17 2.7 C 73 %
647 08-03-2017 09:15:17 3.3 C 72 %
648 08-03-2017 09:27:17 4.2 C 72 %
649 08-03-2017 09:39:17 5 C 72 %
650 08-03-2017 09:51:17 5.5 C 72 %
Sensor: Nr:Datum:Temp:Feuchte:
Aussen-T/F 651 08-03-2017 10:03:17 5.5 C 70 %
652 08-03-2017 10:15:17 6 C 68 %
653 08-03-2017 10:27:17 6.3 C 63 %
654 08-03-2017 10:39:17 6.1 C 50 %
655 08-03-2017 10:51:17 5.7 C 43 %
656 08-03-2017 11:03:17 5.8 C 38 %
657 08-03-2017 11:15:17 5.5 C 37 %
658 08-03-2017 11:27:17 5.3 C 38 %
659 08-03-2017 11:39:17 4.8 C 38 %
660 08-03-2017 11:51:17 4.5 C 39 %
661 08-03-2017 12:03:17 4.4 C 40 %
662 08-03-2017 12:15:17 4.4 C 42 %
663 08-03-2017 12:27:17 4.4 C 43 %
664 08-03-2017 12:39:17 4.4 C 44 %
665 08-03-2017 12:51:17 4.5 C 44 %
666 08-03-2017 13:03:17 4.6 C 45 %
667 08-03-2017 13:15:17 4.5 C 45 %
668 08-03-2017 13:27:17 4.4 C 45 %
669 08-03-2017 13:39:17 4.7 C 45 %
670 08-03-2017 13:51:17 4.7 C 45 %
671 08-03-2017 14:03:17 4.7 C 45 %
672 08-03-2017 14:15:17 5 C 45 %
673 08-03-2017 14:27:17 5 C 45 %
674 08-03-2017 14:39:17 5 C 45 %
675 08-03-2017 14:51:17 5 C 45 %
Sensor: Nr:Datum:Temp:Feuchte:
Aussen-T/F 676 08-03-2017 15:03:17 4.9 C 46 %
677 08-03-2017 15:15:17 5 C 46 %
678 08-03-2017 15:27:17 5.1 C 46 %
679 08-03-2017 15:39:17 5.3 C 47 %
680 08-03-2017 15:51:17 5.3 C 47 %
681 08-03-2017 16:03:17 5.3 C 47 %
682 08-03-2017 16:15:17 5.4 C 48 %
683 08-03-2017 16:27:17 5.4 C 48 %
684 08-03-2017 16:39:17 5.4 C 48 %
685 08-03-2017 16:51:17 5.5 C 49 %
686 08-03-2017 17:03:17 5.6 C 50 %
687 08-03-2017 17:15:17 5.7 C 51 %
688 08-03-2017 17:27:17 5.7 C 52 %
689 08-03-2017 17:39:18 5.9 C 52 %
690 08-03-2017 17:51:17 6 C 52 %
691 08-03-2017 18:03:17 6.1 C 52 %
692 08-03-2017 18:15:17 6.4 C 53 %
693 08-03-2017 18:27:17 6.4 C 53 %
694 08-03-2017 18:39:17 6.6 C 55 %
695 08-03-2017 18:51:17 6.7 C 55 %
696 08-03-2017 19:03:17 6.9 C 55 %
697 08-03-2017 19:15:17 7 C 54 %
698 08-03-2017 19:27:18 7.2 C 53 %
699 08-03-2017 19:39:17 7.3 C 51 %
700 08-03-2017 19:51:17 7.3 C 49 %
Sensor: Nr:Datum:Temp:Feuchte:
Aussen-T/F 701 08-03-2017 20:03:17 7.5 C 48 %
702 08-03-2017 20:15:18 7.6 C 48 %
703 08-03-2017 20:27:18 7.7 C 48 %
704 08-03-2017 20:39:17 7.8 C 48 %
705 08-03-2017 20:51:17 7.8 C 47 %
706 08-03-2017 21:03:17 7.8 C 48 %
707 08-03-2017 21:15:17 8 C 48 %
708 08-03-2017 21:27:17 8.2 C 49 %
709 08-03-2017 21:39:17 8.5 C 50 %
710 08-03-2017 21:51:17 8.5 C 47 %
711 08-03-2017 22:03:17 8.6 C 47 %
712 08-03-2017 22:15:17 8.7 C 46 %
713 08-03-2017 22:27:17 8.4 C 45 %
714 08-03-2017 22:39:17 8.3 C 45 %
715 08-03-2017 22:51:17 8.4 C 47 %
716 08-03-2017 23:03:18 8.3 C 48 %
717 08-03-2017 23:15:17 8.4 C 50 %
718 08-03-2017 23:27:17 8.3 C 50 %
719 08-03-2017 23:39:17 8.3 C 52 %
720 08-03-2017 23:51:17 8.2 C 53 %
721 09-03-2017 00:03:17 8.1 C 54 %
722 09-03-2017 00:15:17 8.1 C 55 %
723 09-03-2017 00:27:17 8 C 56 %
724 09-03-2017 00:39:17 8.1 C 57 %
725 09-03-2017 00:51:17 8 C 59 %
Sensor: Nr:Datum:Temp:Feuchte:
Aussen-T/F 726 09-03-2017 01:03:17 8 C 60 %
727 09-03-2017 01:15:17 8 C 61 %
728 09-03-2017 01:27:17 8 C 62 %
729 09-03-2017 01:39:17 8 C 63 %
730 09-03-2017 01:51:17 8.1 C 64 %
731 09-03-2017 02:03:17 8.1 C 65 %
732 09-03-2017 02:15:17 8.1 C 65 %
733 09-03-2017 02:27:17 8.1 C 65 %
734 09-03-2017 02:39:17 8 C 65 %
735 09-03-2017 02:51:17 7.9 C 65 %
736 09-03-2017 03:03:17 7.9 C 66 %
737 09-03-2017 03:15:17 7.9 C 66 %
738 09-03-2017 03:27:17 7.8 C 66 %
739 09-03-2017 03:39:17 7.8 C 66 %
740 09-03-2017 03:51:17 7.8 C 67 %
741 09-03-2017 04:03:17 8 C 67 %
742 09-03-2017 04:15:17 7.9 C 68 %
743 09-03-2017 04:27:17 7.9 C 67 %
744 09-03-2017 04:39:17 7.9 C 68 %
745 09-03-2017 04:51:17 7.9 C 68 %
746 09-03-2017 05:03:17 8 C 67 %
747 09-03-2017 05:15:17 7.9 C 68 %
748 09-03-2017 05:27:17 7.9 C 68 %
749 09-03-2017 05:39:17 7.8 C 67 %
750 09-03-2017 05:51:17 7.9 C 68 %
Sensor: Nr:Datum:Temp:Feuchte:
Aussen-T/F 751 09-03-2017 06:03:17 7.7 C 67 %
752 09-03-2017 06:15:17 7.7 C 67 %
753 09-03-2017 06:27:17 7.6 C 66 %
754 09-03-2017 06:39:17 7.6 C 67 %
755 09-03-2017 06:51:17 7.7 C 67 %
756 09-03-2017 07:03:17 7.7 C 67 %
757 09-03-2017 07:15:17 7.7 C 67 %
758 09-03-2017 07:27:17 7.8 C 67 %
759 09-03-2017 07:39:17 7.9 C 67 %
760 09-03-2017 07:51:17 7.9 C 67 %
761 09-03-2017 08:03:17 8.1 C 66 %
762 09-03-2017 08:15:17 8.2 C 67 %
763 09-03-2017 08:27:17 8.6 C 67 %
764 09-03-2017 08:39:17 8.8 C 67 %
765 09-03-2017 08:51:17 9 C 66 %
766 09-03-2017 09:03:17 9.1 C 66 %
767 09-03-2017 09:15:17 9.3 C 65 %
768 09-03-2017 09:27:17 9.5 C 65 %
769 09-03-2017 09:39:17 9.7 C 65 %
770 09-03-2017 09:51:17 10 C 62 %
771 09-03-2017 10:03:17 10.2 C 61 %
772 09-03-2017 10:15:17 10.5 C 61 %
773 09-03-2017 10:27:17 10.6 C 56 %
774 09-03-2017 10:39:17 11.1 C 51 %
775 09-03-2017 10:51:17 11.2 C 44 %
Sensor: Nr:Datum:Temp:Feuchte:
Aussen-T/F 776 09-03-2017 11:03:17 11.6 C 40 %
777 09-03-2017 11:15:17 11.7 C 35 %
778 09-03-2017 11:27:17 11.5 C 33 %
779 09-03-2017 11:39:17 12.2 C 28 %
780 09-03-2017 11:51:17 12.7 C 26 %
781 09-03-2017 12:03:17 13.2 C 20 %
782 09-03-2017 12:15:16 13 C 20 %
783 09-03-2017 12:27:17 14 C 20 %
784 09-03-2017 12:39:17 14.2 C 20 %
785 09-03-2017 12:51:17 14.2 C 20 %
786 09-03-2017 13:03:17 15.3 C 20 %
787 09-03-2017 13:15:17 14.8 C 20 %
788 09-03-2017 13:27:17 15.5 C 20 %
789 09-03-2017 13:39:17 15.3 C 20 %
790 09-03-2017 13:51:17 15.4 C 20 %
791 09-03-2017 14:03:17 16 C 20 %
792 09-03-2017 14:15:17 16.1 C 20 %
793 09-03-2017 14:27:18 16.2 C 20 %
794 09-03-2017 14:39:17 15.9 C 20 %
795 09-03-2017 14:51:17 15.9 C 20 %
796 09-03-2017 15:03:17 15.7 C 20 %
797 09-03-2017 15:15:18 15.1 C 20 %
798 09-03-2017 15:27:18 14.9 C 20 %
799 09-03-2017 15:39:17 15.1 C 20 %
800 09-03-2017 15:51:17 14.8 C 20 %
Sensor: Nr:Datum:Temp:Feuchte:
Aussen-T/F 801 09-03-2017 16:03:17 15.8 C 20 %
802 09-03-2017 16:15:17 15.7 C 20 %
803 09-03-2017 16:27:17 14.6 C 20 %
804 09-03-2017 16:39:17 14.6 C 20 %
805 09-03-2017 16:51:17 14 C 20 %
806 09-03-2017 17:03:17 13.9 C 20 %
807 09-03-2017 17:15:17 13.6 C 20 %
808 09-03-2017 17:27:17 17.9 C 20 %
809 09-03-2017 17:39:17 18.1 C 20 %
810 09-03-2017 17:51:17 18.2 C 20 %
811 09-03-2017 18:03:17 15.5 C 20 %
812 09-03-2017 18:15:17 13.2 C 20 %
813 09-03-2017 18:27:17 12.7 C 20 %
814 09-03-2017 18:39:17 12.5 C 20 %
815 09-03-2017 18:51:17 12.3 C 20 %
816 09-03-2017 19:03:17 11.9 C 20 %
817 09-03-2017 19:15:17 11.2 C 20 %
818 09-03-2017 19:27:17 10.9 C 20 %
819 09-03-2017 19:39:17 10.5 C 20 %
820 09-03-2017 19:51:17 10.2 C 20 %
821 09-03-2017 20:03:17 9.8 C 20 %
822 09-03-2017 20:15:17 9.9 C 20 %
823 09-03-2017 20:27:17 9.9 C 20 %
824 09-03-2017 20:39:17 10.5 C 20 %
825 09-03-2017 20:51:17 10.5 C 20 %
Sensor: Nr:Datum:Temp:Feuchte:
Aussen-T/F 826 09-03-2017 21:03:17 10.5 C 20 %
827 09-03-2017 21:15:17 10.4 C 20 %
828 09-03-2017 21:27:17 10.2 C 20 %
829 09-03-2017 21:39:17 10.1 C 20 %
830 09-03-2017 21:51:17 9.7 C 20 %
831 09-03-2017 22:03:17 9.5 C 20 %
832 09-03-2017 22:15:17 9.3 C 20 %
833 09-03-2017 22:27:17 8.9 C 20 %
834 09-03-2017 22:39:17 8.7 C 20 %
835 09-03-2017 22:51:17 8.5 C 20 %
836 09-03-2017 23:03:17 8.3 C 20 %
837 09-03-2017 23:15:17 8.3 C 20 %
838 09-03-2017 23:27:17 8.4 C 20 %
839 09-03-2017 23:39:17 8.3 C 20 %
840 09-03-2017 23:51:17 7.8 C 20 %
841 10-03-2017 00:03:18 7.7 C 20 %
842 10-03-2017 00:15:17 7.6 C 20 %
843 10-03-2017 00:27:17 7.6 C 20 %
844 10-03-2017 00:39:17 7.5 C 20 %
845 10-03-2017 00:51:17 7.4 C 20 %
846 10-03-2017 01:03:17 7.3 C 20 %
847 10-03-2017 01:15:17 7.2 C 20 %
848 10-03-2017 01:27:17 7 C 20 %
849 10-03-2017 01:39:17 7 C 20 %
850 10-03-2017 01:51:17 6.9 C 20 %
Sensor: Nr:Datum:Temp:Feuchte:
Aussen-T/F 851 10-03-2017 02:03:17 6.9 C 20 %
852 10-03-2017 02:15:17 7 C 20 %
853 10-03-2017 02:27:17 7 C 20 %
854 10-03-2017 02:39:17 7 C 20 %
855 10-03-2017 02:51:17 6.8 C 20 %
856 10-03-2017 03:03:17 6.7 C 20 %
857 10-03-2017 03:15:17 6.7 C 20 %
858 10-03-2017 03:27:17 6.6 C 20 %
859 10-03-2017 03:39:17 6.5 C 20 %
860 10-03-2017 03:51:17 6.5 C 20 %
861 10-03-2017 04:03:17 6.4 C 20 %
862 10-03-2017 04:15:17 6.4 C 20 %
863 10-03-2017 04:27:17 6.2 C 20 %
864 10-03-2017 04:39:17 6 C 20 %
865 10-03-2017 04:51:17 6 C 20 %
866 10-03-2017 05:03:17 6 C 20 %
867 10-03-2017 05:15:18 5.8 C 20 %
868 10-03-2017 05:27:18 5.7 C 20 %
869 10-03-2017 05:39:17 5.3 C 20 %
870 10-03-2017 05:51:17 5.2 C 20 %
871 10-03-2017 06:03:17 5.4 C 20 %
872 10-03-2017 06:15:17 5.4 C 20 %
873 10-03-2017 06:27:17 5.2 C 20 %
874 10-03-2017 06:39:17 5.3 C 20 %
875 10-03-2017 06:51:17 5.4 C 20 %
Sensor: Nr:Datum:Temp:Feuchte:
Aussen-T/F 876 10-03-2017 07:03:17 5.3 C 20 %
877 10-03-2017 07:15:17 5.3 C 20 %
878 10-03-2017 07:27:17 5.2 C 20 %
879 10-03-2017 07:39:17 5.6 C 20 %
880 10-03-2017 07:51:17 5.8 C 20 %
881 10-03-2017 08:03:17 6 C 20 %
882 10-03-2017 08:15:17 6.3 C 20 %
883 10-03-2017 08:27:17 6.7 C 20 %
884 10-03-2017 08:39:17 7 C 20 %
885 10-03-2017 08:51:17 7.1 C 20 %
886 10-03-2017 09:03:17 6.5 C 20 %
887 10-03-2017 09:15:17 5.7 C 20 %
888 10-03-2017 09:27:17 6.1 C 20 %
889 10-03-2017 09:39:17 6 C 20 %
890 10-03-2017 09:51:17 6.2 C 20 %
891 10-03-2017 10:03:17 7.4 C 20 %
892 10-03-2017 10:15:17 7.8 C 20 %
893 10-03-2017 10:27:17 7.8 C 20 %
894 10-03-2017 10:39:17 8.7 C 20 %
895 10-03-2017 10:51:17 9.1 C 20 %
896 10-03-2017 11:03:18 9.1 C 20 %
897 10-03-2017 11:15:17 9.1 C 20 %
898 10-03-2017 11:27:17 9 C 20 %
899 10-03-2017 11:39:17 8.4 C 20 %
900 10-03-2017 11:51:17 7.9 C 20 %
Sensor: Nr:Datum:Temp:Feuchte:
Aussen-T/F 901 10-03-2017 12:03:17 8.1 C 20 %
902 10-03-2017 12:15:17 8 C 20 %
903 10-03-2017 12:27:17 8 C 20 %
904 10-03-2017 12:39:17 8.1 C 20 %
905 10-03-2017 12:51:17 8.1 C 20 %
906 10-03-2017 13:03:17 8.5 C 20 %
907 10-03-2017 13:15:16 8.5 C 20 %
908 10-03-2017 13:27:17 8.7 C 20 %
909 10-03-2017 13:39:17 9 C 20 %
910 10-03-2017 13:51:17 9.3 C 20 %
911 10-03-2017 14:03:17 9.3 C 20 %
912 10-03-2017 14:15:17 9.8 C 20 %
913 10-03-2017 14:27:17 10.2 C 20 %
914 10-03-2017 14:39:17 10.5 C 20 %
915 10-03-2017 14:51:17 10.5 C 20 %
916 10-03-2017 15:03:17 10.6 C 20 %
917 10-03-2017 15:15:17 10.8 C 20 %
918 10-03-2017 15:27:17 11.2 C 20 %
919 10-03-2017 15:39:17 11.5 C 20 %
920 10-03-2017 15:51:17 11.8 C 20 %
921 10-03-2017 16:03:18 12.5 C 20 %
922 10-03-2017 16:15:17 13.8 C 20 %
923 10-03-2017 16:27:17 16.4 C 20 %
924 10-03-2017 16:39:17 19.9 C 20 %
925 10-03-2017 16:51:17 20.7 C 20 %
Sensor: Nr:Datum:Temp:Feuchte:
Aussen-T/F 926 10-03-2017 17:03:17 20.8 C 20 %
927 10-03-2017 17:15:17 14.8 C 20 %
928 10-03-2017 17:27:17 13.2 C 20 %
929 10-03-2017 17:39:17 12.1 C 20 %
930 10-03-2017 17:51:17 10.8 C 20 %
931 10-03-2017 18:03:17 9.3 C 20 %
932 10-03-2017 18:15:18 7.9 C 20 %
933 10-03-2017 18:27:18 6.9 C 20 %
934 10-03-2017 18:39:17 6.2 C 20 %
935 10-03-2017 18:51:17 5.8 C 20 %
936 10-03-2017 19:03:17 5.4 C 20 %
937 10-03-2017 19:15:17 5.1 C 20 %
938 10-03-2017 19:27:17 5.2 C 20 %
939 10-03-2017 19:39:17 4.8 C 20 %
940 10-03-2017 19:51:17 4.4 C 20 %
941 10-03-2017 20:03:17 4.1 C 20 %
942 10-03-2017 20:15:17 3.9 C 20 %
943 10-03-2017 20:27:17 3.6 C 20 %
944 10-03-2017 20:39:17 3.4 C 20 %
945 10-03-2017 20:51:17 3.5 C 25 %
946 10-03-2017 21:03:17 3.3 C 25 %
947 10-03-2017 21:15:17 3.1 C 21 %
948 10-03-2017 21:27:17 2.7 C 23 %
949 10-03-2017 21:39:17 2.4 C 25 %
950 10-03-2017 21:51:17 2.1 C 27 %
Sensor: Nr:Datum:Temp:Feuchte:
Aussen-T/F 951 10-03-2017 22:03:17 2.1 C 30 %
952 10-03-2017 22:15:18 2 C 28 %
953 10-03-2017 22:27:18 2.1 C 31 %
954 10-03-2017 22:39:17 1.9 C 32 %
955 10-03-2017 22:51:17 1.8 C 32 %
956 10-03-2017 23:03:17 1.9 C 32 %
957 10-03-2017 23:15:17 2.1 C 32 %
958 10-03-2017 23:27:17 2.1 C 33 %
959 10-03-2017 23:39:17 2.5 C 34 %
960 10-03-2017 23:51:17 2.5 C 33 %
961 11-03-2017 00:03:17 2.3 C 32 %
962 11-03-2017 00:15:17 2.3 C 33 %
963 11-03-2017 00:27:17 2.2 C 33 %
964 11-03-2017 00:39:18 2.4 C 34 %
965 11-03-2017 00:51:17 2.6 C 34 %
966 11-03-2017 01:03:17 2.7 C 34 %
967 11-03-2017 01:15:17 2.8 C 33 %
968 11-03-2017 01:27:17 2.9 C 32 %
969 11-03-2017 01:39:17 2.8 C 32 %
970 11-03-2017 01:51:17 2.6 C 32 %
971 11-03-2017 02:03:17 2.2 C 32 %
972 11-03-2017 02:15:17 1.7 C 34 %
973 11-03-2017 02:27:17 1.3 C 35 %
974 11-03-2017 02:39:17 1.5 C 37 %
975 11-03-2017 02:51:17 1.5 C 39 %
Sensor: Nr:Datum:Temp:Feuchte:
Aussen-T/F 976 11-03-2017 03:03:17 1.2 C 39 %
977 11-03-2017 03:15:17 0.8 C 40 %
978 11-03-2017 03:27:17 0.7 C 40 %
979 11-03-2017 03:39:17 0.4 C 41 %
980 11-03-2017 03:51:17 0.5 C 42 %
981 11-03-2017 04:03:17 0.6 C 43 %
982 11-03-2017 04:15:17 0.8 C 44 %
983 11-03-2017 04:27:17 1 C 44 %
984 11-03-2017 04:39:17 1.3 C 45 %
985 11-03-2017 04:51:17 1.5 C 45 %
986 11-03-2017 05:03:17 1.6 C 45 %
987 11-03-2017 05:15:17 2 C 44 %
988 11-03-2017 05:27:17 2.1 C 43 %
989 11-03-2017 05:39:17 2.2 C 43 %
990 11-03-2017 05:51:17 2.3 C 43 %
991 11-03-2017 06:03:17 2 C 41 %
992 11-03-2017 06:15:18 1.5 C 41 %
993 11-03-2017 06:27:18 0.7 C 41 %
994 11-03-2017 06:39:17 0.2 C 41 %
995 11-03-2017 06:51:17 0 C 43 %
996 11-03-2017 07:03:18 -0.1 C 45 %
997 11-03-2017 07:15:17 0.1 C 46 %
998 11-03-2017 07:27:17 0.3 C 46 %
999 11-03-2017 07:39:17 0.6 C 47 %
1000 11-03-2017 07:51:17 0.9 C 47 %
Sensor: Nr:Datum:Temp:Feuchte:
Aussen-T/F 1001 11-03-2017 08:03:17 1.2 C 46 %
1002 11-03-2017 08:15:17 1.2 C 45 %
1003 11-03-2017 08:27:17 1.1 C 45 %
1004 11-03-2017 08:39:17 1 C 44 %
1005 11-03-2017 08:51:17 1.1 C 44 %
1006 11-03-2017 09:03:17 1.4 C 45 %
1007 11-03-2017 09:15:17 1.6 C 45 %
1008 11-03-2017 09:27:17 2 C 44 %
1009 11-03-2017 09:39:17 2.4 C 44 %
1010 11-03-2017 09:51:17 2.7 C 43 %
1011 11-03-2017 10:03:17 4.2 C 36 %
1012 11-03-2017 10:15:17 4.5 C 32 %
1013 11-03-2017 10:27:17 4.5 C 32 %
1014 11-03-2017 10:39:17 8.2 C 20 %
1015 11-03-2017 10:51:17 8.5 C 20 %
1016 11-03-2017 11:03:17 8.9 C 20 %
1017 11-03-2017 11:15:17 9.7 C 20 %
1018 11-03-2017 11:27:17 10.2 C 20 %
1019 11-03-2017 11:39:17 10.6 C 20 %
1020 11-03-2017 11:51:17 10.8 C 20 %
1021 11-03-2017 12:03:17 11.2 C 20 %
1022 11-03-2017 12:15:18 11.7 C 20 %
1023 11-03-2017 12:27:18 11.9 C 20 %
1024 11-03-2017 12:39:17 12.1 C 20 %
1025 11-03-2017 12:51:17 12 C 20 %
Sensor: Nr:Datum:Temp:Feuchte:
Aussen-T/F 1026 11-03-2017 13:03:17 12.1 C 20 %
1027 11-03-2017 13:15:17 12.7 C 20 %
1028 11-03-2017 13:27:17 13.4 C 20 %
1029 11-03-2017 13:39:17 13.9 C 20 %
1030 11-03-2017 13:51:17 13.8 C 20 %
1031 11-03-2017 14:03:17 13.8 C 20 %
1032 11-03-2017 14:15:17 13.9 C 20 %
1033 11-03-2017 14:27:17 13.9 C 20 %
1034 11-03-2017 14:39:17 13.7 C 20 %
1035 11-03-2017 14:51:17 13.6 C 20 %
1036 11-03-2017 15:03:17 13.7 C 20 %
1037 11-03-2017 15:15:17 13.6 C 20 %
1038 11-03-2017 15:27:17 13.9 C 20 %
1039 11-03-2017 15:39:17 14 C 20 %
1040 11-03-2017 15:51:17 14.1 C 20 %
1041 11-03-2017 16:03:17 14.1 C 20 %
1042 11-03-2017 16:15:17 15.3 C 20 %
1043 11-03-2017 16:27:17 17.7 C 20 %
1044 11-03-2017 16:39:17 19.5 C 20 %
1045 11-03-2017 16:51:17 17.2 C 20 %
1046 11-03-2017 17:03:17 13.6 C 20 %
1047 11-03-2017 17:15:17 12.2 C 20 %
1048 11-03-2017 17:27:17 11.5 C 20 %
1049 11-03-2017 17:39:17 11 C 20 %
1050 11-03-2017 17:51:17 10.5 C 20 %
Sensor: Nr:Datum:Temp:Feuchte:
Aussen-T/F 1051 11-03-2017 18:03:18 9.7 C 20 %
1052 11-03-2017 18:15:17 9.1 C 20 %
1053 11-03-2017 18:27:17 8.5 C 20 %
1054 11-03-2017 18:39:17 7.7 C 20 %
1055 11-03-2017 18:51:17 7.2 C 20 %
1056 11-03-2017 19:03:17 6.8 C 20 %
1057 11-03-2017 19:15:17 6.6 C 20 %
1058 11-03-2017 19:27:17 6.5 C 20 %
1059 11-03-2017 19:39:17 6.3 C 20 %
1060 11-03-2017 19:51:17 6 C 20 %
1061 11-03-2017 20:03:17 5.8 C 20 %
1062 11-03-2017 20:15:17 5.5 C 20 %
1063 11-03-2017 20:27:17 5.1 C 20 %
1064 11-03-2017 20:39:17 5.1 C 20 %
1065 11-03-2017 20:51:17 4.4 C 20 %
1066 11-03-2017 21:03:17 4.1 C 20 %
1067 11-03-2017 21:15:17 3.7 C 20 %
1068 11-03-2017 21:27:17 3.6 C 20 %
1069 11-03-2017 21:39:18 3.3 C 20 %
1070 11-03-2017 21:51:17 3.2 C 20 %
1071 11-03-2017 22:03:17 3 C 20 %
1072 11-03-2017 22:15:17 2.7 C 20 %
1073 11-03-2017 22:27:17 2.6 C 20 %
1074 11-03-2017 22:39:17 2.7 C 20 %
1075 11-03-2017 22:51:17 2.5 C 21 %
Sensor: Nr:Datum:Temp:Feuchte:
Aussen-T/F 1076 11-03-2017 23:03:17 2.9 C 25 %
1077 11-03-2017 23:15:17 3 C 21 %
1078 11-03-2017 23:27:17 2.8 C 20 %
1079 11-03-2017 23:39:17 2.4 C 21 %
1080 11-03-2017 23:51:18 2.1 C 26 %
1081 12-03-2017 00:03:17 1.9 C 28 %
1082 12-03-2017 00:15:17 1.7 C 30 %
1083 12-03-2017 00:27:17 1.5 C 30 %
1084 12-03-2017 00:39:17 1.3 C 30 %
1085 12-03-2017 00:51:17 1.3 C 31 %
1086 12-03-2017 01:03:17 1.1 C 31 %
1087 12-03-2017 01:15:17 1.1 C 33 %
1088 12-03-2017 01:27:17 1 C 33 %
1089 12-03-2017 01:39:17 1 C 34 %
1090 12-03-2017 01:51:17 0.8 C 35 %
1091 12-03-2017 02:03:17 0.7 C 36 %
1092 12-03-2017 02:15:17 0.6 C 37 %
1093 12-03-2017 02:27:17 0.5 C 37 %
1094 12-03-2017 02:39:17 0.4 C 39 %
1095 12-03-2017 02:51:17 0.4 C 40 %
1096 12-03-2017 03:03:17 0.4 C 40 %
1097 12-03-2017 03:15:17 0.3 C 41 %
1098 12-03-2017 03:27:17 0.2 C 41 %
1099 12-03-2017 03:39:17 0.1 C 41 %
1100 12-03-2017 03:51:17 0.1 C 42 %
Sensor: Nr:Datum:Temp:Feuchte:
Aussen-T/F 1101 12-03-2017 04:03:17 0 C 42 %
1102 12-03-2017 04:15:17 0 C 43 %
1103 12-03-2017 04:27:17 0 C 43 %
1104 12-03-2017 04:39:17 0 C 43 %
1105 12-03-2017 04:51:17 0 C 44 %
1106 12-03-2017 05:03:17 0 C 43 %
1107 12-03-2017 05:15:17 -0.2 C 42 %
1108 12-03-2017 05:27:17 -0.1 C 43 %
1109 12-03-2017 05:39:17 -0.3 C 43 %
1110 12-03-2017 05:51:17 -0.4 C 42 %
1111 12-03-2017 06:03:17 -0.5 C 43 %
1112 12-03-2017 06:15:17 -0.6 C 43 %
1113 12-03-2017 06:27:17 -0.7 C 43 %
1114 12-03-2017 06:39:17 -0.7 C 44 %
1115 12-03-2017 06:51:17 -0.6 C 44 %
1116 12-03-2017 07:03:17 -0.7 C 44 %
1117 12-03-2017 07:15:17 -0.6 C 44 %
1118 12-03-2017 07:27:17 -0.4 C 44 %
1119 12-03-2017 07:39:17 -0.3 C 44 %
1120 12-03-2017 07:51:17 0 C 44 %
1121 12-03-2017 08:03:17 0.3 C 44 %
1122 12-03-2017 08:15:17 0.5 C 44 %
1123 12-03-2017 08:27:17 0.9 C 43 %
1124 12-03-2017 08:39:17 1.3 C 41 %
1125 12-03-2017 08:51:17 1.6 C 40 %
Sensor: Nr:Datum:Temp:Feuchte:
Aussen-T/F 1126 12-03-2017 09:03:17 2 C 39 %
1127 12-03-2017 09:15:17 2.3 C 37 %
1128 12-03-2017 09:27:17 2.7 C 35 %
1129 12-03-2017 09:39:17 3.1 C 32 %
1130 12-03-2017 09:51:17 3.5 C 29 %
1131 12-03-2017 10:03:17 4.8 C 20 %
1132 12-03-2017 10:15:17 5.3 C 20 %
1133 12-03-2017 10:27:17 6.4 C 20 %
1134 12-03-2017 10:39:17 7.8 C 20 %
1135 12-03-2017 10:51:17 8.3 C 20 %
1136 12-03-2017 11:03:17 8.9 C 20 %
1137 12-03-2017 11:15:17 9.4 C 20 %
1138 12-03-2017 11:27:17 9.6 C 20 %
1139 12-03-2017 11:39:17 10.1 C 20 %
1140 12-03-2017 11:51:17 10.2 C 20 %
1141 12-03-2017 12:03:17 10.8 C 20 %
1142 12-03-2017 12:15:17 11 C 20 %
1143 12-03-2017 12:27:17 11.3 C 20 %
1144 12-03-2017 12:39:17 11.5 C 20 %
1145 12-03-2017 12:51:17 11.9 C 20 %
1146 12-03-2017 13:03:17 12.1 C 20 %
1147 12-03-2017 13:15:17 12.4 C 20 %
1148 12-03-2017 13:27:17 12.5 C 20 %
1149 12-03-2017 13:39:17 12.7 C 20 %
1150 12-03-2017 13:51:17 13 C 20 %
Sensor: Nr:Datum:Temp:Feuchte:
Aussen-T/F 1151 12-03-2017 14:03:17 13.1 C 20 %
1152 12-03-2017 14:15:17 13.3 C 20 %
1153 12-03-2017 14:27:17 13.4 C 20 %
1154 12-03-2017 14:39:17 13.6 C 20 %
1155 12-03-2017 14:51:17 13.8 C 20 %
1156 12-03-2017 15:03:17 14 C 20 %
1157 12-03-2017 15:15:18 14.2 C 20 %
1158 12-03-2017 15:27:18 14.4 C 20 %
1159 12-03-2017 15:39:17 14.6 C 20 %
1160 12-03-2017 15:51:17 14.9 C 20 %
1161 12-03-2017 16:03:17 14.9 C 20 %
1162 12-03-2017 16:15:18 16.3 C 20 %
1163 12-03-2017 16:27:18 18.2 C 20 %
1164 12-03-2017 16:39:17 20.3 C 20 %
1165 12-03-2017 16:51:17 21.2 C 20 %
1166 12-03-2017 17:03:17 20.7 C 20 %
1167 12-03-2017 17:15:17 19.7 C 20 %
1168 12-03-2017 17:27:17 18.8 C 20 %
1169 12-03-2017 17:39:17 15.5 C 20 %
1170 12-03-2017 17:51:17 14.4 C 20 %
1171 12-03-2017 18:03:17 11.7 C 20 %
1172 12-03-2017 18:15:17 10.2 C 20 %
1173 12-03-2017 18:27:17 8.9 C 20 %
1174 12-03-2017 18:39:17 8 C 20 %
1175 12-03-2017 18:51:17 7.4 C 20 %
Sensor: Nr:Datum:Temp:Feuchte:
Aussen-T/F 1176 12-03-2017 19:03:17 6.9 C 20 %
1177 12-03-2017 19:15:17 6.7 C 20 %
1178 12-03-2017 19:27:17 6.3 C 20 %
1179 12-03-2017 19:39:17 6.2 C 20 %
1180 12-03-2017 19:51:17 6.1 C 20 %
1181 12-03-2017 20:03:17 5.9 C 20 %
1182 12-03-2017 20:15:16 5.6 C 20 %
1183 12-03-2017 20:27:17 5.1 C 20 %
1184 12-03-2017 20:39:17 5 C 20 %
1185 12-03-2017 20:51:17 4.8 C 20 %
1186 12-03-2017 21:03:18 4.5 C 20 %
1187 12-03-2017 21:15:17 4.2 C 20 %
1188 12-03-2017 21:27:17 4.1 C 20 %
1189 12-03-2017 21:39:17 3.7 C 20 %
1190 12-03-2017 21:51:17 3.9 C 20 %
1191 12-03-2017 22:03:17 3.7 C 20 %
1192 12-03-2017 22:15:17 3.2 C 20 %
1193 12-03-2017 22:27:17 2.8 C 20 %
1194 12-03-2017 22:39:17 2.6 C 20 %
1195 12-03-2017 22:51:17 2.4 C 20 %
1196 12-03-2017 23:03:17 2.4 C 20 %
1197 12-03-2017 23:15:17 2.2 C 20 %
1198 12-03-2017 23:27:17 2.2 C 20 %
1199 12-03-2017 23:39:18 2.1 C 20 %
1200 12-03-2017 23:51:17 2 C 20 %
Sensor: Nr:Datum:Temp:Feuchte:
Aussen-T/F 1201 13-03-2017 00:03:17 1.7 C 20 %
1202 13-03-2017 00:15:17 1.5 C 21 %
1203 13-03-2017 00:27:18 1.6 C 23 %
1204 13-03-2017 00:39:17 1.5 C 21 %
1205 13-03-2017 00:51:17 1.2 C 23 %
1206 13-03-2017 01:03:17 1 C 25 %
1207 13-03-2017 01:15:17 0.9 C 27 %
1208 13-03-2017 01:27:17 0.8 C 30 %
1209 13-03-2017 01:39:17 0.6 C 30 %
1210 13-03-2017 01:51:17 0.5 C 30 %
1211 13-03-2017 02:03:17 0.4 C 30 %
1212 13-03-2017 02:15:17 0.3 C 30 %
1213 13-03-2017 02:27:17 0.2 C 32 %
1214 13-03-2017 02:39:17 0.1 C 32 %
1215 13-03-2017 02:51:17 0.3 C 35 %
1216 13-03-2017 03:03:17 0.2 C 34 %
1217 13-03-2017 03:15:17 0.1 C 35 %
1218 13-03-2017 03:27:17 -0.1 C 35 %
1219 13-03-2017 03:39:17 -0.3 C 35 %
1220 13-03-2017 03:51:17 -0.7 C 35 %
1221 13-03-2017 04:03:17 -0.7 C 36 %
1222 13-03-2017 04:15:17 -0.9 C 37 %
1223 13-03-2017 04:27:17 -0.9 C 38 %
1224 13-03-2017 04:39:17 -0.9 C 39 %
1225 13-03-2017 04:51:17 -1 C 39 %
Sensor: Nr:Datum:Temp:Feuchte:
Aussen-T/F 1226 13-03-2017 05:03:17 -1 C 40 %
1227 13-03-2017 05:15:16 -1.2 C 40 %
1228 13-03-2017 05:27:17 -1.3 C 40 %
1229 13-03-2017 05:39:17 -1 C 41 %
1230 13-03-2017 05:51:17 -1 C 41 %
1231 13-03-2017 06:03:17 -0.8 C 41 %
1232 13-03-2017 06:15:17 -0.9 C 41 %
1233 13-03-2017 06:27:17 -1.1 C 41 %
1234 13-03-2017 06:39:17 -1.3 C 41 %
1235 13-03-2017 06:51:17 -1.6 C 41 %
1236 13-03-2017 07:03:17 -1.4 C 41 %
1237 13-03-2017 07:15:17 -1.4 C 41 %
1238 13-03-2017 07:27:17 -1.3 C 42 %
1239 13-03-2017 07:39:17 -1 C 43 %
1240 13-03-2017 07:51:17 -1 C 43 %
1241 13-03-2017 08:03:17 -0.8 C 43 %
1242 13-03-2017 08:15:17 -0.6 C 43 %
1243 13-03-2017 08:27:17 -0.3 C 43 %
1244 13-03-2017 08:39:17 -0.2 C 42 %
1245 13-03-2017 08:51:17 0.1 C 42 %
1246 13-03-2017 09:03:17 0.3 C 42 %
1247 13-03-2017 09:15:17 1.1 C 41 %
1248 13-03-2017 09:27:17 1.8 C 38 %
1249 13-03-2017 09:39:17 2.4 C 36 %
1250 13-03-2017 09:51:17 3.5 C 28 %
Sensor: Nr:Datum:Temp:Feuchte:
Aussen-T/F 1251 13-03-2017 10:03:17 5 C 20 %
1252 13-03-2017 10:15:17 5.8 C 20 %
1253 13-03-2017 10:27:17 6.8 C 20 %
1254 13-03-2017 10:39:17 7.5 C 20 %
1255 13-03-2017 10:51:17 8.5 C 20 %
1256 13-03-2017 11:03:17 8.8 C 20 %
1257 13-03-2017 11:15:17 9.6 C 20 %
1258 13-03-2017 11:27:17 9.6 C 20 %
1259 13-03-2017 11:39:17 10.2 C 20 %
1260 13-03-2017 11:51:17 10.1 C 20 %
1261 13-03-2017 12:03:17 9.4 C 20 %
1262 13-03-2017 12:15:17 9.3 C 20 %
1263 13-03-2017 12:27:17 9.8 C 20 %
1264 13-03-2017 12:39:17 10 C 20 %
1265 13-03-2017 12:51:17 10.3 C 20 %
1266 13-03-2017 13:03:17 10.7 C 20 %
1267 13-03-2017 13:15:17 11.1 C 20 %
1268 13-03-2017 13:27:17 11.4 C 20 %
1269 13-03-2017 13:39:17 11.7 C 20 %
1270 13-03-2017 13:51:17 12 C 20 %
1271 13-03-2017 14:03:17 12.3 C 20 %
1272 13-03-2017 14:15:17 12.6 C 20 %
1273 13-03-2017 14:27:17 12.8 C 20 %
1274 13-03-2017 14:39:17 13 C 20 %
1275 13-03-2017 14:51:17 13.2 C 20 %
Sensor: Nr:Datum:Temp:Feuchte:
Aussen-T/F 1276 13-03-2017 15:03:17 13.6 C 20 %
1277 13-03-2017 15:15:17 13.9 C 20 %
1278 13-03-2017 15:27:17 14.6 C 20 %
1279 13-03-2017 15:39:17 15.1 C 20 %
1280 13-03-2017 15:51:17 15.4 C 20 %
1281 13-03-2017 16:03:17 15.5 C 20 %
1282 13-03-2017 16:15:17 15.6 C 20 %
1283 13-03-2017 16:27:17 15.6 C 20 %
1284 13-03-2017 16:39:17 16 C 20 %
1285 13-03-2017 16:51:17 15.4 C 20 %
1286 13-03-2017 17:03:17 14.9 C 20 %
1287 13-03-2017 17:15:17 14.4 C 20 %
1288 13-03-2017 17:27:17 14.2 C 20 %
1289 13-03-2017 17:39:17 13.2 C 20 %
1290 13-03-2017 17:51:17 12.5 C 20 %
1291 13-03-2017 18:03:17 11.2 C 20 %
1292 13-03-2017 18:15:17 10.2 C 20 %
1293 13-03-2017 18:27:18 9.9 C 20 %
1294 13-03-2017 18:39:17 9.6 C 20 %
1295 13-03-2017 18:51:17 9.1 C 20 %
1296 13-03-2017 19:03:17 9.3 C 20 %
1297 13-03-2017 19:15:17 9.1 C 20 %
1298 13-03-2017 19:27:17 7.6 C 20 %
1299 13-03-2017 19:39:17 7.4 C 20 %
1300 13-03-2017 19:51:17 7.4 C 20 %
Sensor: Nr:Datum:Temp:Feuchte:
Aussen-T/F 1301 13-03-2017 20:03:17 7.7 C 20 %
1302 13-03-2017 20:15:17 7.4 C 20 %
1303 13-03-2017 20:27:17 7 C 20 %
1304 13-03-2017 20:39:17 6.8 C 20 %
1305 13-03-2017 20:51:17 6.3 C 20 %
1306 13-03-2017 21:03:17 6.1 C 20 %
1307 13-03-2017 21:15:17 5.5 C 20 %
1308 13-03-2017 21:27:17 5.5 C 20 %
1309 13-03-2017 21:39:17 6.4 C 20 %
1310 13-03-2017 21:51:17 6.7 C 20 %
1311 13-03-2017 22:03:17 7 C 20 %
1312 13-03-2017 22:15:17 7.1 C 20 %
1313 13-03-2017 22:27:17 7.3 C 20 %
1314 13-03-2017 22:39:17 7.1 C 20 %
1315 13-03-2017 22:51:17 6.7 C 20 %
1316 13-03-2017 23:03:17 6.4 C 20 %
1317 13-03-2017 23:15:17 6.5 C 23 %
1318 13-03-2017 23:27:17 6.3 C 26 %
1319 13-03-2017 23:39:17 6.5 C 27 %
1320 13-03-2017 23:51:17 7.1 C 29 %
1321 14-03-2017 00:03:17 6.6 C 26 %
1322 14-03-2017 00:15:17 6.2 C 25 %
1323 14-03-2017 00:27:17 6.3 C 27 %
1324 14-03-2017 00:39:17 6.1 C 27 %
1325 14-03-2017 00:51:17 5.7 C 27 %
Sensor: Nr:Datum:Temp:Feuchte:
Aussen-T/F 1326 14-03-2017 01:03:17 5.6 C 30 %
1327 14-03-2017 01:15:17 5.6 C 31 %
1328 14-03-2017 01:27:17 5.8 C 32 %
1329 14-03-2017 01:39:17 6 C 30 %
1330 14-03-2017 01:51:17 6.2 C 30 %
1331 14-03-2017 02:03:17 6.2 C 27 %
1332 14-03-2017 02:15:17 6.4 C 26 %
1333 14-03-2017 02:27:17 6.7 C 27 %
1334 14-03-2017 02:39:17 7.2 C 30 %
1335 14-03-2017 02:51:17 7.1 C 27 %
1336 14-03-2017 03:03:17 6.8 C 26 %
1337 14-03-2017 03:15:17 6.7 C 27 %
1338 14-03-2017 03:27:18 6.3 C 26 %
1339 14-03-2017 03:39:17 5.9 C 30 %
1340 14-03-2017 03:51:17 6.2 C 35 %
1341 14-03-2017 04:03:17 6.6 C 36 %
1342 14-03-2017 04:15:17 6.7 C 36 %
1343 14-03-2017 04:27:17 6.7 C 36 %
1344 14-03-2017 04:39:17 6.1 C 34 %
1345 14-03-2017 04:51:17 5.7 C 35 %
1346 14-03-2017 05:03:17 5.3 C 36 %
1347 14-03-2017 05:15:17 5.6 C 38 %
1348 14-03-2017 05:27:17 5.9 C 39 %
1349 14-03-2017 05:39:17 5.6 C 37 %
1350 14-03-2017 05:51:17 5.2 C 36 %
Sensor: Nr:Datum:Temp:Feuchte:
Aussen-T/F 1351 14-03-2017 06:03:17 5.2 C 38 %
1352 14-03-2017 06:15:17 5 C 37 %
1353 14-03-2017 06:27:17 4.7 C 39 %
1354 14-03-2017 06:39:17 4.6 C 40 %
1355 14-03-2017 06:51:17 4.4 C 40 %
1356 14-03-2017 07:03:17 4.2 C 40 %
1357 14-03-2017 07:15:17 4 C 41 %
1358 14-03-2017 07:27:17 3.9 C 42 %
1359 14-03-2017 07:39:17 3.6 C 41 %
1360 14-03-2017 07:51:17 3.7 C 43 %
1361 14-03-2017 08:03:17 4 C 43 %
1362 14-03-2017 08:15:17 4.1 C 42 %
1363 14-03-2017 08:27:17 4.6 C 42 %
1364 14-03-2017 08:39:17 4.5 C 42 %
1365 14-03-2017 08:51:17 4.9 C 42 %
1366 14-03-2017 09:03:17 6.2 C 43 %
1367 14-03-2017 09:15:17 7.1 C 41 %
1368 14-03-2017 09:27:17 7.6 C 37 %
1369 14-03-2017 09:39:17 7.4 C 31 %
1370 14-03-2017 09:51:17 7.5 C 30 %
1371 14-03-2017 10:03:17 8.4 C 25 %
1372 14-03-2017 10:15:17 8.7 C 20 %
1373 14-03-2017 10:27:17 9.3 C 20 %
1374 14-03-2017 10:39:17 10.5 C 20 %
1375 14-03-2017 10:51:17 10.3 C 20 %
Sensor: Nr:Datum:Temp:Feuchte:
Aussen-T/F 1376 14-03-2017 11:03:17 10.4 C 20 %
1377 14-03-2017 11:15:17 10.7 C 20 %
1378 14-03-2017 11:27:17 10.5 C 20 %
1379 14-03-2017 11:39:17 10.8 C 20 %
1380 14-03-2017 11:51:17 10.7 C 20 %
1381 14-03-2017 12:03:17 10.9 C 20 %
1382 14-03-2017 12:15:17 11 C 20 %
1383 14-03-2017 12:27:17 11.1 C 20 %
1384 14-03-2017 12:39:17 11.4 C 20 %
1385 14-03-2017 12:51:17 11.6 C 20 %
1386 14-03-2017 13:03:17 12.1 C 20 %
1387 14-03-2017 13:15:17 12.4 C 20 %
1388 14-03-2017 13:27:17 12.7 C 20 %
1389 14-03-2017 13:39:17 13.1 C 20 %
1390 14-03-2017 13:51:17 13.3 C 20 %
1391 14-03-2017 14:03:17 13.6 C 20 %
1392 14-03-2017 14:15:17 13.8 C 20 %
1393 14-03-2017 14:27:17 14.2 C 20 %
1394 14-03-2017 14:39:17 14.3 C 20 %
1395 14-03-2017 14:51:17 14.6 C 20 %
1396 14-03-2017 15:03:17 14.9 C 20 %
1397 14-03-2017 15:15:17 15.3 C 20 %
1398 14-03-2017 15:27:17 16.2 C 20 %
1399 14-03-2017 15:39:17 16.2 C 20 %
1400 14-03-2017 15:51:17 16.3 C 20 %
Sensor: Nr:Datum:Temp:Feuchte:
Aussen-T/F 1401 14-03-2017 16:03:17 16.5 C 20 %
1402 14-03-2017 16:15:17 17.4 C 20 %
1403 14-03-2017 16:27:17 18.3 C 20 %
1404 14-03-2017 16:39:17 18.3 C 20 %
1405 14-03-2017 16:51:17 18.1 C 20 %
1406 14-03-2017 17:03:17 16.6 C 20 %
1407 14-03-2017 17:15:17 15.2 C 20 %
1408 14-03-2017 17:27:17 14.8 C 20 %
1409 14-03-2017 17:39:17 14.1 C 20 %
1410 14-03-2017 17:51:17 12.8 C 20 %
1411 14-03-2017 18:03:17 12.1 C 20 %
1412 14-03-2017 18:15:18 11.4 C 20 %
1413 14-03-2017 18:27:18 10.8 C 20 %
1414 14-03-2017 18:39:17 10.2 C 20 %
1415 14-03-2017 18:51:17 9.9 C 20 %
1416 14-03-2017 19:03:17 9.5 C 20 %
1417 14-03-2017 19:15:17 9.3 C 20 %
1418 14-03-2017 19:27:18 9.3 C 20 %
1419 14-03-2017 19:39:17 9.2 C 20 %
1420 14-03-2017 19:51:17 8.9 C 20 %
1421 14-03-2017 20:03:17 8.7 C 20 %
1422 14-03-2017 20:15:17 8.4 C 20 %
1423 14-03-2017 20:27:17 8 C 20 %
1424 14-03-2017 20:39:17 7.7 C 20 %
1425 14-03-2017 20:51:17 7.5 C 20 %
Sensor: Nr:Datum:Temp:Feuchte:
Aussen-T/F 1426 14-03-2017 21:03:17 7.9 C 20 %
1427 14-03-2017 21:15:17 7.4 C 20 %
1428 14-03-2017 21:27:17 6.9 C 20 %
1429 14-03-2017 21:39:17 6.5 C 20 %
1430 14-03-2017 21:51:17 6.4 C 25 %
1431 14-03-2017 22:03:17 6.3 C 25 %
1432 14-03-2017 22:15:17 6.3 C 25 %
1433 14-03-2017 22:27:17 6.6 C 26 %
1434 14-03-2017 22:39:17 6.3 C 25 %
1435 14-03-2017 22:51:17 6.4 C 25 %
1436 14-03-2017 23:03:17 6.2 C 26 %
1437 14-03-2017 23:15:17 6.2 C 27 %
1438 14-03-2017 23:27:17 6.1 C 29 %
1439 14-03-2017 23:39:17 6 C 31 %
1440 14-03-2017 23:51:17 6.4 C 32 %
1441 15-03-2017 00:03:17 7.1 C 32 %
1442 15-03-2017 00:15:17 7.5 C 29 %
1443 15-03-2017 00:27:17 7.7 C 26 %
1444 15-03-2017 00:39:17 7.8 C 26 %
1445 15-03-2017 00:51:17 8.1 C 26 %
1446 15-03-2017 01:03:18 8.4 C 26 %
1447 15-03-2017 01:15:17 8.1 C 21 %
1448 15-03-2017 01:27:17 8 C 20 %
1449 15-03-2017 01:39:17 7.9 C 20 %
1450 15-03-2017 01:51:17 7.9 C 20 %
Sensor: Nr:Datum:Temp:Feuchte:
Aussen-T/F 1451 15-03-2017 02:03:17 7.9 C 23 %
1452 15-03-2017 02:15:17 8 C 23 %
1453 15-03-2017 02:27:17 8.1 C 23 %
1454 15-03-2017 02:39:18 7.9 C 20 %
1455 15-03-2017 02:51:17 7.8 C 20 %
1456 15-03-2017 03:03:17 7.8 C 20 %
1457 15-03-2017 03:15:17 7.9 C 25 %
1458 15-03-2017 03:27:17 7.9 C 25 %
1459 15-03-2017 03:39:17 7.9 C 23 %
1460 15-03-2017 03:51:17 7.9 C 23 %
1461 15-03-2017 04:03:18 7.9 C 23 %
1462 15-03-2017 04:15:17 8.1 C 25 %
1463 15-03-2017 04:27:17 8.2 C 25 %
1464 15-03-2017 04:39:17 8 C 20 %
1465 15-03-2017 04:51:17 8.1 C 23 %
1466 15-03-2017 05:03:17 8.2 C 25 %
1467 15-03-2017 05:15:17 8.2 C 25 %
1468 15-03-2017 05:27:17 8.2 C 25 %
1469 15-03-2017 05:39:17 8.1 C 23 %
1470 15-03-2017 05:51:17 8 C 25 %
1471 15-03-2017 06:03:17 8 C 23 %
1472 15-03-2017 06:15:17 7.7 C 23 %
1473 15-03-2017 06:27:17 7.8 C 25 %
1474 15-03-2017 06:39:17 7.9 C 26 %
1475 15-03-2017 06:51:17 7.7 C 25 %
Sensor: Nr:Datum:Temp:Feuchte:
Aussen-T/F 1476 15-03-2017 07:03:17 7.5 C 25 %
1477 15-03-2017 07:15:17 7.5 C 26 %
1478 15-03-2017 07:27:17 7.8 C 27 %
1479 15-03-2017 07:39:17 8.1 C 26 %
1480 15-03-2017 07:51:17 8.1 C 26 %
1481 15-03-2017 08:03:17 8.2 C 26 %
1482 15-03-2017 08:15:17 8.3 C 26 %
1483 15-03-2017 08:27:17 8.3 C 25 %
1484 15-03-2017 08:39:17 8.6 C 26 %
1485 15-03-2017 08:51:17 9.1 C 26 %
1486 15-03-2017 09:03:17 9.5 C 25 %
1487 15-03-2017 09:15:17 9.9 C 20 %
1488 15-03-2017 09:27:17 10 C 20 %
1489 15-03-2017 09:39:17 10.4 C 20 %
1490 15-03-2017 09:51:17 10.5 C 20 %
1491 15-03-2017 10:03:17 10.6 C 20 %
1492 15-03-2017 10:15:17 10.9 C 20 %
1493 15-03-2017 10:27:17 12 C 20 %
1494 15-03-2017 10:39:17 12.5 C 20 %
1495 15-03-2017 10:51:17 12.7 C 20 %
1496 15-03-2017 11:03:17 13.4 C 20 %
1497 15-03-2017 11:15:17 13.5 C 20 %
1498 15-03-2017 11:27:17 14.2 C 20 %
1499 15-03-2017 11:39:17 13.9 C 20 %
1500 15-03-2017 11:51:17 14.9 C 20 %
Sensor: Nr:Datum:Temp:Feuchte:
Aussen-T/F 1501 15-03-2017 12:03:17 15.3 C 20 %
1502 15-03-2017 12:15:17 15.5 C 20 %
1503 15-03-2017 12:27:17 15.9 C 20 %
1504 15-03-2017 12:39:17 16 C 20 %
1505 15-03-2017 12:51:17 16.2 C 20 %
1506 15-03-2017 13:03:17 15.8 C 20 %
1507 15-03-2017 13:15:17 16 C 20 %
1508 15-03-2017 13:27:17 16 C 20 %
1509 15-03-2017 13:39:17 15.7 C 20 %
1510 15-03-2017 13:51:17 15.7 C 20 %
1511 15-03-2017 14:03:17 15.9 C 20 %
1512 15-03-2017 14:15:17 15.4 C 20 %
1513 15-03-2017 14:27:17 15.6 C 20 %
1514 15-03-2017 14:39:17 15.4 C 20 %
1515 15-03-2017 14:51:17 15.2 C 20 %
1516 15-03-2017 15:03:17 15.4 C 20 %
1517 15-03-2017 15:15:17 15.8 C 20 %
1518 15-03-2017 15:27:17 16 C 20 %
1519 15-03-2017 15:39:17 16 C 20 %
1520 15-03-2017 15:51:17 16.6 C 20 %
1521 15-03-2017 16:03:17 16.5 C 20 %
1522 15-03-2017 16:15:17 17.5 C 20 %
1523 15-03-2017 16:27:17 20 C 20 %
1524 15-03-2017 16:39:17 23.3 C 20 %
1525 15-03-2017 16:51:17 22.6 C 20 %
Sensor: Nr:Datum:Temp:Feuchte:
Aussen-T/F 1526 15-03-2017 17:03:17 24 C 20 %
1527 15-03-2017 17:15:18 23.3 C 20 %
1528 15-03-2017 17:27:18 22.2 C 20 %
1529 15-03-2017 17:39:17 20.9 C 20 %
1530 15-03-2017 17:51:17 18.9 C 20 %
1531 15-03-2017 18:03:17 16.9 C 20 %
1532 15-03-2017 18:15:17 14 C 20 %
1533 15-03-2017 18:27:17 12.4 C 20 %
1534 15-03-2017 18:39:17 11.9 C 20 %
1535 15-03-2017 18:51:17 10.2 C 20 %
1536 15-03-2017 19:03:17 9.8 C 20 %
1537 15-03-2017 19:15:17 9.8 C 20 %
1538 15-03-2017 19:27:17 9.3 C 20 %
1539 15-03-2017 19:39:17 9.3 C 20 %
1540 15-03-2017 19:51:17 9.4 C 20 %
1541 15-03-2017 20:03:17 9.4 C 20 %
1542 15-03-2017 20:15:17 9.3 C 20 %
1543 15-03-2017 20:27:17 8.7 C 20 %
1544 15-03-2017 20:39:17 8.3 C 20 %
1545 15-03-2017 20:51:17 7.8 C 20 %
1546 15-03-2017 21:03:17 7.2 C 20 %
1547 15-03-2017 21:15:17 6.7 C 20 %
1548 15-03-2017 21:27:17 6.5 C 21 %
1549 15-03-2017 21:39:17 6.4 C 25 %
1550 15-03-2017 21:51:17 6 C 25 %
Sensor: Nr:Datum:Temp:Feuchte:
Aussen-T/F 1551 15-03-2017 22:03:17 5.5 C 26 %
1552 15-03-2017 22:15:17 5 C 28 %
1553 15-03-2017 22:27:17 4.8 C 31 %
1554 15-03-2017 22:39:17 4.6 C 32 %
1555 15-03-2017 22:51:17 4.6 C 32 %
1556 15-03-2017 23:03:17 4.2 C 32 %
1557 15-03-2017 23:15:17 4.2 C 34 %
1558 15-03-2017 23:27:17 4 C 34 %
1559 15-03-2017 23:39:17 3.6 C 35 %
1560 15-03-2017 23:51:17 3.5 C 37 %
1561 16-03-2017 00:03:17 3.4 C 38 %
1562 16-03-2017 00:15:17 3.2 C 38 %
1563 16-03-2017 00:27:17 3.1 C 39 %
1564 16-03-2017 00:39:17 2.8 C 40 %
1565 16-03-2017 00:51:17 2.8 C 41 %
1566 16-03-2017 01:03:17 2.6 C 41 %
1567 16-03-2017 01:15:17 2.6 C 42 %
1568 16-03-2017 01:27:17 2.4 C 42 %
1569 16-03-2017 01:39:17 2.2 C 42 %
1570 16-03-2017 01:51:17 2.1 C 43 %
1571 16-03-2017 02:03:17 2.1 C 45 %
1572 16-03-2017 02:15:17 2.2 C 45 %
1573 16-03-2017 02:27:17 2.1 C 45 %
1574 16-03-2017 02:39:17 1.9 C 46 %
1575 16-03-2017 02:51:17 1.7 C 47 %
Sensor: Nr:Datum:Temp:Feuchte:
Aussen-T/F 1576 16-03-2017 03:03:17 1.5 C 46 %
1577 16-03-2017 03:15:17 1.6 C 47 %
1578 16-03-2017 03:27:17 1.4 C 47 %
1579 16-03-2017 03:39:17 1.4 C 48 %
1580 16-03-2017 03:51:17 1.5 C 49 %
1581 16-03-2017 04:03:17 1 C 48 %
1582 16-03-2017 04:15:17 1.2 C 49 %
1583 16-03-2017 04:27:17 1.3 C 50 %
1584 16-03-2017 04:39:17 1.7 C 51 %
1585 16-03-2017 04:51:17 1.6 C 51 %
1586 16-03-2017 05:03:17 0.9 C 50 %
1587 16-03-2017 05:15:17 0.6 C 50 %
1588 16-03-2017 05:27:17 0.6 C 50 %
1589 16-03-2017 05:39:17 0.4 C 50 %
1590 16-03-2017 05:51:17 0.4 C 51 %
1591 16-03-2017 06:03:17 0.2 C 51 %
1592 16-03-2017 06:15:17 0.3 C 52 %
1593 16-03-2017 06:27:17 0.2 C 53 %
1594 16-03-2017 06:39:17 0.1 C 54 %
1595 16-03-2017 06:51:17 0.1 C 54 %
1596 16-03-2017 07:03:17 0.2 C 55 %
1597 16-03-2017 07:15:17 0.5 C 57 %
1598 16-03-2017 07:27:17 0.5 C 56 %
1599 16-03-2017 07:39:17 0.5 C 56 %
1600 16-03-2017 07:51:17 0.8 C 57 %
Sensor: Nr:Datum:Temp:Feuchte:
Aussen-T/F 1601 16-03-2017 08:03:17 1.2 C 57 %
1602 16-03-2017 08:15:16 1.5 C 57 %
1603 16-03-2017 08:27:17 1.5 C 56 %
1604 16-03-2017 08:39:17 1.8 C 56 %
1605 16-03-2017 08:51:17 2.1 C 55 %
1606 16-03-2017 09:03:17 2.3 C 54 %
1607 16-03-2017 09:15:17 2.6 C 53 %
1608 16-03-2017 09:27:17 3.1 C 52 %
1609 16-03-2017 09:39:17 3.5 C 52 %
1610 16-03-2017 09:51:17 4.1 C 49 %
1611 16-03-2017 10:03:17 5.1 C 44 %
1612 16-03-2017 10:15:17 5.5 C 40 %
1613 16-03-2017 10:27:17 6.9 C 36 %
1614 16-03-2017 10:39:17 8.5 C 25 %
1615 16-03-2017 10:51:17 8.5 C 20 %
1616 16-03-2017 11:03:17 9.5 C 20 %
1617 16-03-2017 11:15:17 10.7 C 20 %
1618 16-03-2017 11:27:17 10 C 20 %
1619 16-03-2017 11:39:17 9.9 C 20 %
1620 16-03-2017 11:51:16 10.4 C 20 %
1621 16-03-2017 12:03:17 10.8 C 20 %
1622 16-03-2017 12:15:17 11.3 C 20 %
1623 16-03-2017 12:27:17 11.8 C 20 %
1624 16-03-2017 12:39:17 12.1 C 20 %
1625 16-03-2017 12:51:17 12.4 C 20 %
Sensor: Nr:Datum:Temp:Feuchte:
Aussen-T/F 1626 16-03-2017 13:03:17 13.1 C 20 %
1627 16-03-2017 13:15:17 13.4 C 20 %
1628 16-03-2017 13:27:17 13.7 C 20 %
1629 16-03-2017 13:39:17 14.2 C 20 %
1630 16-03-2017 13:51:17 14.5 C 20 %
1631 16-03-2017 14:03:17 14.8 C 20 %
1632 16-03-2017 14:15:17 15.2 C 20 %
1633 16-03-2017 14:27:17 15.5 C 20 %
1634 16-03-2017 14:39:17 15.9 C 20 %
1635 16-03-2017 14:51:17 16.1 C 20 %
1636 16-03-2017 15:03:17 16.4 C 20 %
1637 16-03-2017 15:15:18 16.8 C 20 %
1638 16-03-2017 15:27:18 17.4 C 20 %
1639 16-03-2017 15:39:17 17.8 C 20 %
1640 16-03-2017 15:51:17 18.4 C 20 %
1641 16-03-2017 16:03:17 19.2 C 20 %
1642 16-03-2017 16:15:17 20 C 20 %
1643 16-03-2017 16:27:17 23.7 C 20 %
1644 16-03-2017 16:39:17 25.5 C 20 %
1645 16-03-2017 16:51:17 27.5 C 20 %
1646 16-03-2017 17:03:17 24.1 C 20 %
1647 16-03-2017 17:15:16 22 C 20 %
1648 16-03-2017 17:27:17 21.1 C 20 %
1649 16-03-2017 17:39:17 20.1 C 20 %
1650 16-03-2017 17:51:16 19.5 C 20 %
Sensor: Nr:Datum:Temp:Feuchte:
Aussen-T/F 1651 16-03-2017 18:03:17 17.2 C 20 %
1652 16-03-2017 18:15:17 14.4 C 20 %
1653 16-03-2017 18:27:17 12.9 C 20 %
1654 16-03-2017 18:39:17 11.8 C 20 %
1655 16-03-2017 18:51:17 11.1 C 20 %
1656 16-03-2017 19:03:17 10.9 C 20 %
1657 16-03-2017 19:15:17 10.3 C 20 %
1658 16-03-2017 19:27:18 10 C 20 %
1659 16-03-2017 19:39:17 9.6 C 20 %
1660 16-03-2017 19:51:17 9.4 C 20 %
1661 16-03-2017 20:03:18 8.9 C 20 %
1662 16-03-2017 20:15:17 8.7 C 20 %
1663 16-03-2017 20:27:17 8.1 C 20 %
1664 16-03-2017 20:39:17 7.9 C 20 %
1665 16-03-2017 20:51:17 7.5 C 20 %
1666 16-03-2017 21:03:18 7.3 C 20 %
1667 16-03-2017 21:15:17 7 C 20 %
1668 16-03-2017 21:27:17 6.8 C 20 %
1669 16-03-2017 21:39:17 6.5 C 20 %
1670 16-03-2017 21:51:17 6.4 C 20 %
1671 16-03-2017 22:03:17 6.1 C 20 %
1672 16-03-2017 22:15:17 6 C 20 %
1673 16-03-2017 22:27:17 5.7 C 20 %
1674 16-03-2017 22:39:17 5.6 C 20 %
1675 16-03-2017 22:51:17 5.2 C 20 %
Sensor: Nr:Datum:Temp:Feuchte:
Aussen-T/F 1676 16-03-2017 23:03:17 5.2 C 20 %
1677 16-03-2017 23:15:17 4.9 C 20 %
1678 16-03-2017 23:27:17 4.8 C 20 %
1679 16-03-2017 23:39:17 4.7 C 20 %
1680 16-03-2017 23:51:17 4.4 C 20 %
1681 17-03-2017 00:03:17 4.2 C 20 %
1682 17-03-2017 00:15:17 4 C 21 %
1683 17-03-2017 00:27:17 4.1 C 25 %
1684 17-03-2017 00:39:17 3.9 C 25 %
1685 17-03-2017 00:51:17 3.8 C 28 %
1686 17-03-2017 01:03:17 3.8 C 28 %
1687 17-03-2017 01:15:17 4.1 C 27 %
1688 17-03-2017 01:27:17 3.7 C 26 %
1689 17-03-2017 01:39:17 3.5 C 27 %
1690 17-03-2017 01:51:17 3.5 C 28 %
1691 17-03-2017 02:03:17 3.5 C 30 %
1692 17-03-2017 02:15:17 3.1 C 30 %
1693 17-03-2017 02:27:17 3 C 32 %
1694 17-03-2017 02:39:17 3.1 C 33 %
1695 17-03-2017 02:51:17 3.7 C 35 %
1696 17-03-2017 03:03:17 4 C 31 %
1697 17-03-2017 03:15:17 3.5 C 30 %
1698 17-03-2017 03:27:17 3.4 C 31 %
1699 17-03-2017 03:39:17 3.3 C 31 %
1700 17-03-2017 03:51:17 3.2 C 32 %
Sensor: Nr:Datum:Temp:Feuchte:
Aussen-T/F 1701 17-03-2017 04:03:17 3.2 C 33 %
1702 17-03-2017 04:15:17 3.3 C 33 %
1703 17-03-2017 04:27:17 3.2 C 33 %
1704 17-03-2017 04:39:17 3.3 C 35 %
1705 17-03-2017 04:51:17 3.5 C 34 %
1706 17-03-2017 05:03:17 3.5 C 33 %
1707 17-03-2017 05:15:17 4.1 C 29 %
1708 17-03-2017 05:27:17 3.8 C 28 %
1709 17-03-2017 05:39:17 4.8 C 29 %
1710 17-03-2017 05:51:17 5.1 C 25 %
1711 17-03-2017 06:03:17 5.1 C 25 %
1712 17-03-2017 06:15:17 5.4 C 23 %
1713 17-03-2017 06:27:17 5.8 C 20 %
1714 17-03-2017 06:39:17 6.1 C 20 %
1715 17-03-2017 06:51:17 5.9 C 20 %
1716 17-03-2017 07:03:17 6.1 C 20 %
1717 17-03-2017 07:15:17 6.6 C 20 %
1718 17-03-2017 07:27:17 6.6 C 20 %
1719 17-03-2017 07:39:17 6.8 C 20 %
1720 17-03-2017 07:51:17 6.8 C 20 %
1721 17-03-2017 08:03:17 7 C 20 %
1722 17-03-2017 08:15:17 7.5 C 20 %
1723 17-03-2017 08:27:17 7.8 C 20 %
1724 17-03-2017 08:39:17 7.6 C 20 %
1725 17-03-2017 08:51:17 7.5 C 20 %
Sensor: Nr:Datum:Temp:Feuchte:
Aussen-T/F 1726 17-03-2017 09:03:17 7.7 C 20 %
1727 17-03-2017 09:15:17 7.8 C 20 %
1728 17-03-2017 09:27:17 7.8 C 20 %
1729 17-03-2017 09:39:17 7.9 C 20 %
1730 17-03-2017 09:51:17 8.6 C 20 %
1731 17-03-2017 10:03:17 9.7 C 20 %
1732 17-03-2017 10:15:17 11 C 20 %
1733 17-03-2017 10:27:17 11.8 C 20 %
1734 17-03-2017 10:39:17 12 C 20 %
1735 17-03-2017 10:51:17 11.4 C 20 %
1736 17-03-2017 11:03:17 12.4 C 20 %
1737 17-03-2017 11:15:17 13.1 C 20 %
1738 17-03-2017 11:27:17 13.4 C 20 %
1739 17-03-2017 11:39:16 13 C 20 %
1740 17-03-2017 11:51:16 13.2 C 20 %
1741 17-03-2017 12:03:17 12.6 C 20 %
1742 17-03-2017 12:15:17 12.1 C 20 %
1743 17-03-2017 12:27:17 12 C 20 %
1744 17-03-2017 12:39:17 12.1 C 20 %
1745 17-03-2017 12:51:17 12.1 C 20 %
1746 17-03-2017 13:03:17 12.6 C 20 %
1747 17-03-2017 13:15:18 13 C 20 %
1748 17-03-2017 13:27:18 13.5 C 20 %
1749 17-03-2017 13:39:17 13.7 C 20 %
1750 17-03-2017 13:51:17 13.2 C 20 %
Sensor: Nr:Datum:Temp:Feuchte:
Aussen-T/F 1751 17-03-2017 14:03:17 12.3 C 20 %
1752 17-03-2017 14:15:17 12.9 C 20 %
1753 17-03-2017 14:27:18 13.4 C 20 %
1754 17-03-2017 14:39:17 13.7 C 20 %
1755 17-03-2017 14:51:17 13.3 C 20 %
1756 17-03-2017 15:03:17 13.1 C 20 %
1757 17-03-2017 15:15:18 12.8 C 20 %
1758 17-03-2017 15:27:18 12.4 C 20 %
1759 17-03-2017 15:39:17 12.8 C 20 %
1760 17-03-2017 15:51:17 13.4 C 20 %
1761 17-03-2017 16:03:17 13.2 C 20 %
1762 17-03-2017 16:15:17 13 C 20 %
1763 17-03-2017 16:27:17 12.4 C 20 %
1764 17-03-2017 16:39:17 12 C 20 %
1765 17-03-2017 16:51:17 11.9 C 20 %
1766 17-03-2017 17:03:17 12.1 C 20 %
1767 17-03-2017 17:15:17 12.1 C 20 %
1768 17-03-2017 17:27:17 11.8 C 20 %
1769 17-03-2017 17:39:17 11.4 C 20 %
1770 17-03-2017 17:51:17 11.1 C 20 %
1771 17-03-2017 18:03:17 11 C 20 %
1772 17-03-2017 18:15:17 10.6 C 20 %
1773 17-03-2017 18:27:17 10.1 C 20 %
1774 17-03-2017 18:39:17 9.7 C 20 %
1775 17-03-2017 18:51:17 9.4 C 20 %
Sensor: Nr:Datum:Temp:Feuchte:
Aussen-T/F 1776 17-03-2017 19:03:17 9.3 C 20 %
1777 17-03-2017 19:15:16 8.5 C 20 %
1778 17-03-2017 19:27:17 8.1 C 20 %
1779 17-03-2017 19:39:17 7.6 C 20 %
1780 17-03-2017 19:51:17 7.4 C 20 %
1781 17-03-2017 20:03:17 7.5 C 20 %
1782 17-03-2017 20:15:17 7.3 C 20 %
1783 17-03-2017 20:27:17 7.2 C 20 %
1784 17-03-2017 20:39:17 7 C 20 %
1785 17-03-2017 20:51:17 6.6 C 20 %
1786 17-03-2017 21:03:17 6.9 C 20 %
1787 17-03-2017 21:15:17 7.3 C 20 %
1788 17-03-2017 21:27:17 7.5 C 20 %
1789 17-03-2017 21:39:17 7.8 C 20 %
1790 17-03-2017 21:51:17 8.4 C 20 %
1791 17-03-2017 22:03:18 8.5 C 20 %
1792 17-03-2017 22:15:17 8.7 C 20 %
1793 17-03-2017 22:27:17 8.6 C 20 %
1794 17-03-2017 22:39:17 8.9 C 20 %
1795 17-03-2017 22:51:17 9.1 C 20 %
1796 17-03-2017 23:03:17 9 C 20 %
1797 17-03-2017 23:15:17 8.9 C 20 %
1798 17-03-2017 23:27:17 8.9 C 20 %
1799 17-03-2017 23:39:17 8.7 C 20 %
1800 17-03-2017 23:51:17 8.6 C 20 %
Sensor: Nr:Datum:Temp:Feuchte:
Aussen-T/F 1801 18-03-2017 00:03:17 8.6 C 20 %
1802 18-03-2017 00:15:17 8.7 C 20 %
1803 18-03-2017 00:27:17 8.7 C 20 %
1804 18-03-2017 00:39:17 8.7 C 20 %
1805 18-03-2017 00:51:17 8.7 C 20 %
1806 18-03-2017 01:03:17 8.7 C 20 %
1807 18-03-2017 01:15:17 8.3 C 20 %
1808 18-03-2017 01:27:17 7.4 C 20 %
1809 18-03-2017 01:39:17 7 C 20 %
1810 18-03-2017 01:51:17 6.9 C 20 %
1811 18-03-2017 02:03:17 6.9 C 20 %
1812 18-03-2017 02:15:17 6.2 C 20 %
1813 18-03-2017 02:27:17 6.1 C 20 %
1814 18-03-2017 02:39:17 5.9 C 20 %
1815 18-03-2017 02:51:17 5.7 C 20 %
1816 18-03-2017 03:03:17 5.5 C 20 %
1817 18-03-2017 03:15:17 5.4 C 20 %
1818 18-03-2017 03:27:17 5.4 C 20 %
1819 18-03-2017 03:39:17 5.7 C 20 %
1820 18-03-2017 03:51:17 5.9 C 20 %
1821 18-03-2017 04:03:17 6.1 C 20 %
1822 18-03-2017 04:15:17 6.2 C 20 %
1823 18-03-2017 04:27:17 6.4 C 20 %
1824 18-03-2017 04:39:17 6.3 C 20 %
1825 18-03-2017 04:51:17 6 C 20 %
Sensor: Nr:Datum:Temp:Feuchte:
Aussen-T/F 1826 18-03-2017 05:03:17 5.9 C 20 %
1827 18-03-2017 05:15:17 6.2 C 20 %
1828 18-03-2017 05:27:17 6.1 C 20 %
1829 18-03-2017 05:39:17 5.9 C 20 %
1830 18-03-2017 05:51:17 5.8 C 25 %
1831 18-03-2017 06:03:17 5.8 C 25 %
1832 18-03-2017 06:15:17 6 C 25 %
1833 18-03-2017 06:27:17 6.3 C 20 %
1834 18-03-2017 06:39:17 6.5 C 20 %
1835 18-03-2017 06:51:17 6.5 C 20 %
1836 18-03-2017 07:03:17 6.6 C 20 %
1837 18-03-2017 07:15:17 6.4 C 25 %
1838 18-03-2017 07:27:17 6.3 C 28 %
1839 18-03-2017 07:39:17 6.3 C 31 %
1840 18-03-2017 07:51:17 6.3 C 32 %
1841 18-03-2017 08:03:17 6.4 C 34 %
1842 18-03-2017 08:15:17 6.4 C 35 %
1843 18-03-2017 08:27:17 6.5 C 35 %
1844 18-03-2017 08:39:17 6.6 C 36 %
1845 18-03-2017 08:51:17 6.8 C 37 %
1846 18-03-2017 09:03:17 7.1 C 36 %
1847 18-03-2017 09:15:17 7.3 C 36 %
1848 18-03-2017 09:27:17 7.4 C 35 %
1849 18-03-2017 09:39:17 7.6 C 34 %
1850 18-03-2017 09:51:17 7.8 C 33 %
Sensor: Nr:Datum:Temp:Feuchte:
Aussen-T/F 1851 18-03-2017 10:03:17 8 C 32 %
1852 18-03-2017 10:15:17 8.5 C 31 %
1853 18-03-2017 10:27:17 8.9 C 30 %
1854 18-03-2017 10:39:17 9.5 C 23 %
1855 18-03-2017 10:51:17 9.7 C 20 %
1856 18-03-2017 11:03:17 10.2 C 20 %
1857 18-03-2017 11:15:17 10.3 C 20 %
1858 18-03-2017 11:27:17 10 C 20 %
1859 18-03-2017 11:39:17 10.2 C 20 %
1860 18-03-2017 11:51:17 10.8 C 20 %
1861 18-03-2017 12:03:17 11 C 20 %
1862 18-03-2017 12:15:17 10.7 C 20 %
1863 18-03-2017 12:27:17 10.4 C 20 %
1864 18-03-2017 12:39:17 10.7 C 20 %
1865 18-03-2017 12:51:17 11 C 20 %
1866 18-03-2017 13:03:17 11 C 20 %
1867 18-03-2017 13:15:17 11.2 C 20 %
1868 18-03-2017 13:27:17 11.6 C 20 %
1869 18-03-2017 13:39:17 11.5 C 20 %
1870 18-03-2017 13:51:17 11.2 C 20 %
1871 18-03-2017 14:03:17 11.2 C 20 %
1872 18-03-2017 14:15:17 11.4 C 20 %
1873 18-03-2017 14:27:17 11.7 C 20 %
1874 18-03-2017 14:39:17 11.9 C 20 %
1875 18-03-2017 14:51:17 11.9 C 20 %
Sensor: Nr:Datum:Temp:Feuchte:
Aussen-T/F 1876 18-03-2017 15:03:17 11.7 C 20 %
1877 18-03-2017 15:15:17 11.5 C 23 %
1878 18-03-2017 15:27:17 11.4 C 26 %
1879 18-03-2017 15:39:17 11.3 C 29 %
1880 18-03-2017 15:51:17 11.4 C 30 %
1881 18-03-2017 16:03:17 11.4 C 29 %
1882 18-03-2017 16:15:18 11.5 C 28 %
1883 18-03-2017 16:27:18 11.6 C 27 %
1884 18-03-2017 16:39:17 11.6 C 27 %
1885 18-03-2017 16:51:17 11.7 C 26 %
1886 18-03-2017 17:03:17 11.5 C 27 %
1887 18-03-2017 17:15:17 11.5 C 27 %
1888 18-03-2017 17:27:17 11.8 C 26 %
1889 18-03-2017 17:39:17 11.9 C 25 %
1890 18-03-2017 17:51:17 11.4 C 27 %
1891 18-03-2017 18:03:17 11.2 C 30 %
1892 18-03-2017 18:15:17 11 C 34 %
1893 18-03-2017 18:27:17 10.8 C 36 %
1894 18-03-2017 18:39:17 10.7 C 38 %
1895 18-03-2017 18:51:17 10.7 C 39 %
1896 18-03-2017 19:03:17 10.6 C 40 %
1897 18-03-2017 19:15:17 10.5 C 41 %
1898 18-03-2017 19:27:17 10.3 C 42 %
1899 18-03-2017 19:39:17 10.3 C 42 %
1900 18-03-2017 19:51:17 10.4 C 43 %
Sensor: Nr:Datum:Temp:Feuchte:
Aussen-T/F 1901 18-03-2017 20:03:17 10.2 C 43 %
1902 18-03-2017 20:15:17 10.3 C 43 %
1903 18-03-2017 20:27:17 10.3 C 43 %
1904 18-03-2017 20:39:17 10.4 C 42 %
1905 18-03-2017 20:51:17 10.3 C 42 %
1906 18-03-2017 21:03:17 10.2 C 42 %
1907 18-03-2017 21:15:17 10.2 C 43 %
1908 18-03-2017 21:27:17 10.2 C 43 %
1909 18-03-2017 21:39:17 10.1 C 43 %
1910 18-03-2017 21:51:17 10.1 C 44 %
1911 18-03-2017 22:03:17 10.1 C 44 %
1912 18-03-2017 22:15:17 10.1 C 45 %
1913 18-03-2017 22:27:17 10.1 C 45 %
1914 18-03-2017 22:39:17 10.1 C 45 %
1915 18-03-2017 22:51:17 9.7 C 45 %
1916 18-03-2017 23:03:17 9.5 C 45 %
1917 18-03-2017 23:15:17 9.2 C 45 %
1918 18-03-2017 23:27:17 9.2 C 45 %
1919 18-03-2017 23:39:17 9.2 C 45 %
1920 18-03-2017 23:51:17 9.2 C 46 %
1921 19-03-2017 00:03:17 9.1 C 47 %
1922 19-03-2017 00:15:17 9 C 47 %
1923 19-03-2017 00:27:17 8.9 C 48 %
1924 19-03-2017 00:39:17 8.8 C 48 %
1925 19-03-2017 00:51:17 8.8 C 49 %
Sensor: Nr:Datum:Temp:Feuchte:
Aussen-T/F 1926 19-03-2017 01:03:17 8.8 C 50 %
1927 19-03-2017 01:15:17 8.9 C 50 %
1928 19-03-2017 01:27:17 8.9 C 50 %
1929 19-03-2017 01:39:17 8.9 C 51 %
1930 19-03-2017 01:51:17 8.9 C 51 %
1931 19-03-2017 02:03:17 8.8 C 51 %
1932 19-03-2017 02:16:17 8.8 C 51 %
1933 19-03-2017 02:28:17 8.8 C 51 %
1934 19-03-2017 02:39:17 8.7 C 51 %
1935 19-03-2017 02:51:17 8.8 C 52 %
1936 19-03-2017 03:04:17 9.1 C 55 %
1937 19-03-2017 03:15:17 9.5 C 59 %
1938 19-03-2017 03:27:17 9.6 C 60 %
1939 19-03-2017 03:39:18 9.7 C 60 %
1940 19-03-2017 03:51:17 9.8 C 59 %
1941 19-03-2017 04:03:17 9.8 C 56 %
1942 19-03-2017 04:16:17 9.8 C 52 %
1943 19-03-2017 04:28:17 9.8 C 49 %
1944 19-03-2017 04:39:17 9.7 C 46 %
1945 19-03-2017 04:51:17 9.8 C 46 %
1946 19-03-2017 05:03:17 9.7 C 45 %
1947 19-03-2017 05:15:17 9.8 C 44 %
1948 19-03-2017 05:27:17 9.8 C 43 %
1949 19-03-2017 05:40:17 10 C 41 %
1950 19-03-2017 05:51:17 10 C 40 %
Sensor: Nr:Datum:Temp:Feuchte:
Aussen-T/F 1951 19-03-2017 06:04:17 10.1 C 39 %
1952 19-03-2017 06:15:17 10.1 C 38 %
1953 19-03-2017 06:27:17 10 C 38 %
1954 19-03-2017 06:40:17 10 C 39 %
1955 19-03-2017 06:52:17 10.3 C 38 %
1956 19-03-2017 07:03:17 10.2 C 37 %
1957 19-03-2017 07:16:17 10.4 C 36 %
1958 19-03-2017 07:28:17 10.5 C 36 %
1959 19-03-2017 07:40:17 10.7 C 35 %
1960 19-03-2017 07:52:17 10.8 C 31 %
1961 19-03-2017 08:03:17 11.1 C 27 %
1962 19-03-2017 08:15:17 11.2 C 26 %
1963 19-03-2017 08:27:17 11.7 C 20 %
1964 19-03-2017 08:40:17 12 C 20 %
1965 19-03-2017 08:51:17 12 C 20 %
1966 19-03-2017 09:03:17 12.4 C 20 %
1967 19-03-2017 09:15:17 12.6 C 20 %
1968 19-03-2017 09:27:17 12.7 C 20 %
1969 19-03-2017 09:39:17 12.7 C 20 %
1970 19-03-2017 09:52:17 12.6 C 20 %
1971 19-03-2017 10:04:17 12.4 C 20 %
1972 19-03-2017 10:15:17 12.3 C 20 %
1973 19-03-2017 10:27:17 12.2 C 20 %
1974 19-03-2017 10:39:17 12.1 C 20 %
1975 19-03-2017 10:52:17 12.1 C 20 %
Sensor: Nr:Datum:Temp:Feuchte:
Aussen-T/F 1976 19-03-2017 11:04:17 12.1 C 20 %
1977 19-03-2017 11:15:17 12.9 C 20 %
1978 19-03-2017 11:27:17 12.9 C 20 %
1979 19-03-2017 11:40:17 13.7 C 20 %
1980 19-03-2017 11:52:17 13.8 C 20 %
1981 19-03-2017 12:04:17 14.1 C 20 %
1982 19-03-2017 12:16:17 14.6 C 20 %
1983 19-03-2017 12:28:17 14.5 C 20 %
1984 19-03-2017 12:40:17 14.8 C 20 %
1985 19-03-2017 12:52:17 15 C 20 %
1986 19-03-2017 13:04:17 15.2 C 20 %
1987 19-03-2017 13:16:17 15.4 C 20 %
1988 19-03-2017 13:28:17 15.4 C 20 %
1989 19-03-2017 13:40:17 15.6 C 20 %
1990 19-03-2017 13:52:17 15.8 C 20 %
1991 19-03-2017 14:04:17 15.7 C 20 %
1992 19-03-2017 14:16:17 16 C 20 %
1993 19-03-2017 14:28:17 16.2 C 20 %
1994 19-03-2017 14:40:17 16 C 20 %
1995 19-03-2017 14:52:17 15.6 C 20 %
1996 19-03-2017 15:04:17 15.3 C 20 %
1997 19-03-2017 15:16:17 15.5 C 20 %
1998 19-03-2017 15:28:17 15.2 C 20 %
1999 19-03-2017 15:40:17 15.2 C 20 %
2000 19-03-2017 15:52:17 15.4 C 20 %
Sensor: Nr:Datum:Temp:Feuchte:
Aussen-T/F 2001 19-03-2017 16:04:17 15.5 C 20 %
2002 19-03-2017 16:15:18 15.9 C 20 %
2003 19-03-2017 16:27:18 15.4 C 20 %
2004 19-03-2017 16:40:17 15.3 C 20 %
2005 19-03-2017 16:52:17 15.3 C 20 %
2006 19-03-2017 17:04:17 16.6 C 20 %
2007 19-03-2017 17:16:17 15.2 C 20 %
2008 19-03-2017 17:28:17 14.4 C 20 %
2009 19-03-2017 17:40:17 14 C 20 %
2010 19-03-2017 17:52:17 13.6 C 20 %
2011 19-03-2017 18:04:17 13.5 C 20 %
2012 19-03-2017 18:16:17 13.4 C 20 %
2013 19-03-2017 18:28:17 13.2 C 20 %
2014 19-03-2017 18:40:17 13.1 C 20 %
2015 19-03-2017 18:52:17 12.9 C 20 %
2016 19-03-2017 19:04:17 12.8 C 20 %
2017 19-03-2017 19:15:18 12.6 C 20 %
2018 19-03-2017 19:27:18 12.4 C 20 %
2019 19-03-2017 19:40:17 12 C 20 %
2020 19-03-2017 19:52:17 12.1 C 20 %
2021 19-03-2017 20:04:17 12 C 20 %
2022 19-03-2017 20:16:17 12 C 20 %
2023 19-03-2017 20:28:17 11.8 C 20 %
2024 19-03-2017 20:40:17 11.7 C 20 %
2025 19-03-2017 20:52:17 11.5 C 20 %
Sensor: Nr:Datum:Temp:Feuchte:
Aussen-T/F 2026 19-03-2017 21:04:17 11.2 C 20 %
2027 19-03-2017 21:16:17 11.2 C 20 %
2028 19-03-2017 21:28:17 11.2 C 20 %
2029 19-03-2017 21:40:17 11.1 C 20 %
2030 19-03-2017 21:52:17 11.2 C 20 %
2031 19-03-2017 22:04:17 11.2 C 20 %
2032 19-03-2017 22:16:17 11.2 C 20 %
2033 19-03-2017 22:28:17 11 C 20 %
2034 19-03-2017 22:40:17 10.9 C 20 %
2035 19-03-2017 22:52:17 10.9 C 20 %
2036 19-03-2017 23:04:17 10.7 C 20 %
2037 19-03-2017 23:16:17 10.9 C 20 %
2038 19-03-2017 23:28:17 11.1 C 20 %
2039 19-03-2017 23:40:17 11.2 C 20 %
2040 19-03-2017 23:52:17 11.2 C 20 %
2041 20-03-2017 00:04:17 11 C 20 %
2042 20-03-2017 00:16:17 10.8 C 20 %
2043 20-03-2017 00:28:17 10.8 C 20 %
2044 20-03-2017 00:40:17 10.9 C 20 %
2045 20-03-2017 00:52:17 10.8 C 20 %
2046 20-03-2017 01:04:17 10.8 C 20 %
2047 20-03-2017 01:16:17 10.8 C 20 %
2048 20-03-2017 01:28:17 10.8 C 20 %
2049 20-03-2017 01:40:17 10.7 C 20 %
2050 20-03-2017 01:52:17 10.7 C 20 %
Sensor: Nr:Datum:Temp:Feuchte:
Aussen-T/F 2051 20-03-2017 02:04:17 10.6 C 20 %
2052 20-03-2017 02:16:17 10.6 C 20 %
2053 20-03-2017 02:28:17 10.5 C 20 %
2054 20-03-2017 02:40:17 10.5 C 20 %
2055 20-03-2017 02:52:17 10.4 C 20 %
2056 20-03-2017 03:04:17 10.3 C 20 %
2057 20-03-2017 03:16:17 10.2 C 20 %
2058 20-03-2017 03:28:17 10 C 20 %
2059 20-03-2017 03:40:17 10.1 C 20 %
2060 20-03-2017 03:52:17 10.2 C 20 %
2061 20-03-2017 04:04:17 10.3 C 20 %
2062 20-03-2017 04:16:17 10.2 C 20 %
2063 20-03-2017 04:28:17 10.2 C 20 %
2064 20-03-2017 04:40:17 10 C 20 %
2065 20-03-2017 04:52:17 10.1 C 20 %
2066 20-03-2017 05:04:17 10.2 C 20 %
2067 20-03-2017 05:16:17 10.2 C 20 %
2068 20-03-2017 05:28:17 10.2 C 20 %
2069 20-03-2017 05:40:17 10.1 C 20 %
2070 20-03-2017 05:52:17 10.1 C 20 %
2071 20-03-2017 06:04:17 10.1 C 20 %
2072 20-03-2017 06:16:17 10.1 C 20 %
2073 20-03-2017 06:28:17 10.1 C 20 %
2074 20-03-2017 06:40:17 10.1 C 20 %
2075 20-03-2017 06:52:17 10 C 20 %
Sensor: Nr:Datum:Temp:Feuchte:
Aussen-T/F 2076 20-03-2017 07:04:17 10 C 20 %
2077 20-03-2017 07:16:17 10 C 20 %
2078 20-03-2017 07:28:17 10.2 C 20 %
2079 20-03-2017 07:40:17 10.2 C 20 %
2080 20-03-2017 07:52:17 10.2 C 20 %
2081 20-03-2017 08:04:17 10.3 C 20 %
2082 20-03-2017 08:16:17 10.8 C 20 %
2083 20-03-2017 08:28:17 10.8 C 20 %
2084 20-03-2017 08:40:17 11.4 C 20 %
2085 20-03-2017 08:52:17 11.6 C 20 %
2086 20-03-2017 09:04:17 11.7 C 20 %
2087 20-03-2017 09:16:17 11.7 C 20 %
2088 20-03-2017 09:28:17 11.8 C 20 %
2089 20-03-2017 09:40:17 11.9 C 20 %
2090 20-03-2017 09:52:17 12.3 C 20 %
2091 20-03-2017 10:04:17 12.3 C 20 %
2092 20-03-2017 10:16:17 13.2 C 20 %
2093 20-03-2017 10:28:17 13.2 C 20 %
2094 20-03-2017 10:40:17 13.6 C 20 %
2095 20-03-2017 10:52:17 13.7 C 20 %
2096 20-03-2017 11:04:17 13.8 C 20 %
2097 20-03-2017 11:16:17 13.8 C 20 %
2098 20-03-2017 11:28:17 13.9 C 20 %
2099 20-03-2017 11:40:17 13.8 C 20 %
2100 20-03-2017 11:52:17 13.2 C 20 %
Sensor: Nr:Datum:Temp:Feuchte:
Aussen-T/F 2101 20-03-2017 12:04:17 13.7 C 20 %
2102 20-03-2017 12:16:16 14.3 C 20 %
2103 20-03-2017 12:28:16 14.8 C 20 %
2104 20-03-2017 12:40:17 14.8 C 20 %
2105 20-03-2017 12:52:17 15.2 C 20 %
2106 20-03-2017 13:04:17 14.5 C 20 %
2107 20-03-2017 13:16:17 14.2 C 20 %
2108 20-03-2017 13:28:17 14 C 20 %
2109 20-03-2017 13:40:17 13.8 C 20 %
2110 20-03-2017 13:52:17 14.5 C 20 %
2111 20-03-2017 14:04:17 14.5 C 20 %
2112 20-03-2017 14:16:17 14.1 C 20 %
2113 20-03-2017 14:28:17 14.5 C 20 %
2114 20-03-2017 14:40:17 13.9 C 20 %
2115 20-03-2017 14:52:17 14.1 C 20 %
2116 20-03-2017 15:04:17 13.6 C 20 %
2117 20-03-2017 15:16:17 13.6 C 20 %
2118 20-03-2017 15:28:17 13.7 C 20 %
2119 20-03-2017 15:40:17 13.1 C 20 %
2120 20-03-2017 15:52:17 12.7 C 20 %
2121 20-03-2017 16:04:17 13.2 C 20 %
2122 20-03-2017 16:16:17 12.8 C 20 %
2123 20-03-2017 16:28:17 12.6 C 20 %
2124 20-03-2017 16:40:17 12.3 C 20 %
2125 20-03-2017 16:52:17 12.2 C 20 %
Sensor: Nr:Datum:Temp:Feuchte:
Aussen-T/F 2126 20-03-2017 17:04:17 12 C 20 %
2127 20-03-2017 17:16:17 11.9 C 20 %
2128 20-03-2017 17:28:17 11.9 C 20 %
2129 20-03-2017 17:40:17 11.9 C 20 %
2130 20-03-2017 17:52:17 11.8 C 20 %
2131 20-03-2017 18:04:17 11.7 C 20 %
2132 20-03-2017 18:16:17 11.7 C 20 %
2133 20-03-2017 18:28:17 11.5 C 20 %
2134 20-03-2017 18:40:17 11.4 C 20 %
2135 20-03-2017 18:52:17 11.2 C 20 %
2136 20-03-2017 19:04:17 11.1 C 20 %
2137 20-03-2017 19:16:17 11 C 20 %
2138 20-03-2017 19:28:17 10.8 C 20 %
2139 20-03-2017 19:40:17 10.7 C 20 %
2140 20-03-2017 19:52:17 10.7 C 20 %
2141 20-03-2017 20:04:17 10.5 C 20 %
2142 20-03-2017 20:16:18 10.4 C 20 %
2143 20-03-2017 20:28:18 10.4 C 20 %
2144 20-03-2017 20:40:18 10.4 C 20 %
2145 20-03-2017 20:52:17 10.3 C 20 %
2146 20-03-2017 21:04:17 10.4 C 20 %
2147 20-03-2017 21:16:18 10.4 C 20 %
2148 20-03-2017 21:28:18 10.5 C 20 %
2149 20-03-2017 21:40:17 10.5 C 20 %
2150 20-03-2017 21:52:17 10.5 C 20 %
Sensor: Nr:Datum:Temp:Feuchte:
Aussen-T/F 2151 20-03-2017 22:04:17 10.4 C 20 %
2152 20-03-2017 22:16:17 10.4 C 20 %
2153 20-03-2017 22:28:17 10.4 C 20 %
2154 20-03-2017 22:40:17 10.2 C 20 %
2155 20-03-2017 22:52:17 10.3 C 20 %
2156 20-03-2017 23:04:17 10 C 20 %
2157 20-03-2017 23:16:17 10 C 20 %
2158 20-03-2017 23:28:17 10.1 C 20 %
2159 20-03-2017 23:40:17 9.9 C 20 %
2160 20-03-2017 23:52:17 9.8 C 20 %
2161 21-03-2017 00:04:17 10 C 20 %
2162 21-03-2017 00:16:17 10.1 C 20 %
2163 21-03-2017 00:28:17 10.3 C 20 %
2164 21-03-2017 00:40:17 10.5 C 20 %
2165 21-03-2017 00:52:17 10.4 C 20 %
2166 21-03-2017 01:04:17 10.4 C 20 %
2167 21-03-2017 01:16:17 10.3 C 20 %
2168 21-03-2017 01:28:17 10.3 C 20 %
2169 21-03-2017 01:40:17 10.2 C 20 %
2170 21-03-2017 01:52:17 10.3 C 20 %
2171 21-03-2017 02:04:17 10.3 C 20 %
2172 21-03-2017 02:16:17 10.4 C 20 %
2173 21-03-2017 02:28:17 10.6 C 20 %
2174 21-03-2017 02:40:17 10.6 C 20 %
2175 21-03-2017 02:52:17 10.5 C 20 %
Sensor: Nr:Datum:Temp:Feuchte:
Aussen-T/F 2176 21-03-2017 03:04:17 10.5 C 20 %
2177 21-03-2017 03:16:17 10.4 C 20 %
2178 21-03-2017 03:28:17 10.4 C 20 %
2179 21-03-2017 03:40:17 10.4 C 20 %
2180 21-03-2017 03:52:17 10.3 C 20 %
2181 21-03-2017 04:04:17 10.2 C 20 %
2182 21-03-2017 04:16:18 10.2 C 20 %
2183 21-03-2017 04:28:18 10.1 C 20 %
2184 21-03-2017 04:40:17 9.8 C 20 %
2185 21-03-2017 04:52:17 9.3 C 21 %
2186 21-03-2017 05:04:17 8.9 C 29 %
2187 21-03-2017 05:16:17 8.9 C 32 %
2188 21-03-2017 05:28:17 8.7 C 33 %
2189 21-03-2017 05:40:17 8.7 C 35 %
2190 21-03-2017 05:52:17 8.7 C 35 %
2191 21-03-2017 06:04:17 8.6 C 36 %
2192 21-03-2017 06:16:17 8.6 C 37 %
2193 21-03-2017 06:28:17 8.6 C 38 %
2194 21-03-2017 06:40:17 8.6 C 39 %
2195 21-03-2017 06:52:17 8.6 C 40 %
2196 21-03-2017 07:04:17 8.6 C 40 %
2197 21-03-2017 07:16:17 8.6 C 40 %
2198 21-03-2017 07:28:17 8.6 C 41 %
2199 21-03-2017 07:40:17 8.7 C 41 %
2200 21-03-2017 07:52:17 8.7 C 41 %
Sensor: Nr:Datum:Temp:Feuchte:
Aussen-T/F 2201 21-03-2017 08:04:17 8.9 C 41 %
2202 21-03-2017 08:16:17 9 C 40 %
2203 21-03-2017 08:28:17 9.1 C 40 %
2204 21-03-2017 08:40:17 9.2 C 37 %
2205 21-03-2017 08:52:17 9.2 C 33 %
2206 21-03-2017 09:04:18 9.3 C 33 %
2207 21-03-2017 09:16:17 10 C 30 %
2208 21-03-2017 09:28:17 10.1 C 28 %
2209 21-03-2017 09:40:17 10.1 C 25 %
2210 21-03-2017 09:52:17 10.4 C 26 %
2211 21-03-2017 10:04:17 10.8 C 20 %
2212 21-03-2017 10:16:17 11.4 C 20 %
2213 21-03-2017 10:28:17 12 C 20 %
2214 21-03-2017 10:40:17 12.5 C 20 %
2215 21-03-2017 10:52:17 12.6 C 20 %
2216 21-03-2017 11:04:17 13.1 C 20 %
2217 21-03-2017 11:16:17 13.1 C 20 %
2218 21-03-2017 11:28:17 12.9 C 20 %
2219 21-03-2017 11:40:17 13.1 C 20 %
2220 21-03-2017 11:52:17 13.7 C 20 %
2221 21-03-2017 12:04:17 13.7 C 20 %
2222 21-03-2017 12:16:17 13.4 C 20 %
2223 21-03-2017 12:28:17 13.7 C 20 %
2224 21-03-2017 12:40:17 13.7 C 20 %
2225 21-03-2017 12:52:17 12.7 C 20 %
Sensor: Nr:Datum:Temp:Feuchte:
Aussen-T/F 2226 21-03-2017 13:04:17 13.2 C 20 %
2227 21-03-2017 13:16:17 12.3 C 20 %
2228 21-03-2017 13:28:17 8.8 C 20 %
2229 21-03-2017 13:40:17 8.6 C 25 %
2230 21-03-2017 13:52:17 8.9 C 28 %
2231 21-03-2017 14:04:17 9.2 C 29 %
2232 21-03-2017 14:16:17 9.2 C 28 %
2233 21-03-2017 14:28:17 9.6 C 25 %
2234 21-03-2017 14:40:17 9.5 C 25 %
2235 21-03-2017 14:52:17 9.1 C 25 %
2236 21-03-2017 15:04:17 8.2 C 25 %
2237 21-03-2017 15:16:17 7.8 C 25 %
2238 21-03-2017 15:28:17 7.6 C 20 %
2239 21-03-2017 15:40:17 7.6 C 25 %
2240 21-03-2017 15:52:17 7.5 C 26 %
2241 21-03-2017 16:04:17 7.8 C 28 %
2242 21-03-2017 16:16:17 7.8 C 27 %
2243 21-03-2017 16:28:17 8.1 C 26 %
2244 21-03-2017 16:40:17 8.3 C 20 %
2245 21-03-2017 16:52:17 8.4 C 20 %
2246 21-03-2017 17:04:17 8.6 C 20 %
2247 21-03-2017 17:16:17 8.6 C 20 %
2248 21-03-2017 17:28:17 8.7 C 20 %
2249 21-03-2017 17:40:17 8.7 C 20 %
2250 21-03-2017 17:52:17 8.6 C 20 %
Sensor: Nr:Datum:Temp:Feuchte:
Aussen-T/F 2251 21-03-2017 18:04:17 8.3 C 20 %
2252 21-03-2017 18:16:17 8 C 20 %
2253 21-03-2017 18:28:17 7.5 C 20 %
2254 21-03-2017 18:40:17 7.3 C 20 %
2255 21-03-2017 18:52:17 7.4 C 20 %
2256 21-03-2017 19:04:17 7 C 20 %
2257 21-03-2017 19:16:18 6.7 C 20 %
2258 21-03-2017 19:28:18 6.5 C 20 %
2259 21-03-2017 19:40:17 6.3 C 20 %
2260 21-03-2017 19:52:17 6.2 C 20 %
2261 21-03-2017 20:04:17 6.2 C 20 %
2262 21-03-2017 20:16:17 6.3 C 20 %
2263 21-03-2017 20:28:17 6.2 C 20 %
2264 21-03-2017 20:40:17 6 C 20 %
2265 21-03-2017 20:52:17 5.9 C 20 %
2266 21-03-2017 21:04:17 5.8 C 20 %
2267 21-03-2017 21:16:17 5.6 C 20 %
2268 21-03-2017 21:28:17 5.5 C 20 %
2269 21-03-2017 21:40:17 5.2 C 20 %
2270 21-03-2017 21:52:17 5 C 25 %
2271 21-03-2017 22:04:17 4.8 C 29 %
2272 21-03-2017 22:16:16 4.7 C 30 %
2273 21-03-2017 22:28:17 4.7 C 32 %
2274 21-03-2017 22:40:17 4.4 C 32 %
2275 21-03-2017 22:52:17 4.2 C 33 %
Sensor: Nr:Datum:Temp:Feuchte:
Aussen-T/F 2276 21-03-2017 23:04:17 3.8 C 36 %
2277 21-03-2017 23:16:17 3.7 C 36 %
2278 21-03-2017 23:28:17 3.2 C 36 %
2279 21-03-2017 23:40:17 3 C 36 %
2280 21-03-2017 23:52:17 2.5 C 37 %
2281 22-03-2017 00:04:17 2.2 C 38 %
2282 22-03-2017 00:16:17 2.3 C 39 %
2283 22-03-2017 00:28:17 2.2 C 39 %
2284 22-03-2017 00:40:17 2.2 C 40 %
2285 22-03-2017 00:52:17 1.9 C 41 %
2286 22-03-2017 01:04:17 1.7 C 41 %
2287 22-03-2017 01:16:17 1.4 C 41 %
2288 22-03-2017 01:28:17 1.2 C 40 %
2289 22-03-2017 01:40:17 0.8 C 40 %
2290 22-03-2017 01:52:17 0.8 C 42 %
2291 22-03-2017 02:04:17 0.5 C 42 %
2292 22-03-2017 02:16:17 0.4 C 42 %
2293 22-03-2017 02:28:17 0.2 C 43 %
2294 22-03-2017 02:40:17 0.2 C 44 %
2295 22-03-2017 02:52:17 0.3 C 45 %
2296 22-03-2017 03:04:17 0.2 C 45 %
2297 22-03-2017 03:16:17 0.4 C 46 %
2298 22-03-2017 03:28:17 0 C 46 %
2299 22-03-2017 03:40:17 0.3 C 47 %
2300 22-03-2017 03:52:17 0.1 C 47 %
Sensor: Nr:Datum:Temp:Feuchte:
Aussen-T/F 2301 22-03-2017 04:04:17 0 C 47 %
2302 22-03-2017 04:16:17 -0.2 C 47 %
2303 22-03-2017 04:28:17 -0.4 C 47 %
2304 22-03-2017 04:40:17 -0.4 C 47 %
2305 22-03-2017 04:52:17 -0.5 C 48 %
2306 22-03-2017 05:04:17 0 C 50 %
2307 22-03-2017 05:16:17 -0.2 C 50 %
2308 22-03-2017 05:28:17 -0.5 C 50 %
2309 22-03-2017 05:40:17 0.2 C 52 %
2310 22-03-2017 05:52:17 0.4 C 53 %
2311 22-03-2017 06:04:17 0.4 C 52 %
2312 22-03-2017 06:16:17 0.5 C 53 %
2313 22-03-2017 06:28:17 0.4 C 52 %
2314 22-03-2017 06:40:17 0.2 C 52 %
2315 22-03-2017 06:52:17 0.5 C 53 %
2316 22-03-2017 07:04:17 0.6 C 54 %
2317 22-03-2017 07:16:17 0.6 C 54 %
2318 22-03-2017 07:28:17 1.1 C 53 %
2319 22-03-2017 07:40:17 1.2 C 53 %
2320 22-03-2017 07:52:17 1.5 C 54 %
2321 22-03-2017 08:04:17 1.5 C 54 %
2322 22-03-2017 08:16:17 1.5 C 54 %
2323 22-03-2017 08:28:17 1.5 C 54 %
2324 22-03-2017 08:40:17 1.5 C 54 %
2325 22-03-2017 08:52:17 1.5 C 54 %
Sensor: Nr:Datum:Temp:Feuchte:
Aussen-T/F 2326 22-03-2017 09:04:17 2.9 C 49 %
2327 22-03-2017 09:16:17 2.9 C 49 %
2328 22-03-2017 09:28:17 3.6 C 46 %
2329 22-03-2017 09:40:17 4.4 C 46 %
2330 22-03-2017 09:52:17 5.1 C 43 %
2331 22-03-2017 10:04:17 5.5 C 40 %
2332 22-03-2017 10:16:17 5.8 C 38 %
2333 22-03-2017 10:28:17 6.5 C 35 %
2334 22-03-2017 10:40:17 6.7 C 33 %
2335 22-03-2017 10:52:17 6.2 C 26 %
2336 22-03-2017 11:04:17 6.3 C 28 %
2337 22-03-2017 11:16:17 6.4 C 27 %
2338 22-03-2017 11:28:17 6.6 C 25 %
2339 22-03-2017 11:40:17 6.6 C 25 %
2340 22-03-2017 11:52:17 7.9 C 26 %
2341 22-03-2017 12:04:17 8.4 C 20 %
2342 22-03-2017 12:16:17 8.7 C 20 %
2343 22-03-2017 12:28:17 8.7 C 20 %
2344 22-03-2017 12:40:17 8.6 C 20 %
2345 22-03-2017 12:52:17 8.8 C 20 %
2346 22-03-2017 13:04:17 9.6 C 20 %
2347 22-03-2017 13:16:17 10 C 20 %
2348 22-03-2017 13:28:17 10.2 C 20 %
2349 22-03-2017 13:40:17 9.8 C 20 %
2350 22-03-2017 13:52:17 9.7 C 20 %
Sensor: Nr:Datum:Temp:Feuchte:
Aussen-T/F 2351 22-03-2017 14:04:17 9.5 C 20 %
2352 22-03-2017 14:16:17 10.2 C 20 %
2353 22-03-2017 14:28:17 11.2 C 20 %
2354 22-03-2017 14:40:17 11.7 C 20 %
2355 22-03-2017 14:52:17 12 C 20 %
2356 22-03-2017 15:04:17 12.1 C 20 %
2357 22-03-2017 15:16:17 12 C 20 %
2358 22-03-2017 15:28:17 11.9 C 20 %
2359 22-03-2017 15:40:17 11.1 C 20 %
2360 22-03-2017 15:52:17 11.3 C 20 %
2361 22-03-2017 16:04:17 11.3 C 20 %
2362 22-03-2017 16:16:17 10.3 C 20 %
2363 22-03-2017 16:28:17 9.7 C 20 %
2364 22-03-2017 16:40:17 9.3 C 20 %
2365 22-03-2017 16:52:17 9.1 C 20 %
2366 22-03-2017 17:04:17 8.8 C 20 %
2367 22-03-2017 17:16:17 8.6 C 20 %
2368 22-03-2017 17:28:17 8.5 C 20 %
2369 22-03-2017 17:40:17 8.3 C 20 %
2370 22-03-2017 17:52:17 8.2 C 20 %
2371 22-03-2017 18:04:17 7.9 C 20 %
2372 22-03-2017 18:16:17 7.8 C 20 %
2373 22-03-2017 18:28:17 7.6 C 20 %
2374 22-03-2017 18:40:17 7.6 C 20 %
2375 22-03-2017 18:52:17 7.5 C 20 %
Sensor: Nr:Datum:Temp:Feuchte:
Aussen-T/F 2376 22-03-2017 19:04:17 7.3 C 20 %
2377 22-03-2017 19:16:17 7.3 C 20 %
2378 22-03-2017 19:28:17 7.2 C 20 %
2379 22-03-2017 19:40:17 7.1 C 20 %
2380 22-03-2017 19:52:17 7 C 20 %
2381 22-03-2017 20:04:17 6.9 C 20 %
2382 22-03-2017 20:16:17 6.9 C 20 %
2383 22-03-2017 20:28:17 6.9 C 20 %
2384 22-03-2017 20:40:17 6.8 C 20 %
2385 22-03-2017 20:52:17 6.8 C 20 %
2386 22-03-2017 21:04:17 6.7 C 20 %
2387 22-03-2017 21:16:17 6.7 C 21 %
2388 22-03-2017 21:28:17 6.6 C 23 %
2389 22-03-2017 21:40:17 6.6 C 23 %
2390 22-03-2017 21:52:17 6.6 C 25 %
2391 22-03-2017 22:04:17 6.5 C 25 %
2392 22-03-2017 22:16:17 6.5 C 25 %
2393 22-03-2017 22:28:17 6.5 C 25 %
2394 22-03-2017 22:40:17 6.5 C 25 %
2395 22-03-2017 22:52:17 6.5 C 26 %
2396 22-03-2017 23:04:17 6.5 C 26 %
2397 22-03-2017 23:16:17 6.5 C 26 %
2398 22-03-2017 23:28:17 6.5 C 26 %
2399 22-03-2017 23:40:17 6.6 C 26 %
2400 22-03-2017 23:52:17 6.5 C 26 %
Sensor: Nr:Datum:Temp:Feuchte:
Aussen-T/F 2401 23-03-2017 00:04:17 6.4 C 27 %
2402 23-03-2017 00:16:17 6.4 C 27 %
2403 23-03-2017 00:28:17 6.3 C 27 %
2404 23-03-2017 00:40:17 6.3 C 27 %
2405 23-03-2017 00:52:17 5.9 C 28 %
2406 23-03-2017 01:04:17 5.7 C 28 %
2407 23-03-2017 01:16:17 5.5 C 30 %
2408 23-03-2017 01:28:17 5.3 C 30 %
2409 23-03-2017 01:40:17 5.2 C 31 %
2410 23-03-2017 01:52:17 5.2 C 31 %
2411 23-03-2017 02:04:17 5 C 32 %
2412 23-03-2017 02:16:17 4.8 C 33 %
2413 23-03-2017 02:28:17 4.4 C 34 %
2414 23-03-2017 02:40:17 4.3 C 35 %
2415 23-03-2017 02:52:17 4.2 C 35 %
2416 23-03-2017 03:04:17 3.9 C 37 %
2417 23-03-2017 03:16:17 3.5 C 37 %
2418 23-03-2017 03:28:17 3.6 C 39 %
2419 23-03-2017 03:40:17 3.5 C 40 %
2420 23-03-2017 03:52:17 3.3 C 40 %
2421 23-03-2017 04:04:17 3.2 C 41 %
2422 23-03-2017 04:16:17 3 C 42 %
2423 23-03-2017 04:28:17 2.8 C 44 %
2424 23-03-2017 04:40:17 2.7 C 44 %
2425 23-03-2017 04:52:17 2.6 C 45 %
Sensor: Nr:Datum:Temp:Feuchte:
Aussen-T/F 2426 23-03-2017 05:04:17 2.2 C 45 %
2427 23-03-2017 05:16:18 2.2 C 45 %
2428 23-03-2017 05:28:18 1.7 C 47 %
2429 23-03-2017 05:40:18 1.5 C 47 %
2430 23-03-2017 05:52:17 1.5 C 49 %
2431 23-03-2017 06:04:17 1.3 C 50 %
2432 23-03-2017 06:16:16 1.2 C 51 %
2433 23-03-2017 06:28:17 1.2 C 51 %
2434 23-03-2017 06:40:17 1.2 C 54 %
2435 23-03-2017 06:52:17 2.3 C 60 %
2436 23-03-2017 07:04:17 2.8 C 62 %
2437 23-03-2017 07:16:17 3.2 C 62 %
2438 23-03-2017 07:28:17 3.5 C 63 %
2439 23-03-2017 07:40:17 4.2 C 65 %
2440 23-03-2017 07:52:17 4.6 C 66 %
2441 23-03-2017 08:04:17 4.7 C 65 %
2442 23-03-2017 08:16:17 5.1 C 65 %
2443 23-03-2017 08:28:17 5.6 C 65 %
2444 23-03-2017 08:40:17 5.9 C 63 %
2445 23-03-2017 08:52:17 6.5 C 56 %
2446 23-03-2017 09:04:17 6.8 C 52 %
2447 23-03-2017 09:16:17 7.5 C 45 %
2448 23-03-2017 09:28:17 8 C 42 %
2449 23-03-2017 09:40:17 8.8 C 42 %
2450 23-03-2017 09:52:17 8.9 C 37 %
Sensor: Nr:Datum:Temp:Feuchte:
Aussen-T/F 2451 23-03-2017 10:04:17 9.2 C 28 %
2452 23-03-2017 10:16:17 9.8 C 27 %
2453 23-03-2017 10:28:17 10.2 C 20 %
2454 23-03-2017 10:40:17 10.4 C 20 %
2455 23-03-2017 10:52:17 10.8 C 20 %
2456 23-03-2017 11:04:17 11.2 C 20 %
2457 23-03-2017 11:16:17 11.5 C 20 %
2458 23-03-2017 11:28:17 10.8 C 20 %
2459 23-03-2017 11:40:17 10.5 C 20 %
2460 23-03-2017 11:52:17 10 C 20 %
2461 23-03-2017 12:04:18 9.7 C 20 %
2462 23-03-2017 12:16:17 9.9 C 20 %
2463 23-03-2017 12:28:17 10.1 C 20 %
2464 23-03-2017 12:40:17 10.7 C 20 %
2465 23-03-2017 12:52:17 11 C 20 %
2466 23-03-2017 13:04:17 11.4 C 20 %
2467 23-03-2017 13:16:17 12 C 20 %
2468 23-03-2017 13:28:17 12.4 C 20 %
2469 23-03-2017 13:40:17 12.9 C 20 %
2470 23-03-2017 13:52:17 13.5 C 20 %
2471 23-03-2017 14:04:17 13.7 C 20 %
2472 23-03-2017 14:16:17 14.1 C 20 %
2473 23-03-2017 14:28:17 14.8 C 20 %
2474 23-03-2017 14:40:17 15.3 C 20 %
2475 23-03-2017 14:52:17 15.2 C 20 %
Sensor: Nr:Datum:Temp:Feuchte:
Aussen-T/F 2476 23-03-2017 15:04:18 15.5 C 20 %
2477 23-03-2017 15:16:18 15.6 C 20 %
2478 23-03-2017 15:28:18 15.8 C 20 %
2479 23-03-2017 15:40:17 16.2 C 20 %
2480 23-03-2017 15:52:17 15.1 C 20 %
2481 23-03-2017 16:04:17 15.4 C 20 %
2482 23-03-2017 16:16:17 17.6 C 20 %
2483 23-03-2017 16:28:17 20.4 C 20 %
2484 23-03-2017 16:40:17 23.6 C 20 %
2485 23-03-2017 16:52:17 20.9 C 20 %
2486 23-03-2017 17:04:17 21 C 20 %
2487 23-03-2017 17:16:17 21 C 20 %
2488 23-03-2017 17:28:17 21 C 20 %
2489 23-03-2017 17:40:17 21 C 20 %
2490 23-03-2017 17:52:17 21 C 20 %
2491 23-03-2017 18:04:17 21 C 20 %
2492 23-03-2017 18:16:17 21 C 20 %
2493 23-03-2017 18:28:17 14.5 C 20 %
2494 23-03-2017 18:40:17 12.1 C 20 %
2495 23-03-2017 18:52:17 11.5 C 20 %
2496 23-03-2017 19:04:17 11.5 C 20 %
2497 23-03-2017 19:16:17 11.5 C 20 %
2498 23-03-2017 19:28:17 11.5 C 20 %
2499 23-03-2017 19:40:17 11.5 C 20 %
2500 23-03-2017 19:52:17 8.8 C 20 %
Sensor: Nr:Datum:Temp:Feuchte:
Aussen-T/F 2501 23-03-2017 20:04:17 8.8 C 20 %
2502 23-03-2017 20:16:17 8.8 C 20 %
2503 23-03-2017 20:28:17 8.8 C 20 %
2504 23-03-2017 20:40:17 8.8 C 20 %
2505 23-03-2017 20:52:17 8.8 C 20 %
2506 23-03-2017 21:04:17 8.8 C 20 %
2507 23-03-2017 21:16:17 8.8 C 20 %
2508 23-03-2017 21:28:17 8.8 C 20 %
2509 23-03-2017 21:40:18 8.8 C 20 %
2510 23-03-2017 21:52:17 8.8 C 20 %
2511 23-03-2017 22:04:17 8.8 C 20 %
2512 23-03-2017 22:16:17 5.8 C 30 %
2513 23-03-2017 22:28:17 5.6 C 32 %
2514 23-03-2017 22:40:17 5.7 C 33 %
2515 23-03-2017 22:52:17 5.6 C 35 %
2516 23-03-2017 23:04:17 5.7 C 35 %
2517 23-03-2017 23:16:17 5.6 C 35 %
2518 23-03-2017 23:28:17 5.6 C 35 %
2519 23-03-2017 23:40:17 5.3 C 36 %
2520 23-03-2017 23:52:17 5.6 C 37 %
2521 24-03-2017 00:04:17 5.1 C 36 %
2522 24-03-2017 00:16:16 5 C 37 %
2523 24-03-2017 00:28:17 5.2 C 39 %
2524 24-03-2017 00:40:18 5.3 C 40 %
2525 24-03-2017 00:52:17 5 C 39 %
Sensor: Nr:Datum:Temp:Feuchte:
Aussen-T/F 2526 24-03-2017 01:04:17 5.4 C 40 %
2527 24-03-2017 01:16:17 5.9 C 41 %
2528 24-03-2017 01:28:17 6.2 C 40 %
2529 24-03-2017 01:40:17 5.7 C 37 %
2530 24-03-2017 01:52:17 5.9 C 38 %
2531 24-03-2017 02:04:17 6.2 C 38 %
2532 24-03-2017 02:16:17 6.3 C 36 %
2533 24-03-2017 02:28:17 5.8 C 35 %
2534 24-03-2017 02:40:17 5.7 C 35 %
2535 24-03-2017 02:52:17 6.1 C 36 %
2536 24-03-2017 03:04:17 6.7 C 36 %
2537 24-03-2017 03:16:17 6.9 C 35 %
2538 24-03-2017 03:28:17 7.2 C 30 %
2539 24-03-2017 03:40:17 7.3 C 28 %
2540 24-03-2017 03:52:17 7.3 C 27 %
2541 24-03-2017 04:04:17 7.4 C 26 %
2542 24-03-2017 04:16:17 7.5 C 25 %
2543 24-03-2017 04:28:17 7.6 C 20 %
2544 24-03-2017 04:40:17 7.8 C 20 %
2545 24-03-2017 04:52:17 7.8 C 20 %
2546 24-03-2017 05:04:17 7.6 C 20 %
2547 24-03-2017 05:16:17 7.6 C 20 %
2548 24-03-2017 05:28:17 7.6 C 20 %
2549 24-03-2017 05:40:17 7.6 C 20 %
2550 24-03-2017 05:52:17 7.6 C 20 %
Sensor: Nr:Datum:Temp:Feuchte:
Aussen-T/F 2551 24-03-2017 06:04:17 7.7 C 20 %
2552 24-03-2017 06:16:17 7.7 C 20 %
2553 24-03-2017 06:28:17 7.6 C 20 %
2554 24-03-2017 06:40:17 7.6 C 20 %
2555 24-03-2017 06:52:17 7.6 C 20 %
2556 24-03-2017 07:04:17 7.8 C 20 %
2557 24-03-2017 07:16:17 7.9 C 20 %
2558 24-03-2017 07:28:17 7.9 C 20 %
2559 24-03-2017 07:40:17 8 C 20 %
2560 24-03-2017 07:52:17 8.2 C 20 %
2561 24-03-2017 08:04:17 8.5 C 20 %
2562 24-03-2017 08:16:17 8.7 C 20 %
2563 24-03-2017 08:28:17 8.7 C 20 %
2564 24-03-2017 08:40:17 8.7 C 20 %
2565 24-03-2017 08:52:17 8.7 C 20 %
2566 24-03-2017 09:04:17 8.7 C 20 %
2567 24-03-2017 09:16:17 8.7 C 20 %
2568 24-03-2017 09:28:17 9.9 C 20 %
2569 24-03-2017 09:40:17 9.9 C 20 %
2570 24-03-2017 09:52:17 9.9 C 20 %
2571 24-03-2017 10:04:17 9.9 C 20 %
2572 24-03-2017 10:16:17 9.9 C 20 %
2573 24-03-2017 10:28:17 9.9 C 20 %
2574 24-03-2017 10:40:17 9.9 C 20 %
2575 24-03-2017 10:52:17 9.9 C 20 %
Sensor: Nr:Datum:Temp:Feuchte:
Aussen-T/F 2576 24-03-2017 11:04:17 9.9 C 20 %
2577 24-03-2017 11:16:17 12.5 C 20 %
2578 24-03-2017 11:28:17 12.5 C 20 %
2579 24-03-2017 11:40:17 12.5 C 20 %
2580 24-03-2017 11:52:17 12.5 C 20 %
2581 24-03-2017 12:04:17 12.5 C 20 %
2582 24-03-2017 12:16:17 12.5 C 20 %
2583 24-03-2017 12:28:17 12.5 C 20 %
2584 24-03-2017 12:40:17 12.5 C 20 %
2585 24-03-2017 12:52:17 12.5 C 20 %
2586 24-03-2017 13:04:17 12.5 C 20 %
2587 24-03-2017 13:16:17 11.8 C 20 %
2588 24-03-2017 13:28:17 12.3 C 20 %
2589 24-03-2017 13:40:17 12.4 C 20 %
2590 24-03-2017 13:52:17 12.7 C 20 %
2591 24-03-2017 14:04:17 12.7 C 20 %
2592 24-03-2017 14:16:17 13 C 20 %
2593 24-03-2017 14:28:17 13.1 C 20 %
2594 24-03-2017 14:40:17 13.7 C 20 %
2595 24-03-2017 14:52:17 13.6 C 20 %
2596 24-03-2017 15:04:17 13.8 C 20 %
2597 24-03-2017 15:16:17 15.1 C 20 %
2598 24-03-2017 15:28:17 15.1 C 20 %
2599 24-03-2017 15:40:17 15.1 C 20 %
2600 24-03-2017 15:52:17 15.1 C 20 %
Sensor: Nr:Datum:Temp:Feuchte:
Aussen-T/F 2601 24-03-2017 16:04:17 15.1 C 20 %
2602 24-03-2017 16:16:17 15.1 C 20 %
2603 24-03-2017 16:28:17 15.1 C 20 %
2604 24-03-2017 16:40:17 15.1 C 20 %
2605 24-03-2017 16:52:17 15.1 C 20 %
2606 24-03-2017 17:04:18 15.1 C 20 %
2607 24-03-2017 17:16:17 21.5 C 20 %
2608 24-03-2017 17:28:17 21.5 C 20 %
2609 24-03-2017 17:40:17 20.4 C 20 %
2610 24-03-2017 17:52:17 19.5 C 20 %
2611 24-03-2017 18:04:17 19.5 C 20 %
2612 24-03-2017 18:16:17 19.5 C 20 %
2613 24-03-2017 18:28:17 19.5 C 20 %
2614 24-03-2017 18:40:17 10.9 C 20 %
2615 24-03-2017 18:52:17 9.9 C 20 %
2616 24-03-2017 19:04:17 8.9 C 20 %
2617 24-03-2017 19:16:17 8.6 C 20 %
2618 24-03-2017 19:28:17 8.3 C 20 %
2619 24-03-2017 19:40:17 8 C 20 %
2620 24-03-2017 19:52:17 7.6 C 20 %
2621 24-03-2017 20:04:17 7.4 C 20 %
2622 24-03-2017 20:16:17 7.3 C 20 %
2623 24-03-2017 20:28:17 7.1 C 20 %
2624 24-03-2017 20:40:17 6.8 C 20 %
2625 24-03-2017 20:52:17 6.7 C 20 %
Sensor: Nr:Datum:Temp:Feuchte:
Aussen-T/F 2626 24-03-2017 21:04:17 6.6 C 20 %
2627 24-03-2017 21:16:17 6.2 C 20 %
2628 24-03-2017 21:28:17 6.4 C 20 %
2629 24-03-2017 21:40:17 6.3 C 20 %
2630 24-03-2017 21:52:17 5.9 C 20 %
2631 24-03-2017 22:04:17 5.5 C 20 %
2632 24-03-2017 22:16:17 5.1 C 20 %
2633 24-03-2017 22:28:17 4.8 C 20 %
2634 24-03-2017 22:40:17 4.8 C 21 %
2635 24-03-2017 22:52:17 4.7 C 23 %
2636 24-03-2017 23:04:17 4.4 C 21 %
2637 24-03-2017 23:16:17 4.2 C 25 %
2638 24-03-2017 23:28:17 4.2 C 26 %
2639 24-03-2017 23:40:17 4.1 C 26 %
2640 24-03-2017 23:52:17 4.2 C 27 %
2641 25-03-2017 00:04:17 4.2 C 26 %
2642 25-03-2017 00:16:17 4 C 26 %
2643 25-03-2017 00:28:17 3.6 C 29 %
2644 25-03-2017 00:40:17 3.6 C 30 %
2645 25-03-2017 00:52:17 3.6 C 31 %
2646 25-03-2017 01:04:17 3.4 C 31 %
2647 25-03-2017 01:16:16 3.4 C 31 %
2648 25-03-2017 01:28:17 3.3 C 32 %
2649 25-03-2017 01:40:17 3.2 C 32 %
2650 25-03-2017 01:52:17 3.1 C 32 %
Sensor: Nr:Datum:Temp:Feuchte:
Aussen-T/F 2651 25-03-2017 02:04:17 3 C 32 %
2652 25-03-2017 02:16:17 2.9 C 33 %
2653 25-03-2017 02:28:17 2.8 C 35 %
2654 25-03-2017 02:40:17 2.8 C 35 %
2655 25-03-2017 02:52:17 2.8 C 35 %
2656 25-03-2017 03:04:17 2.9 C 36 %
2657 25-03-2017 03:16:18 2.7 C 35 %
2658 25-03-2017 03:28:18 2.8 C 36 %
2659 25-03-2017 03:40:17 2.6 C 35 %
2660 25-03-2017 03:52:17 2 C 35 %
2661 25-03-2017 04:04:17 1.8 C 37 %
2662 25-03-2017 04:16:17 1.6 C 38 %
2663 25-03-2017 04:28:17 1.4 C 39 %
2664 25-03-2017 04:40:17 1.4 C 40 %
2665 25-03-2017 04:52:17 1.2 C 40 %
2666 25-03-2017 05:04:17 1.1 C 41 %
2667 25-03-2017 05:16:17 1.1 C 42 %
2668 25-03-2017 05:28:17 1.1 C 42 %
2669 25-03-2017 05:40:17 1.1 C 43 %
2670 25-03-2017 05:52:17 1.2 C 43 %
2671 25-03-2017 06:04:17 1.5 C 44 %
2672 25-03-2017 06:16:16 1.4 C 43 %
2673 25-03-2017 06:28:17 1.2 C 42 %
2674 25-03-2017 06:40:17 1.2 C 42 %
2675 25-03-2017 06:52:17 1.3 C 43 %
Sensor: Nr:Datum:Temp:Feuchte:
Aussen-T/F 2676 25-03-2017 07:04:17 1.4 C 43 %
2677 25-03-2017 07:16:17 1.7 C 44 %
2678 25-03-2017 07:28:17 1.8 C 44 %
2679 25-03-2017 07:40:17 2 C 42 %
2680 25-03-2017 07:52:17 2.2 C 42 %
2681 25-03-2017 08:04:17 2.5 C 42 %
2682 25-03-2017 08:16:17 2.7 C 42 %
2683 25-03-2017 08:28:17 2.8 C 41 %
2684 25-03-2017 08:40:17 3.2 C 40 %
2685 25-03-2017 08:52:17 3.5 C 39 %
2686 25-03-2017 09:04:17 4.1 C 35 %
2687 25-03-2017 09:16:17 4.6 C 33 %
2688 25-03-2017 09:28:17 5.1 C 28 %
2689 25-03-2017 09:40:17 6 C 20 %
2690 25-03-2017 09:52:17 7.2 C 20 %
2691 25-03-2017 10:04:17 8.1 C 20 %
2692 25-03-2017 10:16:17 9.3 C 20 %
2693 25-03-2017 10:28:17 10 C 20 %
2694 25-03-2017 10:40:17 12.4 C 20 %
2695 25-03-2017 10:52:18 14.5 C 20 %
2696 25-03-2017 11:04:17 14 C 20 %
2697 25-03-2017 11:16:17 13.9 C 20 %
2698 25-03-2017 11:28:17 13.3 C 20 %
2699 25-03-2017 11:40:18 13.2 C 20 %
2700 25-03-2017 11:52:17 12.9 C 20 %
Sensor: Nr:Datum:Temp:Feuchte:
Aussen-T/F 2701 25-03-2017 12:04:17 12.9 C 20 %
2702 25-03-2017 12:16:17 13.1 C 20 %
2703 25-03-2017 12:28:17 13.4 C 20 %
2704 25-03-2017 12:40:17 13.5 C 20 %
2705 25-03-2017 12:52:17 13.7 C 20 %
2706 25-03-2017 13:04:17 14.1 C 20 %
2707 25-03-2017 13:16:17 14.4 C 20 %
2708 25-03-2017 13:28:17 14.5 C 20 %
2709 25-03-2017 13:40:17 14.7 C 20 %
2710 25-03-2017 13:52:17 14.9 C 20 %
2711 25-03-2017 14:04:17 15 C 20 %
2712 25-03-2017 14:16:17 15.4 C 20 %
2713 25-03-2017 14:28:17 15.7 C 20 %
2714 25-03-2017 14:40:17 15.8 C 20 %
2715 25-03-2017 14:52:17 16.5 C 20 %
2716 25-03-2017 15:04:17 16.9 C 20 %
2717 25-03-2017 15:16:17 17 C 20 %
2718 25-03-2017 15:28:17 17.1 C 20 %
2719 25-03-2017 15:40:17 16.9 C 20 %
2720 25-03-2017 15:52:17 17.1 C 20 %
2721 25-03-2017 16:04:17 17.3 C 20 %
2722 25-03-2017 16:16:17 17.7 C 20 %
2723 25-03-2017 16:28:17 19.7 C 20 %
2724 25-03-2017 16:40:17 22.8 C 20 %
2725 25-03-2017 16:52:17 23.6 C 20 %
Sensor: Nr:Datum:Temp:Feuchte:
Aussen-T/F 2726 25-03-2017 17:04:17 22.4 C 20 %
2727 25-03-2017 17:16:16 22 C 20 %
2728 25-03-2017 17:28:17 21.6 C 20 %
2729 25-03-2017 17:40:17 22.9 C 20 %
2730 25-03-2017 17:52:17 22 C 20 %
2731 25-03-2017 18:04:17 17.7 C 20 %
2732 25-03-2017 18:16:17 16.7 C 20 %
2733 25-03-2017 18:28:17 15.2 C 20 %
2734 25-03-2017 18:40:17 15.2 C 20 %
2735 25-03-2017 18:52:17 15.2 C 20 %
2736 25-03-2017 19:04:17 15.2 C 20 %
2737 25-03-2017 19:16:17 15.2 C 20 %
2738 25-03-2017 19:28:17 15.2 C 20 %
2739 25-03-2017 19:40:17 15.2 C 20 %
2740 25-03-2017 19:52:17 15.2 C 20 %
2741 25-03-2017 20:04:18 15.2 C 20 %
2742 25-03-2017 20:16:17 15.2 C 20 %
2743 25-03-2017 20:28:17 15.2 C 20 %
2744 25-03-2017 20:40:17 15.2 C 20 %
2745 25-03-2017 20:52:17 15.2 C 20 %
2746 25-03-2017 21:04:17 15.2 C 20 %
2747 25-03-2017 21:16:17 15.2 C 20 %
2748 25-03-2017 21:28:17 15.2 C 20 %
2749 25-03-2017 21:40:18 15.2 C 20 %
2750 25-03-2017 21:52:17 15.2 C 20 %
Sensor: Nr:Datum:Temp:Feuchte:
Aussen-T/F 2751 25-03-2017 22:04:17 7.4 C 20 %
2752 25-03-2017 22:16:17 7.4 C 20 %
2753 25-03-2017 22:28:17 7.4 C 20 %
2754 25-03-2017 22:40:17 7.4 C 20 %
2755 25-03-2017 22:52:17 7 C 20 %
2756 25-03-2017 23:04:17 6.7 C 20 %
2757 25-03-2017 23:16:17 6.6 C 20 %
2758 25-03-2017 23:28:17 6.2 C 20 %
2759 25-03-2017 23:40:17 6 C 20 %
2760 25-03-2017 23:52:17 5.9 C 20 %
2761 26-03-2017 00:04:17 5.7 C 20 %
2762 26-03-2017 00:16:17 5.5 C 20 %
2763 26-03-2017 00:28:17 5.5 C 20 %
2764 26-03-2017 00:40:17 5.3 C 20 %
2765 26-03-2017 00:52:18 4.9 C 20 %
2766 26-03-2017 01:04:17 4.6 C 20 %
2767 26-03-2017 01:16:17 5 C 20 %
2768 26-03-2017 01:28:17 4.9 C 20 %
2769 26-03-2017 01:40:17 4.8 C 20 %
2770 26-03-2017 01:52:17 4.7 C 20 %
2771 26-03-2017 02:04:17 4 C 20 %
2772 26-03-2017 02:16:17 3.3 C 20 %
2773 26-03-2017 02:28:17 3.2 C 20 %
2774 26-03-2017 02:40:17 3.1 C 20 %
2775 26-03-2017 02:52:17 3.1 C 20 %
Sensor: Nr:Datum:Temp:Feuchte:
Aussen-T/F 2776 26-03-2017 04:04:17 3 C 20 %
2777 26-03-2017 04:16:17 3 C 20 %
2778 26-03-2017 04:28:17 3 C 20 %
2779 26-03-2017 04:40:17 3.2 C 20 %
2780 26-03-2017 04:52:17 3.4 C 20 %
2781 26-03-2017 05:04:17 3.4 C 20 %
2782 26-03-2017 05:16:17 3.3 C 20 %
2783 26-03-2017 05:28:17 2.8 C 20 %
2784 26-03-2017 05:40:17 2.7 C 20 %
2785 26-03-2017 05:52:17 2.4 C 20 %
2786 26-03-2017 06:04:17 2.5 C 20 %
2787 26-03-2017 06:16:18 2.2 C 20 %
2788 26-03-2017 06:28:18 1.9 C 20 %
2789 26-03-2017 06:40:17 1.8 C 20 %
2790 26-03-2017 06:52:17 1.8 C 20 %
2791 26-03-2017 07:04:17 1.8 C 20 %
2792 26-03-2017 07:16:17 2.1 C 20 %
2793 26-03-2017 07:28:17 2.1 C 20 %
2794 26-03-2017 07:40:17 2.2 C 20 %
2795 26-03-2017 07:52:17 2.3 C 20 %
2796 26-03-2017 08:04:17 2.6 C 20 %
2797 26-03-2017 08:16:17 2.7 C 20 %
2798 26-03-2017 08:28:17 2.9 C 20 %
2799 26-03-2017 08:40:17 3.1 C 20 %
2800 26-03-2017 08:52:17 3.4 C 20 %
Sensor: Nr:Datum:Temp:Feuchte:
Aussen-T/F 2801 26-03-2017 09:04:17 3.8 C 20 %
2802 26-03-2017 09:16:17 4.1 C 20 %
2803 26-03-2017 09:28:17 4.5 C 20 %
2804 26-03-2017 09:40:17 4.9 C 20 %
2805 26-03-2017 09:52:17 5.6 C 20 %
2806 26-03-2017 10:04:17 6.6 C 20 %
2807 26-03-2017 10:16:17 7.2 C 20 %
2808 26-03-2017 10:28:17 7.7 C 20 %
2809 26-03-2017 10:40:17 8.4 C 20 %
2810 26-03-2017 10:52:17 9.4 C 20 %
2811 26-03-2017 11:04:17 9.9 C 20 %
2812 26-03-2017 11:16:17 11.1 C 20 %
2813 26-03-2017 11:28:17 10.9 C 20 %
2814 26-03-2017 11:40:17 12.7 C 20 %
2815 26-03-2017 11:52:17 14.7 C 20 %
2816 26-03-2017 12:04:17 14.9 C 20 %
2817 26-03-2017 12:16:17 13.7 C 20 %
2818 26-03-2017 12:28:17 13.2 C 20 %
2819 26-03-2017 12:40:17 13.2 C 20 %
2820 26-03-2017 12:52:17 12.8 C 20 %
2821 26-03-2017 13:04:17 12.4 C 20 %
2822 26-03-2017 13:16:17 12.4 C 20 %
2823 26-03-2017 13:28:17 12.6 C 20 %
2824 26-03-2017 13:40:17 12.8 C 20 %
2825 26-03-2017 13:52:17 13.1 C 20 %
Sensor: Nr:Datum:Temp:Feuchte:
Aussen-T/F 2826 26-03-2017 14:04:17 13.4 C 20 %
2827 26-03-2017 14:16:17 13.5 C 20 %
2828 26-03-2017 14:28:17 13.9 C 20 %
2829 26-03-2017 14:40:17 14.2 C 20 %
2830 26-03-2017 14:52:17 14.5 C 20 %
2831 26-03-2017 15:04:17 14.8 C 20 %
2832 26-03-2017 15:16:18 15.3 C 20 %
2833 26-03-2017 15:28:18 15.8 C 20 %
2834 26-03-2017 15:40:17 16.2 C 20 %
2835 26-03-2017 15:52:17 16.7 C 20 %
2836 26-03-2017 16:04:17 17.2 C 20 %
2837 26-03-2017 16:16:17 17.3 C 20 %
2838 26-03-2017 16:28:17 17.3 C 20 %
2839 26-03-2017 16:40:17 18 C 20 %
2840 26-03-2017 16:52:17 18.1 C 20 %
2841 26-03-2017 17:04:17 18.2 C 20 %
2842 26-03-2017 17:16:17 19.1 C 20 %
2843 26-03-2017 17:28:17 21.1 C 20 %
2844 26-03-2017 17:40:17 24.4 C 20 %
2845 26-03-2017 17:52:17 24.1 C 20 %
2846 26-03-2017 18:04:17 24.6 C 20 %
2847 26-03-2017 18:16:17 24.9 C 20 %
2848 26-03-2017 18:28:17 23.1 C 20 %
2849 26-03-2017 18:40:17 21.1 C 20 %
2850 26-03-2017 18:52:17 19 C 20 %
Sensor: Nr:Datum:Temp:Feuchte:
Aussen-T/F 2851 26-03-2017 19:04:17 16.1 C 20 %
2852 26-03-2017 19:16:17 13.5 C 20 %
2853 26-03-2017 19:28:17 12.1 C 20 %
2854 26-03-2017 19:40:17 11.3 C 20 %
2855 26-03-2017 19:52:17 10.5 C 20 %
2856 26-03-2017 20:04:17 9.9 C 20 %
2857 26-03-2017 20:16:18 9.6 C 20 %
2858 26-03-2017 20:28:18 9.3 C 20 %
2859 26-03-2017 20:40:17 9 C 20 %
2860 26-03-2017 20:52:17 8.7 C 20 %
2861 26-03-2017 21:04:17 8.2 C 20 %
2862 26-03-2017 21:16:17 7.9 C 20 %
2863 26-03-2017 21:28:17 7.3 C 20 %
2864 26-03-2017 21:40:17 7.1 C 20 %
2865 26-03-2017 21:52:17 7 C 20 %
2866 26-03-2017 22:04:17 6.8 C 20 %
2867 26-03-2017 22:16:17 6.5 C 20 %
2868 26-03-2017 22:28:17 6.1 C 20 %
2869 26-03-2017 22:40:17 5.8 C 20 %
2870 26-03-2017 22:52:17 5.6 C 20 %
2871 26-03-2017 23:04:17 5.4 C 20 %
2872 26-03-2017 23:16:17 5.1 C 20 %
2873 26-03-2017 23:28:17 5 C 20 %
2874 26-03-2017 23:40:17 4.9 C 20 %
2875 26-03-2017 23:52:17 4.7 C 20 %
Sensor: Nr:Datum:Temp:Feuchte:
Aussen-T/F 2876 27-03-2017 00:04:17 4.4 C 20 %
2877 27-03-2017 00:16:17 4.2 C 20 %
2878 27-03-2017 00:28:17 4 C 20 %
2879 27-03-2017 00:40:17 3.8 C 20 %
2880 27-03-2017 00:52:17 3.6 C 21 %
2881 27-03-2017 01:04:17 3.5 C 23 %
2882 27-03-2017 01:16:17 3.4 C 25 %
2883 27-03-2017 01:28:17 3.3 C 25 %
2884 27-03-2017 01:40:17 3.3 C 25 %
2885 27-03-2017 01:52:17 3.1 C 25 %
2886 27-03-2017 02:04:17 3 C 27 %
2887 27-03-2017 02:16:17 2.6 C 26 %
2888 27-03-2017 02:28:17 2.6 C 27 %
2889 27-03-2017 02:40:17 2.5 C 30 %
2890 27-03-2017 02:52:17 2.5 C 29 %
2891 27-03-2017 03:04:17 2.2 C 28 %
2892 27-03-2017 03:16:17 2.1 C 30 %
2893 27-03-2017 03:28:17 1.8 C 31 %
2894 27-03-2017 03:40:17 1.7 C 31 %
2895 27-03-2017 03:52:17 1.5 C 33 %
2896 27-03-2017 04:04:17 1.3 C 33 %
2897 27-03-2017 04:16:17 1 C 33 %
2898 27-03-2017 04:28:17 1 C 35 %
2899 27-03-2017 04:40:17 0.9 C 36 %
2900 27-03-2017 04:52:17 0.7 C 36 %
Sensor: Nr:Datum:Temp:Feuchte:
Aussen-T/F 2901 27-03-2017 05:04:17 0.7 C 36 %
2902 27-03-2017 05:16:17 0.6 C 36 %
2903 27-03-2017 05:28:17 0.4 C 37 %
2904 27-03-2017 05:40:17 0.3 C 37 %
2905 27-03-2017 05:52:17 0.1 C 38 %
2906 27-03-2017 06:04:17 0.1 C 38 %
2907 27-03-2017 06:16:17 -0.1 C 39 %
2908 27-03-2017 06:28:17 -0.1 C 40 %
2909 27-03-2017 06:40:17 -0.1 C 41 %
2910 27-03-2017 06:52:17 -0.3 C 41 %
2911 27-03-2017 07:04:17 -0.5 C 41 %
2912 27-03-2017 07:16:17 -0.6 C 41 %
2913 27-03-2017 07:28:17 -0.6 C 42 %
2914 27-03-2017 07:40:17 -0.4 C 43 %
2915 27-03-2017 07:52:17 -0.6 C 43 %
2916 27-03-2017 08:04:17 -0.4 C 43 %
2917 27-03-2017 08:16:17 -0.2 C 44 %
2918 27-03-2017 08:28:17 0 C 45 %
2919 27-03-2017 08:40:17 0.2 C 45 %
2920 27-03-2017 08:52:16 0.3 C 45 %
2921 27-03-2017 09:04:18 0.5 C 45 %
2922 27-03-2017 09:16:17 0.6 C 44 %
2923 27-03-2017 09:28:17 0.8 C 44 %
2924 27-03-2017 09:40:17 1.2 C 43 %
2925 27-03-2017 09:52:17 1.5 C 42 %
Sensor: Nr:Datum:Temp:Feuchte:
Aussen-T/F 2926 27-03-2017 10:04:17 1.9 C 42 %
2927 27-03-2017 10:16:17 2.4 C 40 %
2928 27-03-2017 10:28:17 3 C 37 %
2929 27-03-2017 10:40:17 4.1 C 32 %
2930 27-03-2017 10:52:17 5.5 C 20 %
2931 27-03-2017 11:04:17 6.6 C 20 %
2932 27-03-2017 11:16:17 8.6 C 20 %
2933 27-03-2017 11:28:17 8.5 C 20 %
2934 27-03-2017 11:40:17 10.9 C 20 %
2935 27-03-2017 11:52:17 14 C 20 %
2936 27-03-2017 12:04:17 15.3 C 20 %
2937 27-03-2017 12:16:17 13.1 C 20 %
2938 27-03-2017 12:28:17 12.7 C 20 %
2939 27-03-2017 12:40:17 12.7 C 20 %
2940 27-03-2017 12:52:17 13 C 20 %
2941 27-03-2017 13:04:17 13 C 20 %
2942 27-03-2017 13:16:17 13.3 C 20 %
2943 27-03-2017 13:28:17 13.5 C 20 %
2944 27-03-2017 13:40:17 13.5 C 20 %
2945 27-03-2017 13:52:17 13.8 C 20 %
2946 27-03-2017 14:04:17 14 C 20 %
2947 27-03-2017 14:16:17 14.3 C 20 %
2948 27-03-2017 14:28:17 14.7 C 20 %
2949 27-03-2017 14:40:17 15.2 C 20 %
2950 27-03-2017 14:52:17 15.5 C 20 %
Sensor: Nr:Datum:Temp:Feuchte:
Aussen-T/F 2951 27-03-2017 15:04:17 16 C 20 %
2952 27-03-2017 15:16:16 16.2 C 20 %
2953 27-03-2017 15:28:17 16.8 C 20 %
2954 27-03-2017 15:40:17 17.2 C 20 %
2955 27-03-2017 15:52:17 17.6 C 20 %
2956 27-03-2017 16:04:17 18.3 C 20 %
2957 27-03-2017 16:16:17 18.7 C 20 %
2958 27-03-2017 16:28:17 18.9 C 20 %
2959 27-03-2017 16:40:17 19.2 C 20 %
2960 27-03-2017 16:52:17 19.5 C 20 %
2961 27-03-2017 17:04:17 20 C 20 %
2962 27-03-2017 17:16:17 21 C 20 %
2963 27-03-2017 17:28:17 23.6 C 20 %
2964 27-03-2017 17:40:17 28.7 C 20 %
2965 27-03-2017 17:52:16 29.6 C 20 %
2966 27-03-2017 18:04:17 31 C 20 %
2967 27-03-2017 18:16:17 27.8 C 20 %
2968 27-03-2017 18:28:17 28.4 C 20 %
2969 27-03-2017 18:40:17 28.3 C 20 %
2970 27-03-2017 18:52:17 26.2 C 20 %
2971 27-03-2017 19:04:17 18.9 C 20 %
2972 27-03-2017 19:16:17 16.2 C 20 %
2973 27-03-2017 19:28:17 14.5 C 20 %
2974 27-03-2017 19:40:17 13 C 20 %
2975 27-03-2017 19:52:17 11.8 C 20 %
Sensor: Nr:Datum:Temp:Feuchte:
Aussen-T/F 2976 27-03-2017 20:04:18 11 C 20 %
2977 27-03-2017 20:16:17 10.4 C 20 %
2978 27-03-2017 20:28:17 10 C 20 %
2979 27-03-2017 20:40:17 9.7 C 20 %
2980 27-03-2017 20:52:17 9.5 C 20 %
2981 27-03-2017 21:04:17 8.4 C 20 %
2982 27-03-2017 21:16:17 8.5 C 20 %
2983 27-03-2017 21:28:17 8 C 20 %
2984 27-03-2017 21:40:18 7.9 C 20 %
2985 27-03-2017 21:52:17 6.8 C 20 %
2986 27-03-2017 22:04:17 6.7 C 20 %
2987 27-03-2017 22:16:17 6.2 C 20 %
2988 27-03-2017 22:28:17 5.9 C 20 %
2989 27-03-2017 22:40:17 5.6 C 20 %
2990 27-03-2017 22:52:17 5.5 C 20 %
2991 27-03-2017 23:04:17 5.2 C 20 %
2992 27-03-2017 23:16:17 5 C 20 %
2993 27-03-2017 23:28:18 4.6 C 20 %
2994 27-03-2017 23:40:17 4.4 C 20 %
2995 27-03-2017 23:52:17 4.3 C 20 %
2996 28-03-2017 00:04:17 4.7 C 20 %
2997 28-03-2017 00:16:17 4.8 C 20 %
2998 28-03-2017 00:28:17 4.3 C 20 %
2999 28-03-2017 00:40:17 3.6 C 20 %
3000 28-03-2017 00:52:17 3.3 C 20 %
Sensor: Nr:Datum:Temp:Feuchte:
Aussen-T/F 3001 28-03-2017 01:04:17 3 C 20 %
3002 28-03-2017 01:16:17 3.1 C 20 %
3003 28-03-2017 01:28:17 2.8 C 20 %
3004 28-03-2017 01:40:17 2.8 C 20 %
3005 28-03-2017 01:52:17 2.7 C 20 %
3006 28-03-2017 02:04:17 2.6 C 20 %
3007 28-03-2017 02:16:17 2.4 C 20 %
3008 28-03-2017 02:28:17 2.4 C 20 %
3009 28-03-2017 02:40:17 2.2 C 20 %
3010 28-03-2017 02:52:17 1.9 C 20 %
3011 28-03-2017 03:04:17 1.8 C 20 %
3012 28-03-2017 03:16:17 1.7 C 20 %
3013 28-03-2017 03:28:17 1.6 C 20 %
3014 28-03-2017 03:40:17 1.6 C 20 %
3015 28-03-2017 03:52:17 1.6 C 20 %
3016 28-03-2017 04:04:17 1.3 C 20 %
3017 28-03-2017 04:16:18 1.2 C 21 %
3018 28-03-2017 04:28:18 1.3 C 25 %
3019 28-03-2017 04:40:17 1.3 C 25 %
3020 28-03-2017 04:52:17 1.2 C 25 %
3021 28-03-2017 05:04:17 1.2 C 26 %
3022 28-03-2017 05:16:17 1.3 C 27 %
3023 28-03-2017 05:28:17 1 C 26 %
3024 28-03-2017 05:40:17 0.8 C 28 %
3025 28-03-2017 05:52:17 0.8 C 30 %
Sensor: Nr:Datum:Temp:Feuchte:
Aussen-T/F 3026 28-03-2017 06:04:17 1.1 C 30 %
3027 28-03-2017 06:16:17 1.2 C 30 %
3028 28-03-2017 06:28:17 0.7 C 28 %
3029 28-03-2017 06:40:17 0.3 C 29 %
3030 28-03-2017 06:52:17 0.3 C 31 %
3031 28-03-2017 07:04:17 0.3 C 32 %
3032 28-03-2017 07:16:17 0.2 C 33 %
3033 28-03-2017 07:28:17 0.2 C 34 %
3034 28-03-2017 07:40:17 0.2 C 35 %
3035 28-03-2017 07:52:17 0.4 C 35 %
3036 28-03-2017 08:04:17 0.8 C 37 %
3037 28-03-2017 08:16:17 1.1 C 36 %
3038 28-03-2017 08:28:17 1.3 C 35 %
3039 28-03-2017 08:40:17 1.5 C 35 %
3040 28-03-2017 08:52:17 1.6 C 34 %
3041 28-03-2017 09:04:17 1.6 C 34 %
3042 28-03-2017 09:16:17 2.1 C 32 %
3043 28-03-2017 09:28:17 2.3 C 31 %
3044 28-03-2017 09:40:17 2.5 C 31 %
3045 28-03-2017 09:52:17 3 C 30 %
3046 28-03-2017 10:04:17 3.5 C 28 %
3047 28-03-2017 10:16:17 4.1 C 23 %
3048 28-03-2017 10:28:17 4.1 C 23 %
3049 28-03-2017 10:40:17 5.2 C 20 %
3050 28-03-2017 10:52:17 6.9 C 20 %
Sensor: Nr:Datum:Temp:Feuchte:
Aussen-T/F 3051 28-03-2017 11:04:17 8.1 C 20 %
3052 28-03-2017 11:16:17 9.5 C 20 %
3053 28-03-2017 11:28:17 10.1 C 20 %
3054 28-03-2017 11:40:17 12.4 C 20 %
3055 28-03-2017 11:52:17 15.4 C 20 %
3056 28-03-2017 12:04:17 16.6 C 20 %
3057 28-03-2017 12:16:17 16.2 C 20 %
3058 28-03-2017 12:28:17 16.6 C 20 %
3059 28-03-2017 12:40:17 16.6 C 20 %
3060 28-03-2017 12:52:17 16.9 C 20 %
3061 28-03-2017 13:04:17 17 C 20 %
3062 28-03-2017 13:16:17 17.7 C 20 %
3063 28-03-2017 13:28:17 17.9 C 20 %
3064 28-03-2017 13:40:17 18.1 C 20 %
3065 28-03-2017 13:52:17 18.3 C 20 %
3066 28-03-2017 14:04:17 18.8 C 20 %
3067 28-03-2017 14:16:17 19.1 C 20 %
3068 28-03-2017 14:28:17 19.3 C 20 %
3069 28-03-2017 14:40:17 19.7 C 20 %
3070 28-03-2017 14:52:17 20.2 C 20 %
3071 28-03-2017 15:04:17 20.5 C 20 %
3072 28-03-2017 15:16:17 20.9 C 20 %
3073 28-03-2017 15:28:17 21.1 C 20 %
3074 28-03-2017 15:40:17 21.4 C 20 %
3075 28-03-2017 15:52:17 21.8 C 20 %
Sensor: Nr:Datum:Temp:Feuchte:
Aussen-T/F 3076 28-03-2017 16:04:17 21.9 C 20 %
3077 28-03-2017 16:16:17 22.1 C 20 %
3078 28-03-2017 16:28:17 22.4 C 20 %
3079 28-03-2017 16:40:17 21.9 C 20 %
3080 28-03-2017 16:52:17 23.3 C 20 %
3081 28-03-2017 17:04:17 23.7 C 20 %
3082 28-03-2017 17:16:17 22.7 C 20 %
3083 28-03-2017 17:28:17 21.5 C 20 %
3084 28-03-2017 17:40:17 19.6 C 20 %
3085 28-03-2017 17:52:17 25.4 C 20 %
3086 28-03-2017 18:04:17 22.2 C 20 %
3087 28-03-2017 18:16:17 19.7 C 20 %
3088 28-03-2017 18:28:17 18.8 C 20 %
3089 28-03-2017 18:40:18 18.7 C 20 %
3090 28-03-2017 18:52:17 20 C 20 %
3091 28-03-2017 19:04:17 19 C 20 %
3092 28-03-2017 19:16:17 18.2 C 20 %
3093 28-03-2017 19:28:17 17.8 C 20 %
3094 28-03-2017 19:40:17 16.6 C 20 %
3095 28-03-2017 19:52:17 16 C 20 %
3096 28-03-2017 20:04:17 14.9 C 20 %
3097 28-03-2017 20:16:17 14 C 20 %
3098 28-03-2017 20:28:17 13.2 C 20 %
3099 28-03-2017 20:40:17 13 C 20 %
3100 28-03-2017 20:52:17 12.9 C 20 %
Sensor: Nr:Datum:Temp:Feuchte:
Aussen-T/F 3101 28-03-2017 21:04:17 12.7 C 20 %
3102 28-03-2017 21:16:17 12.4 C 20 %
3103 28-03-2017 21:28:17 12.3 C 20 %
3104 28-03-2017 21:40:17 12.6 C 20 %
3105 28-03-2017 21:52:17 12.2 C 20 %
3106 28-03-2017 22:04:17 12.1 C 20 %
3107 28-03-2017 22:16:17 12.3 C 20 %
3108 28-03-2017 22:28:17 12.3 C 20 %
3109 28-03-2017 22:40:17 12.2 C 20 %
3110 28-03-2017 22:52:17 11.6 C 20 %
3111 28-03-2017 23:04:17 11 C 20 %
3112 28-03-2017 23:16:17 10.7 C 20 %
3113 28-03-2017 23:28:17 10.3 C 20 %
3114 28-03-2017 23:40:17 9.9 C 20 %
3115 28-03-2017 23:52:17 9.8 C 20 %
3116 29-03-2017 00:04:17 9.9 C 20 %
3117 29-03-2017 00:16:17 9.7 C 20 %
3118 29-03-2017 00:28:17 9.4 C 20 %
3119 29-03-2017 00:40:18 9.4 C 20 %
3120 29-03-2017 00:52:17 9.3 C 20 %
3121 29-03-2017 01:04:17 9.4 C 20 %
3122 29-03-2017 01:16:17 9.2 C 20 %
3123 29-03-2017 01:28:17 8.9 C 20 %
3124 29-03-2017 01:40:17 9 C 20 %
3125 29-03-2017 01:52:17 8.9 C 20 %
Sensor: Nr:Datum:Temp:Feuchte:
Aussen-T/F 3126 29-03-2017 02:04:17 9.6 C 20 %
3127 29-03-2017 02:16:17 9.5 C 20 %
3128 29-03-2017 02:28:17 10.1 C 20 %
3129 29-03-2017 02:40:17 10.4 C 20 %
3130 29-03-2017 02:52:17 10.1 C 20 %
3131 29-03-2017 03:04:17 9.2 C 20 %
3132 29-03-2017 03:16:17 8.1 C 20 %
3133 29-03-2017 03:28:17 7.8 C 25 %
3134 29-03-2017 03:40:17 7.5 C 25 %
3135 29-03-2017 03:52:17 7.5 C 26 %
3136 29-03-2017 04:04:17 7.2 C 26 %
3137 29-03-2017 04:16:18 7 C 28 %
3138 29-03-2017 04:28:18 6.9 C 30 %
3139 29-03-2017 04:40:17 6.9 C 31 %
3140 29-03-2017 04:52:17 6.7 C 32 %
3141 29-03-2017 05:04:17 7.1 C 33 %
3142 29-03-2017 05:16:17 7.2 C 31 %
3143 29-03-2017 05:28:17 7 C 30 %
3144 29-03-2017 05:40:17 7.1 C 32 %
3145 29-03-2017 05:52:17 7.3 C 31 %
3146 29-03-2017 06:04:17 6.9 C 31 %
3147 29-03-2017 06:16:17 6.9 C 32 %
3148 29-03-2017 06:28:17 7 C 32 %
3149 29-03-2017 06:40:17 6.8 C 33 %
3150 29-03-2017 06:52:17 7.1 C 34 %
Sensor: Nr:Datum:Temp:Feuchte:
Aussen-T/F 3151 29-03-2017 07:04:17 7.1 C 35 %
3152 29-03-2017 07:16:17 7.3 C 34 %
3153 29-03-2017 07:28:17 7.3 C 34 %
3154 29-03-2017 07:40:17 7.2 C 33 %
3155 29-03-2017 07:52:17 7.3 C 33 %
3156 29-03-2017 08:04:17 7.3 C 33 %
3157 29-03-2017 08:16:17 7.3 C 33 %
3158 29-03-2017 08:28:17 7.3 C 33 %
3159 29-03-2017 08:40:17 8 C 31 %
3160 29-03-2017 08:52:17 8.2 C 31 %
3161 29-03-2017 09:04:17 8.5 C 30 %
3162 29-03-2017 09:16:18 8.6 C 30 %
3163 29-03-2017 09:28:18 9.1 C 30 %
3164 29-03-2017 09:40:18 9.5 C 26 %
3165 29-03-2017 09:52:17 9.8 C 25 %
3166 29-03-2017 10:04:17 10.2 C 20 %
3167 29-03-2017 10:16:17 10.8 C 20 %
3168 29-03-2017 10:28:17 11.3 C 20 %
3169 29-03-2017 10:40:17 12 C 20 %
3170 29-03-2017 10:52:17 12.8 C 20 %
3171 29-03-2017 11:04:17 14 C 20 %
3172 29-03-2017 11:16:17 14.9 C 20 %
3173 29-03-2017 11:28:17 15.3 C 20 %
3174 29-03-2017 11:40:17 16.8 C 20 %
3175 29-03-2017 11:52:17 17.3 C 20 %
Sensor: Nr:Datum:Temp:Feuchte:
Aussen-T/F 3176 29-03-2017 12:04:17 16.6 C 20 %
3177 29-03-2017 12:16:17 16.4 C 20 %
3178 29-03-2017 12:28:17 16.6 C 20 %
3179 29-03-2017 12:40:17 17.6 C 20 %
3180 29-03-2017 12:52:17 18.6 C 20 %
3181 29-03-2017 13:04:17 18.5 C 20 %
3182 29-03-2017 13:16:17 18.6 C 20 %
3183 29-03-2017 13:28:17 19 C 20 %
3184 29-03-2017 13:40:17 19.2 C 20 %
3185 29-03-2017 13:52:17 19 C 20 %
3186 29-03-2017 14:04:17 19.3 C 20 %
3187 29-03-2017 14:16:17 19.2 C 20 %
3188 29-03-2017 14:28:17 19.7 C 20 %
3189 29-03-2017 14:40:17 19.8 C 20 %
3190 29-03-2017 14:52:17 20.1 C 20 %
3191 29-03-2017 15:04:17 20.2 C 20 %
3192 29-03-2017 15:16:17 19.5 C 20 %
3193 29-03-2017 15:28:17 18.4 C 20 %
3194 29-03-2017 15:40:17 18.8 C 20 %
3195 29-03-2017 15:52:17 18.7 C 20 %
3196 29-03-2017 16:04:17 18.7 C 20 %
3197 29-03-2017 16:16:17 19.2 C 20 %
3198 29-03-2017 16:28:17 18.8 C 20 %
3199 29-03-2017 16:40:17 18.7 C 20 %
3200 29-03-2017 16:52:18 18.6 C 20 %
Sensor: Nr:Datum:Temp:Feuchte:
Aussen-T/F 3201 29-03-2017 17:04:17 18.5 C 20 %
3202 29-03-2017 17:16:17 19.4 C 20 %
3203 29-03-2017 17:28:17 18.2 C 20 %
3204 29-03-2017 17:40:17 18.3 C 20 %
3205 29-03-2017 17:52:17 17.8 C 20 %
3206 29-03-2017 18:04:17 17.7 C 20 %
3207 29-03-2017 18:16:17 17.9 C 20 %
3208 29-03-2017 18:28:17 17.7 C 20 %
3209 29-03-2017 18:40:17 17.4 C 20 %
3210 29-03-2017 18:52:17 17.9 C 20 %
3211 29-03-2017 19:04:17 16.9 C 20 %
3212 29-03-2017 19:16:17 16.2 C 20 %
3213 29-03-2017 19:28:17 16 C 20 %
3214 29-03-2017 19:40:17 15.7 C 20 %
3215 29-03-2017 19:52:17 15.4 C 20 %
3216 29-03-2017 20:04:17 15 C 20 %
3217 29-03-2017 20:16:17 15 C 20 %
3218 29-03-2017 20:28:17 14.8 C 20 %
3219 29-03-2017 20:40:17 14.7 C 20 %
3220 29-03-2017 20:52:17 14.4 C 20 %
3221 29-03-2017 21:04:17 14.2 C 20 %
3222 29-03-2017 21:16:17 13.8 C 20 %
3223 29-03-2017 21:28:17 13.3 C 20 %
3224 29-03-2017 21:40:18 13.2 C 20 %
3225 29-03-2017 21:52:17 13.5 C 20 %
Sensor: Nr:Datum:Temp:Feuchte:
Aussen-T/F 3226 29-03-2017 22:04:17 13.3 C 20 %
3227 29-03-2017 22:16:17 13.2 C 20 %
3228 29-03-2017 22:28:17 12.9 C 20 %
3229 29-03-2017 22:40:17 12.3 C 20 %
3230 29-03-2017 22:52:17 12 C 20 %
3231 29-03-2017 23:04:17 11.8 C 20 %
3232 29-03-2017 23:16:17 11.3 C 20 %
3233 29-03-2017 23:28:17 11.2 C 20 %
3234 29-03-2017 23:40:17 10.8 C 20 %
3235 29-03-2017 23:52:17 10.7 C 20 %
3236 30-03-2017 00:04:17 11.3 C 20 %
3237 30-03-2017 00:16:17 11.7 C 20 %
3238 30-03-2017 00:28:17 12 C 20 %
3239 30-03-2017 00:40:17 12 C 20 %
3240 30-03-2017 00:52:17 11.7 C 20 %
3241 30-03-2017 01:04:17 11.5 C 20 %
3242 30-03-2017 01:16:17 11.5 C 20 %
3243 30-03-2017 01:28:17 11.6 C 20 %
3244 30-03-2017 01:40:17 12 C 20 %
3245 30-03-2017 01:52:17 12 C 20 %
3246 30-03-2017 02:04:17 12.2 C 20 %
3247 30-03-2017 02:16:17 12 C 20 %
3248 30-03-2017 02:28:17 11.9 C 20 %
3249 30-03-2017 02:40:17 11.7 C 20 %
3250 30-03-2017 02:52:17 11.5 C 20 %
Sensor: Nr:Datum:Temp:Feuchte:
Aussen-T/F 3251 30-03-2017 03:04:17 11.4 C 20 %
3252 30-03-2017 03:16:17 11.2 C 20 %
3253 30-03-2017 03:28:17 11 C 20 %
3254 30-03-2017 03:40:17 11 C 20 %
3255 30-03-2017 03:52:17 11 C 20 %
3256 30-03-2017 04:04:17 10.6 C 20 %
3257 30-03-2017 04:16:17 10.5 C 20 %
3258 30-03-2017 04:28:17 10.1 C 20 %
3259 30-03-2017 04:40:17 9.7 C 20 %
3260 30-03-2017 04:52:17 9.2 C 21 %
3261 30-03-2017 05:04:17 9.1 C 25 %
3262 30-03-2017 05:16:17 9.1 C 26 %
3263 30-03-2017 05:28:17 9.2 C 27 %
3264 30-03-2017 05:40:18 9 C 28 %
3265 30-03-2017 05:52:17 8.8 C 28 %
3266 30-03-2017 06:04:17 8.4 C 27 %
3267 30-03-2017 06:16:17 7.8 C 29 %
3268 30-03-2017 06:28:17 7.4 C 30 %
3269 30-03-2017 06:40:17 7.2 C 31 %
3270 30-03-2017 06:52:17 7.3 C 32 %
3271 30-03-2017 07:04:17 6.9 C 34 %
3272 30-03-2017 07:16:17 6.7 C 34 %
3273 30-03-2017 07:28:17 6.6 C 35 %
3274 30-03-2017 07:40:17 6.6 C 36 %
3275 30-03-2017 07:52:17 6.7 C 37 %
Sensor: Nr:Datum:Temp:Feuchte:
Aussen-T/F 3276 30-03-2017 08:04:17 6.9 C 38 %
3277 30-03-2017 08:16:17 7 C 37 %
3278 30-03-2017 08:28:17 7.3 C 38 %
3279 30-03-2017 08:40:17 7.6 C 39 %
3280 30-03-2017 08:52:17 7.7 C 38 %
3281 30-03-2017 09:04:17 8.1 C 37 %
3282 30-03-2017 09:16:16 8.3 C 36 %
3283 30-03-2017 09:28:17 8.7 C 36 %
3284 30-03-2017 09:40:17 8.9 C 34 %
3285 30-03-2017 09:52:17 9 C 32 %
3286 30-03-2017 10:04:17 9.5 C 32 %
3287 30-03-2017 10:16:17 10 C 30 %
3288 30-03-2017 10:28:17 10.7 C 27 %
3289 30-03-2017 10:40:17 11.7 C 20 %
3290 30-03-2017 10:52:17 12.6 C 20 %
3291 30-03-2017 11:04:18 15 C 20 %
3292 30-03-2017 11:16:17 16.4 C 20 %
3293 30-03-2017 11:28:17 16.8 C 20 %
3294 30-03-2017 11:40:17 18.3 C 20 %
3295 30-03-2017 11:52:17 19.1 C 20 %
3296 30-03-2017 12:04:17 19.6 C 20 %
3297 30-03-2017 12:16:17 19.3 C 20 %
3298 30-03-2017 12:28:17 17.5 C 20 %
3299 30-03-2017 12:40:17 16.7 C 20 %
3300 30-03-2017 12:52:17 17.2 C 20 %
Sensor: Nr:Datum:Temp:Feuchte:
Aussen-T/F 3301 30-03-2017 13:04:17 17.6 C 20 %
3302 30-03-2017 13:16:17 17.7 C 20 %
3303 30-03-2017 13:28:17 18.1 C 20 %
3304 30-03-2017 13:40:17 18.5 C 20 %
3305 30-03-2017 13:52:17 18.8 C 20 %
3306 30-03-2017 14:04:17 19.5 C 20 %
3307 30-03-2017 14:16:16 19.8 C 20 %
3308 30-03-2017 14:28:17 19.7 C 20 %
3309 30-03-2017 14:40:17 20 C 20 %
3310 30-03-2017 14:52:17 20.3 C 20 %
3311 30-03-2017 15:04:17 20.9 C 20 %
3312 30-03-2017 15:16:17 22 C 20 %
3313 30-03-2017 15:28:17 23.3 C 20 %
3314 30-03-2017 15:40:17 22.3 C 20 %
3315 30-03-2017 15:52:17 21.5 C 20 %
3316 30-03-2017 16:04:17 21 C 20 %
3317 30-03-2017 16:16:17 21 C 20 %
3318 30-03-2017 16:28:17 21.8 C 20 %
3319 30-03-2017 16:40:17 23.3 C 20 %
3320 30-03-2017 16:52:17 24.4 C 20 %
3321 30-03-2017 17:04:17 23.8 C 20 %
3322 30-03-2017 17:16:17 24.3 C 20 %
3323 30-03-2017 17:28:17 25 C 20 %
3324 30-03-2017 17:40:17 26.4 C 20 %
3325 30-03-2017 17:52:17 28.2 C 20 %
Sensor: Nr:Datum:Temp:Feuchte:
Aussen-T/F 3326 30-03-2017 18:04:17 29.7 C 20 %
3327 30-03-2017 18:16:17 27.1 C 20 %
3328 30-03-2017 18:28:17 26.1 C 20 %
3329 30-03-2017 18:40:17 26.3 C 20 %
3330 30-03-2017 18:52:17 23.9 C 20 %
3331 30-03-2017 19:04:17 21.2 C 20 %
3332 30-03-2017 19:16:17 19.1 C 20 %
3333 30-03-2017 19:28:17 17.7 C 20 %
3334 30-03-2017 19:40:17 16.4 C 20 %
3335 30-03-2017 19:52:17 15.2 C 20 %
3336 30-03-2017 20:04:17 14.5 C 20 %
3337 30-03-2017 20:16:17 14 C 20 %
3338 30-03-2017 20:28:17 13.7 C 20 %
3339 30-03-2017 20:40:17 13.5 C 20 %
3340 30-03-2017 20:52:17 13.3 C 20 %
3341 30-03-2017 21:04:17 13.1 C 20 %
3342 30-03-2017 21:16:17 13 C 20 %
3343 30-03-2017 21:28:17 12.7 C 20 %
3344 30-03-2017 21:40:17 12.5 C 20 %
3345 30-03-2017 21:52:17 12.1 C 20 %
3346 30-03-2017 22:04:17 11.8 C 20 %
3347 30-03-2017 22:16:17 11.6 C 20 %
3348 30-03-2017 22:28:17 11.4 C 20 %
3349 30-03-2017 22:40:17 10.8 C 20 %
3350 30-03-2017 22:52:17 10.3 C 20 %
Sensor: Nr:Datum:Temp:Feuchte:
Aussen-T/F 3351 30-03-2017 23:04:17 10 C 20 %
3352 30-03-2017 23:16:17 9.8 C 20 %
3353 30-03-2017 23:28:17 9.6 C 20 %
3354 30-03-2017 23:40:17 9.3 C 21 %
3355 30-03-2017 23:52:17 9 C 23 %
3356 31-03-2017 00:04:17 8.8 C 26 %
3357 31-03-2017 00:16:17 8.5 C 27 %
3358 31-03-2017 00:28:17 8.3 C 28 %
3359 31-03-2017 00:40:17 8.1 C 28 %
3360 31-03-2017 00:52:17 8 C 30 %
3361 31-03-2017 01:04:17 7.8 C 31 %
3362 31-03-2017 01:16:17 7.7 C 32 %
3363 31-03-2017 01:28:17 7.5 C 32 %
3364 31-03-2017 01:40:17 7.3 C 33 %
3365 31-03-2017 01:52:17 7.1 C 35 %
3366 31-03-2017 02:04:17 7 C 35 %
3367 31-03-2017 02:16:17 7 C 36 %
3368 31-03-2017 02:28:17 6.7 C 37 %
3369 31-03-2017 02:40:17 6.7 C 37 %
3370 31-03-2017 02:52:17 6.3 C 37 %
3371 31-03-2017 03:04:17 6.3 C 39 %
3372 31-03-2017 03:16:18 6.2 C 39 %
3373 31-03-2017 03:28:18 6 C 39 %
3374 31-03-2017 03:40:17 6 C 40 %
3375 31-03-2017 03:52:17 6.1 C 41 %
Sensor: Nr:Datum:Temp:Feuchte:
Aussen-T/F 3376 31-03-2017 04:04:17 5.9 C 41 %
3377 31-03-2017 04:16:18 5.8 C 41 %
3378 31-03-2017 04:28:18 5.7 C 42 %
3379 31-03-2017 04:40:17 5.4 C 41 %
3380 31-03-2017 04:52:17 5.4 C 42 %
3381 31-03-2017 05:04:17 5.4 C 43 %
3382 31-03-2017 05:16:17 5.3 C 43 %
3383 31-03-2017 05:28:17 5.2 C 43 %
3384 31-03-2017 05:40:17 5.1 C 43 %
3385 31-03-2017 05:52:17 5 C 43 %
3386 31-03-2017 06:04:17 5 C 44 %
3387 31-03-2017 06:16:17 4.8 C 45 %
3388 31-03-2017 06:28:17 4.8 C 45 %
3389 31-03-2017 06:40:17 4.5 C 45 %
3390 31-03-2017 06:52:17 4.6 C 45 %
3391 31-03-2017 07:04:17 4.3 C 45 %
3392 31-03-2017 07:16:17 4.2 C 45 %
3393 31-03-2017 07:28:17 4.3 C 45 %
3394 31-03-2017 07:40:17 4.5 C 46 %
3395 31-03-2017 07:52:17 4.7 C 46 %
3396 31-03-2017 08:04:17 4.7 C 46 %
3397 31-03-2017 08:16:18 5 C 46 %
3398 31-03-2017 08:28:18 5.4 C 46 %
3399 31-03-2017 08:40:17 5.4 C 46 %
3400 31-03-2017 08:52:17 5.8 C 47 %
Sensor: Nr:Datum:Temp:Feuchte:
Aussen-T/F 3401 31-03-2017 09:04:17 6 C 46 %
3402 31-03-2017 09:16:16 6.5 C 46 %
3403 31-03-2017 09:28:16 6.9 C 46 %
3404 31-03-2017 09:40:17 7.3 C 46 %
3405 31-03-2017 09:52:17 7.8 C 46 %
3406 31-03-2017 10:04:17 8.5 C 46 %
3407 31-03-2017 10:16:17 9.2 C 45 %
3408 31-03-2017 10:28:17 9.9 C 42 %
3409 31-03-2017 10:40:17 10.7 C 37 %
3410 31-03-2017 10:52:17 11.9 C 30 %
3411 31-03-2017 11:04:17 13.8 C 20 %
3412 31-03-2017 11:16:17 16.2 C 20 %
3413 31-03-2017 11:28:17 17.5 C 20 %
3414 31-03-2017 11:40:17 18.3 C 20 %
3415 31-03-2017 11:52:17 20 C 20 %
3416 31-03-2017 12:04:17 20.4 C 20 %
3417 31-03-2017 12:16:17 21 C 20 %
3418 31-03-2017 12:28:17 21.1 C 20 %
3419 31-03-2017 12:40:17 21 C 20 %
3420 31-03-2017 12:52:17 21.2 C 20 %
3421 31-03-2017 13:04:17 21 C 20 %
3422 31-03-2017 13:16:17 21.2 C 20 %
3423 31-03-2017 13:28:17 21.3 C 20 %
3424 31-03-2017 13:40:17 21 C 20 %
3425 31-03-2017 13:52:17 21.1 C 20 %
Sensor: Nr:Datum:Temp:Feuchte:
Aussen-T/F 3426 31-03-2017 14:04:18 21.3 C 20 %
3427 31-03-2017 14:16:17 21.6 C 20 %
3428 31-03-2017 14:28:17 21.8 C 20 %
3429 31-03-2017 14:40:17 22.3 C 20 %
3430 31-03-2017 14:52:17 22.3 C 20 %
3431 31-03-2017 15:04:17 22.8 C 20 %
3432 31-03-2017 15:16:17 23.1 C 20 %
3433 31-03-2017 15:28:17 23.9 C 20 %
3434 31-03-2017 15:40:17 24 C 20 %
3435 31-03-2017 15:52:17 23.4 C 20 %
3436 31-03-2017 16:04:17 23.9 C 20 %
3437 31-03-2017 16:16:16 24.1 C 20 %
3438 31-03-2017 16:28:17 23.8 C 20 %
3439 31-03-2017 16:40:17 23.1 C 20 %
3440 31-03-2017 16:52:17 23.2 C 20 %
3441 31-03-2017 17:04:17 23 C 20 %
3442 31-03-2017 17:16:16 22.9 C 20 %
3443 31-03-2017 17:28:17 23 C 20 %
3444 31-03-2017 17:40:17 23.3 C 20 %
3445 31-03-2017 17:52:17 23.5 C 20 %
3446 31-03-2017 18:04:17 27.5 C 20 %
3447 31-03-2017 18:16:18 27.5 C 20 %
3448 31-03-2017 18:28:18 23.9 C 20 %
3449 31-03-2017 18:40:17 23.1 C 20 %
3450 31-03-2017 18:52:17 23.6 C 20 %
Sensor: Nr:Datum:Temp:Feuchte:
Aussen-T/F 3451 31-03-2017 19:04:17 22.1 C 20 %
3452 31-03-2017 19:16:17 20.5 C 20 %
3453 31-03-2017 19:28:17 19.3 C 20 %
3454 31-03-2017 19:40:17 18.1 C 20 %
3455 31-03-2017 19:52:17 17 C 20 %
3456 31-03-2017 20:04:17 16.4 C 20 %
3457 31-03-2017 20:16:17 16 C 20 %
3458 31-03-2017 20:28:17 15.5 C 20 %
3459 31-03-2017 20:40:17 15.1 C 20 %
3460 31-03-2017 20:52:17 14.6 C 20 %
3461 31-03-2017 21:04:17 14.1 C 20 %
3462 31-03-2017 21:16:17 13.8 C 20 %
3463 31-03-2017 21:28:17 13.2 C 20 %
3464 31-03-2017 21:40:17 12.8 C 20 %
3465 31-03-2017 21:52:17 13.4 C 20 %
3466 31-03-2017 22:04:17 13.3 C 20 %
3467 31-03-2017 22:16:17 12.9 C 20 %
3468 31-03-2017 22:28:17 13 C 20 %
3469 31-03-2017 22:40:17 12.7 C 20 %
3470 31-03-2017 22:52:17 12.6 C 20 %
3471 31-03-2017 23:04:17 12.4 C 20 %
3472 31-03-2017 23:16:17 12.2 C 20 %
3473 31-03-2017 23:28:17 11.7 C 20 %
3474 31-03-2017 23:40:17 11.8 C 20 %
3475 31-03-2017 23:52:17 11.6 C 20 %
Sensor: Nr:Datum:Temp:Feuchte:
G-T/H 1 03-03-2017 00:02:18 9 C 64 %
2 03-03-2017 00:14:18 9 C 64 %
3 03-03-2017 00:26:17 9 C 64 %
4 03-03-2017 00:38:17 9 C 64 %
5 03-03-2017 00:50:17 9 C 64 %
6 03-03-2017 01:02:17 9 C 64 %
7 03-03-2017 01:14:17 9 C 64 %
8 03-03-2017 01:26:17 9 C 64 %
9 03-03-2017 01:38:17 9 C 64 %
10 03-03-2017 01:50:17 9 C 65 %
11 03-03-2017 02:02:17 9 C 65 %
12 03-03-2017 02:14:17 9 C 65 %
13 03-03-2017 02:26:17 9 C 65 %
14 03-03-2017 02:38:17 9 C 65 %
15 03-03-2017 02:50:17 9 C 65 %
16 03-03-2017 03:02:17 8.9 C 66 %
17 03-03-2017 03:14:17 8.9 C 66 %
18 03-03-2017 03:26:17 8.9 C 66 %
19 03-03-2017 03:38:17 8.9 C 66 %
20 03-03-2017 03:50:17 8.9 C 66 %
21 03-03-2017 04:02:17 8.9 C 66 %
22 03-03-2017 04:14:17 8.8 C 65 %
23 03-03-2017 04:26:17 8.7 C 65 %
24 03-03-2017 04:38:17 8.6 C 64 %
25 03-03-2017 04:50:17 8.6 C 64 %
Sensor: Nr:Datum:Temp:Feuchte:
G-T/H 26 03-03-2017 05:02:17 8.5 C 63 %
27 03-03-2017 05:14:17 8.5 C 63 %
28 03-03-2017 05:26:17 8.5 C 63 %
29 03-03-2017 05:38:17 8.4 C 62 %
30 03-03-2017 05:50:17 8.3 C 62 %
31 03-03-2017 06:02:17 8.3 C 62 %
32 03-03-2017 06:14:17 8.3 C 62 %
33 03-03-2017 06:26:17 8.2 C 62 %
34 03-03-2017 06:38:17 8.2 C 61 %
35 03-03-2017 06:50:17 8.2 C 61 %
36 03-03-2017 07:02:17 8.2 C 61 %
37 03-03-2017 07:14:18 8.1 C 61 %
38 03-03-2017 07:26:17 8.1 C 61 %
39 03-03-2017 07:38:17 8.1 C 61 %
40 03-03-2017 07:50:17 8.1 C 61 %
41 03-03-2017 08:02:17 8.1 C 61 %
42 03-03-2017 08:14:17 8.1 C 61 %
43 03-03-2017 08:26:17 8.1 C 62 %
44 03-03-2017 08:38:17 8.1 C 62 %
45 03-03-2017 08:50:17 8.1 C 62 %
46 03-03-2017 09:02:17 8.1 C 63 %
47 03-03-2017 09:14:17 8.1 C 63 %
48 03-03-2017 09:26:17 8.1 C 63 %
49 03-03-2017 09:38:17 8.1 C 64 %
50 03-03-2017 09:50:17 8.1 C 64 %
Sensor: Nr:Datum:Temp:Feuchte:
G-T/H 51 03-03-2017 10:02:17 8.1 C 64 %
52 03-03-2017 10:14:17 8.1 C 64 %
53 03-03-2017 10:26:17 8.1 C 64 %
54 03-03-2017 10:38:17 8.1 C 64 %
55 03-03-2017 10:50:17 8.1 C 65 %
56 03-03-2017 11:02:17 8.1 C 65 %
57 03-03-2017 11:14:17 8.1 C 65 %
58 03-03-2017 11:26:17 8.1 C 65 %
59 03-03-2017 11:38:17 8.2 C 65 %
60 03-03-2017 11:50:17 8.1 C 65 %
61 03-03-2017 12:02:17 8.2 C 65 %
62 03-03-2017 12:14:17 8.2 C 65 %
63 03-03-2017 12:26:17 8.2 C 65 %
64 03-03-2017 12:38:17 8.2 C 66 %
65 03-03-2017 12:50:17 8.2 C 66 %
66 03-03-2017 13:02:17 8.2 C 66 %
67 03-03-2017 13:14:17 8.3 C 66 %
68 03-03-2017 13:26:17 8.3 C 66 %
69 03-03-2017 13:38:17 8.4 C 66 %
70 03-03-2017 13:50:17 8.4 C 66 %
71 03-03-2017 14:02:17 8.4 C 66 %
72 03-03-2017 14:14:17 8.4 C 66 %
73 03-03-2017 14:26:17 8.4 C 66 %
74 03-03-2017 14:38:17 8.5 C 66 %
75 03-03-2017 14:50:17 8.5 C 66 %
Sensor: Nr:Datum:Temp:Feuchte:
G-T/H 76 03-03-2017 15:02:17 8.5 C 66 %
77 03-03-2017 15:14:17 8.5 C 66 %
78 03-03-2017 15:26:17 8.5 C 66 %
79 03-03-2017 15:38:17 8.6 C 66 %
80 03-03-2017 15:50:17 8.6 C 66 %
81 03-03-2017 16:02:17 8.6 C 66 %
82 03-03-2017 16:14:18 8.6 C 66 %
83 03-03-2017 16:26:17 8.7 C 67 %
84 03-03-2017 16:38:17 8.7 C 67 %
85 03-03-2017 16:50:17 8.7 C 67 %
86 03-03-2017 17:02:17 8.7 C 67 %
87 03-03-2017 17:14:18 8.7 C 67 %
88 03-03-2017 17:26:17 8.7 C 67 %
89 03-03-2017 17:38:17 8.8 C 67 %
90 03-03-2017 17:50:17 8.8 C 67 %
91 03-03-2017 18:02:17 8.8 C 67 %
92 03-03-2017 18:14:17 8.8 C 67 %
93 03-03-2017 18:26:17 8.8 C 67 %
94 03-03-2017 18:38:17 8.8 C 67 %
95 03-03-2017 18:50:17 8.8 C 67 %
96 03-03-2017 19:02:17 8.9 C 67 %
97 03-03-2017 19:14:17 8.9 C 67 %
98 03-03-2017 19:26:17 8.9 C 67 %
99 03-03-2017 19:38:17 8.9 C 67 %
100 03-03-2017 19:50:17 8.9 C 68 %
Sensor: Nr:Datum:Temp:Feuchte:
G-T/H 101 03-03-2017 20:02:17 8.9 C 68 %
102 03-03-2017 20:14:17 8.9 C 68 %
103 03-03-2017 20:26:17 8.9 C 68 %
104 03-03-2017 20:38:17 8.9 C 68 %
105 03-03-2017 20:50:17 8.9 C 68 %
106 03-03-2017 21:02:17 8.9 C 68 %
107 03-03-2017 21:14:17 8.9 C 68 %
108 03-03-2017 21:26:17 8.9 C 68 %
109 03-03-2017 21:38:17 8.9 C 68 %
110 03-03-2017 21:50:17 9 C 67 %
111 03-03-2017 22:02:17 8.9 C 68 %
112 03-03-2017 22:14:17 8.9 C 68 %
113 03-03-2017 22:26:17 9 C 67 %
114 03-03-2017 22:38:17 8.9 C 68 %
115 03-03-2017 22:50:17 8.9 C 68 %
116 03-03-2017 23:02:17 8.9 C 68 %
117 03-03-2017 23:14:17 8.9 C 68 %
118 03-03-2017 23:26:17 8.9 C 68 %
119 03-03-2017 23:38:17 8.9 C 68 %
120 03-03-2017 23:50:17 8.9 C 68 %
121 04-03-2017 00:02:17 8.9 C 68 %
122 04-03-2017 00:14:17 8.9 C 68 %
123 04-03-2017 00:26:17 9 C 67 %
124 04-03-2017 00:38:17 9 C 67 %
125 04-03-2017 00:50:17 8.9 C 68 %
Sensor: Nr:Datum:Temp:Feuchte:
G-T/H 126 04-03-2017 01:02:17 9 C 67 %
127 04-03-2017 01:14:17 8.9 C 68 %
128 04-03-2017 01:26:17 8.9 C 68 %
129 04-03-2017 01:38:17 8.9 C 68 %
130 04-03-2017 01:50:17 8.9 C 68 %
131 04-03-2017 02:02:17 8.9 C 68 %
132 04-03-2017 02:14:17 8.9 C 68 %
133 04-03-2017 02:26:17 8.9 C 68 %
134 04-03-2017 02:38:17 8.9 C 68 %
135 04-03-2017 02:50:17 8.9 C 68 %
136 04-03-2017 03:02:17 8.9 C 69 %
137 04-03-2017 03:14:17 8.9 C 69 %
138 04-03-2017 03:26:17 8.9 C 69 %
139 04-03-2017 03:38:18 8.9 C 69 %
140 04-03-2017 03:50:17 8.9 C 69 %
141 04-03-2017 04:02:17 8.9 C 69 %
142 04-03-2017 04:14:17 8.9 C 69 %
143 04-03-2017 04:26:17 8.9 C 69 %
144 04-03-2017 04:38:17 8.9 C 69 %
145 04-03-2017 04:50:17 8.9 C 69 %
146 04-03-2017 05:02:17 8.9 C 69 %
147 04-03-2017 05:14:17 8.9 C 69 %
148 04-03-2017 05:26:17 8.9 C 69 %
149 04-03-2017 05:38:17 8.9 C 69 %
150 04-03-2017 05:50:17 8.9 C 69 %
Sensor: Nr:Datum:Temp:Feuchte:
G-T/H 151 04-03-2017 06:02:17 8.9 C 69 %
152 04-03-2017 06:14:17 9 C 68 %
153 04-03-2017 06:26:17 9 C 68 %
154 04-03-2017 06:38:17 8.9 C 69 %
155 04-03-2017 06:50:17 8.9 C 69 %
156 04-03-2017 07:02:17 8.9 C 69 %
157 04-03-2017 07:14:17 8.9 C 69 %
158 04-03-2017 07:26:17 8.9 C 69 %
159 04-03-2017 07:38:17 9 C 68 %
160 04-03-2017 07:50:17 9 C 68 %
161 04-03-2017 08:02:17 9 C 68 %
162 04-03-2017 08:14:17 9 C 68 %
163 04-03-2017 08:26:17 9 C 68 %
164 04-03-2017 08:38:17 9 C 68 %
165 04-03-2017 08:50:17 9 C 68 %
166 04-03-2017 09:02:17 9 C 68 %
167 04-03-2017 09:14:17 9 C 68 %
168 04-03-2017 09:26:17 9 C 68 %
169 04-03-2017 09:38:17 9 C 68 %
170 04-03-2017 09:50:17 9 C 68 %
171 04-03-2017 10:02:17 9 C 68 %
172 04-03-2017 10:14:17 9 C 69 %
173 04-03-2017 10:26:17 9.1 C 69 %
174 04-03-2017 10:38:17 9.1 C 69 %
175 04-03-2017 10:50:17 9.1 C 69 %
Sensor: Nr:Datum:Temp:Feuchte:
G-T/H 176 04-03-2017 11:02:17 9.1 C 69 %
177 04-03-2017 11:14:17 9.1 C 69 %
178 04-03-2017 11:26:17 9.1 C 69 %
179 04-03-2017 11:38:17 9.2 C 69 %
180 04-03-2017 11:50:17 9.2 C 69 %
181 04-03-2017 12:02:17 9.2 C 69 %
182 04-03-2017 12:14:17 9.3 C 69 %
183 04-03-2017 12:26:17 9.4 C 69 %
184 04-03-2017 12:38:17 9.4 C 69 %
185 04-03-2017 12:50:17 9.4 C 69 %
186 04-03-2017 13:02:17 9.4 C 69 %
187 04-03-2017 13:14:17 9.4 C 69 %
188 04-03-2017 13:26:17 9.4 C 69 %
189 04-03-2017 13:38:17 9.4 C 69 %
190 04-03-2017 13:50:17 9.5 C 69 %
191 04-03-2017 14:02:17 9.5 C 69 %
192 04-03-2017 14:14:17 9.5 C 69 %
193 04-03-2017 14:26:18 9.5 C 69 %
194 04-03-2017 14:38:17 9.6 C 69 %
195 04-03-2017 14:50:17 9.5 C 69 %
196 04-03-2017 15:02:17 9.5 C 69 %
197 04-03-2017 15:14:17 9.6 C 69 %
198 04-03-2017 15:26:17 9.6 C 69 %
199 04-03-2017 15:38:17 9.6 C 69 %
200 04-03-2017 15:50:17 9.6 C 69 %
Sensor: Nr:Datum:Temp:Feuchte:
G-T/H 201 04-03-2017 16:02:17 10.7 C 65 %
202 04-03-2017 16:14:17 11.2 C 60 %
203 04-03-2017 16:26:17 11.3 C 59 %
204 04-03-2017 16:38:17 11.4 C 58 %
205 04-03-2017 16:50:16 11.6 C 58 %
206 04-03-2017 17:02:17 11.6 C 58 %
207 04-03-2017 17:14:17 11.8 C 60 %
208 04-03-2017 17:26:18 11.7 C 61 %
209 04-03-2017 17:38:17 11.5 C 61 %
210 04-03-2017 17:50:17 11.4 C 62 %
211 04-03-2017 18:02:17 11.4 C 62 %
212 04-03-2017 18:14:17 11.3 C 63 %
213 04-03-2017 18:26:17 11.3 C 63 %
214 04-03-2017 18:38:17 11.2 C 63 %
215 04-03-2017 18:50:17 11.1 C 64 %
216 04-03-2017 19:02:17 11.1 C 64 %
217 04-03-2017 19:14:17 11 C 64 %
218 04-03-2017 19:26:17 11 C 64 %
219 04-03-2017 19:38:17 11 C 64 %
220 04-03-2017 19:50:17 11 C 65 %
221 04-03-2017 20:02:17 10.9 C 66 %
222 04-03-2017 20:14:17 10.9 C 66 %
223 04-03-2017 20:26:17 10.9 C 66 %
224 04-03-2017 20:38:17 10.8 C 66 %
225 04-03-2017 20:50:17 10.8 C 66 %
Sensor: Nr:Datum:Temp:Feuchte:
G-T/H 226 04-03-2017 21:02:17 10.7 C 66 %
227 04-03-2017 21:14:17 10.8 C 66 %
228 04-03-2017 21:26:17 10.8 C 66 %
229 04-03-2017 21:38:17 10.7 C 67 %
230 04-03-2017 21:50:17 10.7 C 67 %
231 04-03-2017 22:02:17 10.7 C 67 %
232 04-03-2017 22:14:17 10.6 C 67 %
233 04-03-2017 22:26:17 10.7 C 67 %
234 04-03-2017 22:38:17 10.6 C 67 %
235 04-03-2017 22:50:17 10.6 C 67 %
236 04-03-2017 23:02:17 10.6 C 67 %
237 04-03-2017 23:14:17 10.6 C 67 %
238 04-03-2017 23:26:17 10.5 C 67 %
239 04-03-2017 23:38:17 10.5 C 67 %
240 04-03-2017 23:50:17 10.5 C 67 %
241 05-03-2017 00:02:17 10.5 C 68 %
242 05-03-2017 00:14:17 10.5 C 68 %
243 05-03-2017 00:26:18 10.5 C 68 %
244 05-03-2017 00:38:17 10.5 C 68 %
245 05-03-2017 00:50:17 10.5 C 68 %
246 05-03-2017 01:02:17 10.4 C 68 %
247 05-03-2017 01:14:17 10.4 C 68 %
248 05-03-2017 01:26:17 10.4 C 68 %
249 05-03-2017 01:38:17 10.4 C 68 %
250 05-03-2017 01:50:17 10.4 C 68 %
Sensor: Nr:Datum:Temp:Feuchte:
G-T/H 251 05-03-2017 02:02:17 10.3 C 68 %
252 05-03-2017 02:14:17 10.3 C 68 %
253 05-03-2017 02:26:17 10.3 C 68 %
254 05-03-2017 02:38:17 10.3 C 68 %
255 05-03-2017 02:50:17 10.3 C 68 %
256 05-03-2017 03:02:17 10.3 C 68 %
257 05-03-2017 03:14:17 10.2 C 68 %
258 05-03-2017 03:26:17 10.2 C 68 %
259 05-03-2017 03:38:17 10.2 C 68 %
260 05-03-2017 03:50:17 10.2 C 68 %
261 05-03-2017 04:02:17 10.2 C 68 %
262 05-03-2017 04:14:17 10.2 C 68 %
263 05-03-2017 04:26:17 10.1 C 68 %
264 05-03-2017 04:38:18 10.1 C 68 %
265 05-03-2017 04:50:17 10.1 C 68 %
266 05-03-2017 05:02:17 10.1 C 68 %
267 05-03-2017 05:14:17 10.1 C 68 %
268 05-03-2017 05:26:17 10.1 C 68 %
269 05-03-2017 05:38:18 10.1 C 68 %
270 05-03-2017 05:50:17 10.1 C 68 %
271 05-03-2017 06:02:18 10.1 C 68 %
272 05-03-2017 06:14:18 10 C 68 %
273 05-03-2017 06:26:16 10 C 68 %
274 05-03-2017 06:38:17 10 C 68 %
275 05-03-2017 06:50:17 10 C 68 %
Sensor: Nr:Datum:Temp:Feuchte:
G-T/H 276 05-03-2017 07:02:17 10 C 68 %
277 05-03-2017 07:14:17 10 C 68 %
278 05-03-2017 07:26:17 10 C 68 %
279 05-03-2017 07:38:17 10 C 68 %
280 05-03-2017 07:50:17 9.9 C 69 %
281 05-03-2017 08:02:17 9.9 C 69 %
282 05-03-2017 08:14:17 9.9 C 69 %
283 05-03-2017 08:26:17 9.9 C 69 %
284 05-03-2017 08:38:18 9.9 C 69 %
285 05-03-2017 08:50:17 9.8 C 69 %
286 05-03-2017 09:02:17 9.8 C 69 %
287 05-03-2017 09:14:17 9.8 C 69 %
288 05-03-2017 09:26:17 9.8 C 69 %
289 05-03-2017 09:38:17 9.8 C 69 %
290 05-03-2017 09:50:17 9.8 C 69 %
291 05-03-2017 10:02:17 9.7 C 69 %
292 05-03-2017 10:14:17 9.8 C 69 %
293 05-03-2017 10:26:17 9.8 C 69 %
294 05-03-2017 10:38:17 9.8 C 69 %
295 05-03-2017 10:50:17 9.8 C 69 %
296 05-03-2017 11:02:17 9.8 C 69 %
297 05-03-2017 11:14:17 9.8 C 69 %
298 05-03-2017 11:26:17 9.7 C 69 %
299 05-03-2017 11:38:17 9.8 C 69 %
300 05-03-2017 11:50:17 9.8 C 69 %
Sensor: Nr:Datum:Temp:Feuchte:
G-T/H 301 05-03-2017 12:02:17 9.8 C 69 %
302 05-03-2017 12:14:17 9.8 C 69 %
303 05-03-2017 12:26:17 9.8 C 69 %
304 05-03-2017 12:38:17 9.8 C 69 %
305 05-03-2017 12:50:17 9.8 C 69 %
306 05-03-2017 13:02:17 9.6 C 69 %
307 05-03-2017 13:14:17 9.5 C 68 %
308 05-03-2017 13:26:17 9.6 C 68 %
309 05-03-2017 13:38:17 9.6 C 68 %
310 05-03-2017 13:50:17 9.7 C 68 %
311 05-03-2017 14:02:17 9.7 C 68 %
312 05-03-2017 14:14:17 9.8 C 68 %
313 05-03-2017 14:26:17 9.8 C 68 %
314 05-03-2017 14:38:17 9.8 C 68 %
315 05-03-2017 14:50:17 9.8 C 68 %
316 05-03-2017 15:02:17 9.8 C 68 %
317 05-03-2017 15:14:17 9.8 C 68 %
318 05-03-2017 15:26:17 9.8 C 68 %
319 05-03-2017 15:38:17 9.8 C 68 %
320 05-03-2017 15:50:17 9.8 C 68 %
321 05-03-2017 16:02:17 9.8 C 68 %
322 05-03-2017 16:14:17 9.8 C 68 %
323 05-03-2017 16:26:17 9.8 C 68 %
324 05-03-2017 16:38:17 9.8 C 68 %
325 05-03-2017 16:50:17 9.8 C 68 %
Sensor: Nr:Datum:Temp:Feuchte:
G-T/H 326 05-03-2017 17:02:17 9.8 C 69 %
327 05-03-2017 17:14:17 9.8 C 69 %
328 05-03-2017 17:26:17 9.8 C 69 %
329 05-03-2017 17:38:17 9.8 C 69 %
330 05-03-2017 17:50:17 9.8 C 69 %
331 05-03-2017 18:03:17 9.8 C 69 %
332 05-03-2017 18:14:17 9.8 C 69 %
333 05-03-2017 18:26:17 9.7 C 69 %
334 05-03-2017 18:38:17 9.8 C 69 %
335 05-03-2017 18:50:17 9.8 C 69 %
336 05-03-2017 19:14:17 9.8 C 69 %
337 05-03-2017 19:14:17 9.8 C 69 %
338 05-03-2017 19:26:17 9.8 C 69 %
339 05-03-2017 19:38:17 9.8 C 69 %
340 05-03-2017 19:50:17 9.7 C 69 %
341 05-03-2017 20:03:17 9.7 C 69 %
342 05-03-2017 20:14:17 9.7 C 69 %
343 05-03-2017 20:26:17 9.7 C 69 %
344 05-03-2017 20:38:17 9.7 C 69 %
345 05-03-2017 20:50:17 9.7 C 69 %
346 05-03-2017 21:02:17 9.7 C 69 %
347 05-03-2017 21:14:17 9.7 C 69 %
348 05-03-2017 21:26:17 9.7 C 69 %
349 05-03-2017 21:38:17 9.7 C 69 %
350 05-03-2017 21:51:17 9.7 C 69 %
Sensor: Nr:Datum:Temp:Feuchte:
G-T/H 351 05-03-2017 22:03:17 9.6 C 69 %
352 05-03-2017 22:14:17 9.7 C 69 %
353 05-03-2017 22:26:17 9.6 C 69 %
354 05-03-2017 22:39:17 9.6 C 69 %
355 05-03-2017 22:50:17 9.6 C 69 %
356 05-03-2017 23:02:17 9.6 C 69 %
357 05-03-2017 23:14:17 9.6 C 69 %
358 05-03-2017 23:27:17 9.6 C 69 %
359 05-03-2017 23:38:17 9.6 C 69 %
360 05-03-2017 23:51:17 9.6 C 69 %
361 06-03-2017 00:14:17 9.6 C 69 %
362 06-03-2017 00:15:17 9.6 C 69 %
363 06-03-2017 00:27:17 9.5 C 69 %
364 06-03-2017 00:39:17 9.5 C 69 %
365 06-03-2017 00:50:17 9.5 C 69 %
366 06-03-2017 01:02:18 9.5 C 69 %
367 06-03-2017 01:14:18 9.5 C 69 %
368 06-03-2017 01:26:17 9.5 C 69 %
369 06-03-2017 01:38:18 9.4 C 69 %
370 06-03-2017 01:51:17 9.4 C 69 %
371 06-03-2017 02:03:17 9.4 C 69 %
372 06-03-2017 02:14:17 9.4 C 69 %
373 06-03-2017 02:26:17 9.3 C 69 %
374 06-03-2017 02:38:18 9.3 C 69 %
375 06-03-2017 02:51:17 9.3 C 69 %
Sensor: Nr:Datum:Temp:Feuchte:
G-T/H 376 06-03-2017 03:03:17 9.4 C 69 %
377 06-03-2017 03:15:17 9.3 C 69 %
378 06-03-2017 03:27:17 9.3 C 69 %
379 06-03-2017 03:39:17 9.3 C 69 %
380 06-03-2017 03:51:18 9.3 C 69 %
381 06-03-2017 04:03:17 9.3 C 69 %
382 06-03-2017 04:15:17 9.3 C 69 %
383 06-03-2017 04:27:17 9.3 C 69 %
384 06-03-2017 04:39:17 9.3 C 69 %
385 06-03-2017 04:51:17 9.3 C 69 %
386 06-03-2017 05:03:17 9.2 C 69 %
387 06-03-2017 05:15:18 9.2 C 69 %
388 06-03-2017 05:27:18 9.2 C 69 %
389 06-03-2017 05:39:17 9.2 C 69 %
390 06-03-2017 05:51:17 9.2 C 69 %
391 06-03-2017 06:03:17 9.2 C 69 %
392 06-03-2017 06:15:17 9.2 C 69 %
393 06-03-2017 06:27:17 9.2 C 69 %
394 06-03-2017 06:39:17 9.2 C 69 %
395 06-03-2017 06:51:17 9.2 C 69 %
396 06-03-2017 07:03:17 9.1 C 69 %
397 06-03-2017 07:15:17 9.1 C 69 %
398 06-03-2017 07:27:17 9.1 C 69 %
399 06-03-2017 07:39:17 9.1 C 69 %
400 06-03-2017 07:51:17 9.1 C 69 %
Sensor: Nr:Datum:Temp:Feuchte:
G-T/H 401 06-03-2017 08:03:17 9.1 C 69 %
402 06-03-2017 08:15:17 9.1 C 69 %
403 06-03-2017 08:27:17 9.1 C 69 %
404 06-03-2017 08:39:17 9.1 C 69 %
405 06-03-2017 08:51:17 9.1 C 69 %
406 06-03-2017 09:03:17 9.1 C 69 %
407 06-03-2017 09:15:17 9.1 C 69 %
408 06-03-2017 09:27:17 9 C 69 %
409 06-03-2017 09:39:16 9.1 C 69 %
410 06-03-2017 09:51:17 9 C 69 %
411 06-03-2017 10:03:18 9.1 C 69 %
412 06-03-2017 10:15:17 9 C 69 %
413 06-03-2017 10:27:17 9.1 C 69 %
414 06-03-2017 10:39:17 9 C 69 %
415 06-03-2017 10:51:17 9 C 69 %
416 06-03-2017 11:03:17 9 C 69 %
417 06-03-2017 11:15:17 9 C 69 %
418 06-03-2017 11:27:17 9 C 69 %
419 06-03-2017 11:39:17 9 C 69 %
420 06-03-2017 11:51:17 9 C 69 %
421 06-03-2017 12:03:17 9.1 C 69 %
422 06-03-2017 12:15:17 9 C 69 %
423 06-03-2017 12:27:17 9 C 69 %
424 06-03-2017 12:39:17 9 C 69 %
425 06-03-2017 12:51:17 9 C 69 %
Sensor: Nr:Datum:Temp:Feuchte:
G-T/H 426 06-03-2017 13:03:16 9 C 69 %
427 06-03-2017 13:15:17 9.1 C 69 %
428 06-03-2017 13:27:17 9.1 C 69 %
429 06-03-2017 13:39:17 9.1 C 70 %
430 06-03-2017 13:51:17 9.1 C 70 %
431 06-03-2017 14:03:16 9.1 C 70 %
432 06-03-2017 14:15:17 9.1 C 70 %
433 06-03-2017 14:27:17 9.1 C 70 %
434 06-03-2017 14:39:16 9.1 C 70 %
435 06-03-2017 14:51:16 9.1 C 70 %
436 06-03-2017 15:03:16 9.1 C 70 %
437 06-03-2017 15:15:17 9.1 C 70 %
438 06-03-2017 15:27:17 9.2 C 70 %
439 06-03-2017 15:39:17 9.1 C 70 %
440 06-03-2017 15:51:17 9.2 C 70 %
441 06-03-2017 16:03:17 9.1 C 70 %
442 06-03-2017 16:15:16 9.2 C 70 %
443 06-03-2017 16:27:16 9.2 C 70 %
444 06-03-2017 16:39:16 9.2 C 70 %
445 06-03-2017 16:51:17 9.2 C 70 %
446 06-03-2017 17:03:17 9.2 C 70 %
447 06-03-2017 17:15:16 9.2 C 70 %
448 06-03-2017 17:27:16 9.2 C 70 %
449 06-03-2017 17:39:16 9.2 C 70 %
450 06-03-2017 17:51:17 9.2 C 70 %
Sensor: Nr:Datum:Temp:Feuchte:
G-T/H 451 06-03-2017 18:03:17 9.2 C 70 %
452 06-03-2017 18:15:16 9.2 C 70 %
453 06-03-2017 18:27:16 9.2 C 70 %
454 06-03-2017 18:39:17 9.2 C 70 %
455 06-03-2017 18:51:17 9.2 C 70 %
456 06-03-2017 19:03:16 9.1 C 70 %
457 06-03-2017 19:15:17 9.2 C 70 %
458 06-03-2017 19:27:17 9.2 C 70 %
459 06-03-2017 19:39:16 9.1 C 70 %
460 06-03-2017 19:51:16 9.1 C 70 %
461 06-03-2017 20:03:16 9.1 C 70 %
462 06-03-2017 20:15:17 9.1 C 70 %
463 06-03-2017 20:27:17 9.2 C 70 %
464 06-03-2017 20:39:17 9.2 C 70 %
465 06-03-2017 20:51:16 9.1 C 70 %
466 06-03-2017 21:03:17 9.2 C 70 %
467 06-03-2017 21:15:16 9.2 C 70 %
468 06-03-2017 21:27:16 9.1 C 70 %
469 06-03-2017 21:39:16 9.2 C 70 %
470 06-03-2017 21:51:16 9.2 C 70 %
471 06-03-2017 22:03:16 9.2 C 70 %
472 06-03-2017 22:15:16 9.1 C 70 %
473 06-03-2017 22:27:16 9.1 C 70 %
474 06-03-2017 22:39:16 9.1 C 70 %
475 06-03-2017 22:51:16 9.1 C 70 %
Sensor: Nr:Datum:Temp:Feuchte:
G-T/H 476 06-03-2017 23:03:16 9.1 C 70 %
477 06-03-2017 23:15:16 9.1 C 70 %
478 06-03-2017 23:27:16 9.1 C 70 %
479 06-03-2017 23:39:16 9.1 C 70 %
480 06-03-2017 23:51:16 9.1 C 70 %
481 07-03-2017 00:03:16 9.1 C 70 %
482 07-03-2017 00:15:16 9.1 C 70 %
483 07-03-2017 00:27:16 9.1 C 70 %
484 07-03-2017 00:39:16 9.1 C 70 %
485 07-03-2017 00:51:16 9.1 C 70 %
486 07-03-2017 01:03:17 9.1 C 70 %
487 07-03-2017 01:15:16 9.1 C 70 %
488 07-03-2017 01:27:16 9.1 C 70 %
489 07-03-2017 01:39:16 9.1 C 70 %
490 07-03-2017 01:51:16 9.1 C 70 %
491 07-03-2017 02:03:16 9.1 C 70 %
492 07-03-2017 02:15:16 9.1 C 70 %
493 07-03-2017 02:27:17 9.1 C 70 %
494 07-03-2017 02:39:16 9 C 70 %
495 07-03-2017 02:51:17 9 C 70 %
496 07-03-2017 03:03:17 9 C 70 %
497 07-03-2017 03:15:17 9 C 70 %
498 07-03-2017 03:27:17 9 C 70 %
499 07-03-2017 03:39:17 9 C 70 %
500 07-03-2017 03:51:17 9 C 70 %
Sensor: Nr:Datum:Temp:Feuchte:
G-T/H 501 07-03-2017 04:03:17 9 C 70 %
502 07-03-2017 04:15:17 9 C 70 %
503 07-03-2017 04:27:17 9 C 70 %
504 07-03-2017 04:39:17 9 C 70 %
505 07-03-2017 04:51:17 9 C 70 %
506 07-03-2017 05:03:17 9 C 70 %
507 07-03-2017 05:15:17 9 C 70 %
508 07-03-2017 05:27:17 9 C 70 %
509 07-03-2017 05:39:17 9 C 70 %
510 07-03-2017 05:51:17 9 C 70 %
511 07-03-2017 06:03:17 9 C 70 %
512 07-03-2017 06:15:17 9 C 70 %
513 07-03-2017 06:27:17 9 C 70 %
514 07-03-2017 06:39:17 8.9 C 71 %
515 07-03-2017 06:51:17 8.9 C 71 %
516 07-03-2017 07:03:17 8.9 C 71 %
517 07-03-2017 07:15:17 8.9 C 71 %
518 07-03-2017 07:27:17 8.9 C 71 %
519 07-03-2017 07:39:17 8.9 C 71 %
520 07-03-2017 07:51:17 8.9 C 71 %
521 07-03-2017 08:03:17 8.9 C 71 %
522 07-03-2017 08:15:17 8.9 C 71 %
523 07-03-2017 08:27:17 8.9 C 71 %
524 07-03-2017 08:39:17 8.9 C 71 %
525 07-03-2017 08:51:17 8.9 C 71 %
Sensor: Nr:Datum:Temp:Feuchte:
G-T/H 526 07-03-2017 09:03:17 8.9 C 71 %
527 07-03-2017 09:15:17 8.9 C 71 %
528 07-03-2017 09:27:17 8.9 C 71 %
529 07-03-2017 09:39:17 8.9 C 71 %
530 07-03-2017 09:51:17 8.9 C 71 %
531 07-03-2017 10:03:17 8.9 C 71 %
532 07-03-2017 10:15:17 8.9 C 71 %
533 07-03-2017 10:27:17 8.9 C 71 %
534 07-03-2017 10:39:17 8.9 C 71 %
535 07-03-2017 10:51:17 8.9 C 71 %
536 07-03-2017 11:03:17 8.9 C 71 %
537 07-03-2017 11:15:17 8.9 C 71 %
538 07-03-2017 11:27:17 8.9 C 71 %
539 07-03-2017 11:39:17 8.9 C 71 %
540 07-03-2017 11:51:17 8.9 C 71 %
541 07-03-2017 12:03:17 8.9 C 71 %
542 07-03-2017 12:15:17 8.9 C 71 %
543 07-03-2017 12:27:17 8.9 C 71 %
544 07-03-2017 12:39:17 8.9 C 71 %
545 07-03-2017 12:51:17 8.9 C 71 %
546 07-03-2017 13:03:17 8.9 C 71 %
547 07-03-2017 13:15:17 8.9 C 71 %
548 07-03-2017 13:27:17 8.9 C 71 %
549 07-03-2017 13:39:17 8.9 C 71 %
550 07-03-2017 13:51:17 9 C 71 %
Sensor: Nr:Datum:Temp:Feuchte:
G-T/H 551 07-03-2017 14:03:17 9 C 71 %
552 07-03-2017 14:15:17 9 C 71 %
553 07-03-2017 14:27:17 9 C 71 %
554 07-03-2017 14:39:17 9 C 70 %
555 07-03-2017 14:51:17 9 C 70 %
556 07-03-2017 15:03:17 9 C 71 %
557 07-03-2017 15:15:17 9 C 71 %
558 07-03-2017 15:27:17 9 C 71 %
559 07-03-2017 15:39:17 9 C 71 %
560 07-03-2017 15:51:17 9 C 71 %
561 07-03-2017 16:03:17 9 C 71 %
562 07-03-2017 16:15:17 9 C 71 %
563 07-03-2017 16:27:17 9 C 71 %
564 07-03-2017 16:39:17 9 C 71 %
565 07-03-2017 16:51:17 9 C 71 %
566 07-03-2017 17:03:17 9 C 71 %
567 07-03-2017 17:15:17 9 C 71 %
568 07-03-2017 17:27:17 9 C 71 %
569 07-03-2017 17:39:17 9 C 71 %
570 07-03-2017 17:51:17 9 C 71 %
571 07-03-2017 18:03:17 9 C 71 %
572 07-03-2017 18:15:17 9 C 71 %
573 07-03-2017 18:27:17 9 C 71 %
574 07-03-2017 18:39:17 9 C 71 %
575 07-03-2017 18:51:17 9 C 71 %
Sensor: Nr:Datum:Temp:Feuchte:
G-T/H 576 07-03-2017 19:03:17 9 C 71 %
577 07-03-2017 19:15:17 9 C 71 %
578 07-03-2017 19:27:17 9 C 71 %
579 07-03-2017 19:39:17 9 C 71 %
580 07-03-2017 19:51:17 9 C 71 %
581 07-03-2017 20:03:17 9 C 71 %
582 07-03-2017 20:15:17 9 C 71 %
583 07-03-2017 20:27:17 9 C 71 %
584 07-03-2017 20:39:17 9 C 71 %
585 07-03-2017 20:51:17 9 C 71 %
586 07-03-2017 21:03:17 9 C 71 %
587 07-03-2017 21:15:17 9 C 71 %
588 07-03-2017 21:27:17 9 C 71 %
589 07-03-2017 21:39:17 9 C 71 %
590 07-03-2017 21:51:17 9 C 71 %
591 07-03-2017 22:03:17 9 C 71 %
592 07-03-2017 22:15:17 9 C 71 %
593 07-03-2017 22:27:17 9 C 71 %
594 07-03-2017 22:39:18 9 C 71 %
595 07-03-2017 22:51:17 9 C 71 %
596 07-03-2017 23:03:17 8.9 C 72 %
597 07-03-2017 23:15:17 9 C 71 %
598 07-03-2017 23:27:17 8.9 C 72 %
599 07-03-2017 23:39:17 9 C 71 %
600 07-03-2017 23:51:16 8.9 C 72 %
Sensor: Nr:Datum:Temp:Feuchte:
G-T/H 601 08-03-2017 00:03:18 8.9 C 72 %
602 08-03-2017 00:15:17 8.9 C 72 %
603 08-03-2017 00:27:17 8.9 C 72 %
604 08-03-2017 00:39:17 8.9 C 72 %
605 08-03-2017 00:51:17 8.9 C 72 %
606 08-03-2017 01:03:17 8.9 C 72 %
607 08-03-2017 01:15:17 8.8 C 72 %
608 08-03-2017 01:27:17 8.8 C 72 %
609 08-03-2017 01:39:17 8.8 C 72 %
610 08-03-2017 01:51:17 8.8 C 71 %
611 08-03-2017 02:03:18 8.8 C 71 %
612 08-03-2017 02:15:17 8.8 C 71 %
613 08-03-2017 02:27:17 8.8 C 71 %
614 08-03-2017 02:39:17 8.8 C 71 %
615 08-03-2017 02:51:17 8.7 C 71 %
616 08-03-2017 03:03:17 8.7 C 71 %
617 08-03-2017 03:15:17 8.7 C 71 %
618 08-03-2017 03:27:17 8.7 C 71 %
619 08-03-2017 03:39:17 8.7 C 71 %
620 08-03-2017 03:51:17 8.7 C 71 %
621 08-03-2017 04:03:17 8.7 C 71 %
622 08-03-2017 04:15:17 8.6 C 71 %
623 08-03-2017 04:27:17 8.5 C 70 %
624 08-03-2017 04:39:17 8.5 C 70 %
625 08-03-2017 04:51:17 8.4 C 70 %
Sensor: Nr:Datum:Temp:Feuchte:
G-T/H 626 08-03-2017 05:03:17 8.3 C 69 %
627 08-03-2017 05:15:17 8.3 C 69 %
628 08-03-2017 05:27:17 8.3 C 69 %
629 08-03-2017 05:39:17 8.2 C 68 %
630 08-03-2017 05:51:17 8.2 C 68 %
631 08-03-2017 06:03:17 8.1 C 68 %
632 08-03-2017 06:15:17 8.1 C 68 %
633 08-03-2017 06:27:17 8.1 C 67 %
634 08-03-2017 06:39:17 8.1 C 67 %
635 08-03-2017 06:51:17 8 C 67 %
636 08-03-2017 07:03:17 8 C 67 %
637 08-03-2017 07:15:17 8 C 67 %
638 08-03-2017 07:27:17 8 C 67 %
639 08-03-2017 07:39:17 8 C 67 %
640 08-03-2017 07:51:17 7.9 C 68 %
641 08-03-2017 08:03:17 7.9 C 68 %
642 08-03-2017 08:15:17 8 C 67 %
643 08-03-2017 08:27:17 8 C 67 %
644 08-03-2017 08:39:17 8 C 68 %
645 08-03-2017 08:51:17 8 C 68 %
646 08-03-2017 09:03:17 8 C 68 %
647 08-03-2017 09:15:17 8 C 68 %
648 08-03-2017 09:27:17 8 C 68 %
649 08-03-2017 09:39:17 8 C 68 %
650 08-03-2017 09:51:17 8 C 68 %
Sensor: Nr:Datum:Temp:Feuchte:
G-T/H 651 08-03-2017 10:03:17 8.1 C 69 %
652 08-03-2017 10:15:17 8.1 C 69 %
653 08-03-2017 10:27:17 8.1 C 69 %
654 08-03-2017 10:39:17 8.1 C 69 %
655 08-03-2017 10:51:17 8.1 C 69 %
656 08-03-2017 11:03:17 8.1 C 69 %
657 08-03-2017 11:15:17 8.1 C 69 %
658 08-03-2017 11:27:17 8.1 C 69 %
659 08-03-2017 11:39:17 8.1 C 69 %
660 08-03-2017 11:51:17 8.1 C 70 %
661 08-03-2017 12:03:17 8.1 C 70 %
662 08-03-2017 12:15:17 8.1 C 70 %
663 08-03-2017 12:27:17 8.1 C 70 %
664 08-03-2017 12:39:17 8.1 C 70 %
665 08-03-2017 12:51:17 8.1 C 70 %
666 08-03-2017 13:03:17 8.1 C 70 %
667 08-03-2017 13:15:17 8.1 C 70 %
668 08-03-2017 13:27:17 8.1 C 70 %
669 08-03-2017 13:39:17 8.1 C 70 %
670 08-03-2017 13:51:17 8.1 C 70 %
671 08-03-2017 14:03:17 8.1 C 70 %
672 08-03-2017 14:15:17 8.1 C 70 %
673 08-03-2017 14:27:17 8.1 C 70 %
674 08-03-2017 14:39:17 8.1 C 70 %
675 08-03-2017 14:51:17 8.1 C 70 %
Sensor: Nr:Datum:Temp:Feuchte:
G-T/H 676 08-03-2017 15:03:17 8.1 C 70 %
677 08-03-2017 15:15:17 8.1 C 70 %
678 08-03-2017 15:27:17 8.1 C 70 %
679 08-03-2017 15:39:17 8.1 C 70 %
680 08-03-2017 15:51:17 8.1 C 70 %
681 08-03-2017 16:03:17 8.1 C 70 %
682 08-03-2017 16:15:17 8.1 C 71 %
683 08-03-2017 16:27:17 8.2 C 71 %
684 08-03-2017 16:39:17 8.2 C 71 %
685 08-03-2017 16:51:17 8.1 C 71 %
686 08-03-2017 17:03:17 8.1 C 71 %
687 08-03-2017 17:15:17 8.1 C 71 %
688 08-03-2017 17:27:17 8.2 C 71 %
689 08-03-2017 17:39:18 8.2 C 71 %
690 08-03-2017 17:51:17 8.2 C 71 %
691 08-03-2017 18:03:17 8.2 C 71 %
692 08-03-2017 18:15:17 8.2 C 71 %
693 08-03-2017 18:27:17 8.2 C 71 %
694 08-03-2017 18:39:17 8.2 C 71 %
695 08-03-2017 18:51:17 8.2 C 71 %
696 08-03-2017 19:03:17 8.2 C 71 %
697 08-03-2017 19:15:17 8.2 C 71 %
698 08-03-2017 19:27:18 8.2 C 71 %
699 08-03-2017 19:39:17 8.3 C 71 %
700 08-03-2017 19:51:17 8.3 C 71 %
Sensor: Nr:Datum:Temp:Feuchte:
G-T/H 701 08-03-2017 20:03:17 8.3 C 71 %
702 08-03-2017 20:15:18 8.3 C 71 %
703 08-03-2017 20:27:18 8.3 C 71 %
704 08-03-2017 20:39:17 8.3 C 71 %
705 08-03-2017 20:51:17 8.3 C 71 %
706 08-03-2017 21:03:17 8.3 C 71 %
707 08-03-2017 21:15:17 8.3 C 71 %
708 08-03-2017 21:27:17 8.3 C 71 %
709 08-03-2017 21:39:17 8.4 C 71 %
710 08-03-2017 21:51:17 8.3 C 72 %
711 08-03-2017 22:03:17 8.3 C 72 %
712 08-03-2017 22:15:17 8.4 C 72 %
713 08-03-2017 22:27:17 8.4 C 72 %
714 08-03-2017 22:39:17 8.4 C 72 %
715 08-03-2017 22:51:17 8.4 C 72 %
716 08-03-2017 23:03:18 8.4 C 72 %
717 08-03-2017 23:15:17 8.4 C 72 %
718 08-03-2017 23:27:17 8.4 C 72 %
719 08-03-2017 23:39:17 8.4 C 72 %
720 08-03-2017 23:51:17 8.5 C 72 %
721 09-03-2017 00:03:17 8.5 C 72 %
722 09-03-2017 00:15:17 8.5 C 72 %
723 09-03-2017 00:27:17 8.5 C 72 %
724 09-03-2017 00:39:17 8.5 C 72 %
725 09-03-2017 00:51:17 8.5 C 72 %
Sensor: Nr:Datum:Temp:Feuchte:
G-T/H 726 09-03-2017 01:03:17 8.5 C 72 %
727 09-03-2017 01:15:17 8.5 C 72 %
728 09-03-2017 01:27:17 8.5 C 72 %
729 09-03-2017 01:39:17 8.5 C 72 %
730 09-03-2017 01:51:17 8.5 C 72 %
731 09-03-2017 02:03:17 8.5 C 72 %
732 09-03-2017 02:15:17 8.5 C 72 %
733 09-03-2017 02:27:17 8.5 C 72 %
734 09-03-2017 02:39:17 8.5 C 72 %
735 09-03-2017 02:51:17 8.6 C 72 %
736 09-03-2017 03:03:17 8.6 C 72 %
737 09-03-2017 03:15:17 8.6 C 72 %
738 09-03-2017 03:27:17 8.6 C 72 %
739 09-03-2017 03:39:17 8.6 C 72 %
740 09-03-2017 03:51:17 8.6 C 72 %
741 09-03-2017 04:03:17 8.6 C 72 %
742 09-03-2017 04:15:17 8.6 C 72 %
743 09-03-2017 04:27:17 8.6 C 72 %
744 09-03-2017 04:39:17 8.7 C 72 %
745 09-03-2017 04:51:17 8.6 C 73 %
746 09-03-2017 05:03:17 8.7 C 73 %
747 09-03-2017 05:15:17 8.6 C 73 %
748 09-03-2017 05:27:17 8.7 C 73 %
749 09-03-2017 05:39:17 8.7 C 73 %
750 09-03-2017 05:51:17 8.7 C 73 %
Sensor: Nr:Datum:Temp:Feuchte:
G-T/H 751 09-03-2017 06:03:17 8.7 C 73 %
752 09-03-2017 06:15:17 8.7 C 73 %
753 09-03-2017 06:27:17 8.7 C 73 %
754 09-03-2017 06:39:17 8.7 C 73 %
755 09-03-2017 06:51:17 8.7 C 73 %
756 09-03-2017 07:03:17 8.7 C 73 %
757 09-03-2017 07:15:17 8.7 C 73 %
758 09-03-2017 07:27:17 8.8 C 73 %
759 09-03-2017 07:39:17 8.8 C 73 %
760 09-03-2017 07:51:17 8.8 C 73 %
761 09-03-2017 08:03:17 8.8 C 73 %
762 09-03-2017 08:15:17 8.8 C 73 %
763 09-03-2017 08:27:17 8.8 C 73 %
764 09-03-2017 08:39:17 8.8 C 73 %
765 09-03-2017 08:51:17 8.8 C 73 %
766 09-03-2017 09:03:17 8.8 C 73 %
767 09-03-2017 09:15:17 8.8 C 73 %
768 09-03-2017 09:27:17 8.8 C 73 %
769 09-03-2017 09:39:17 8.9 C 73 %
770 09-03-2017 09:51:17 8.9 C 73 %
771 09-03-2017 10:03:17 8.9 C 73 %
772 09-03-2017 10:15:17 8.9 C 73 %
773 09-03-2017 10:27:17 9 C 72 %
774 09-03-2017 10:39:17 9 C 72 %
775 09-03-2017 10:51:17 9 C 72 %
Sensor: Nr:Datum:Temp:Feuchte:
G-T/H 776 09-03-2017 11:03:17 9 C 72 %
777 09-03-2017 11:15:17 9.1 C 72 %
778 09-03-2017 11:27:17 9.1 C 72 %
779 09-03-2017 11:39:17 9.1 C 72 %
780 09-03-2017 11:51:17 9.1 C 72 %
781 09-03-2017 12:03:17 9.1 C 72 %
782 09-03-2017 12:15:16 9.2 C 73 %
783 09-03-2017 12:27:17 9.2 C 73 %
784 09-03-2017 12:39:17 9.2 C 73 %
785 09-03-2017 12:51:17 9.2 C 73 %
786 09-03-2017 13:03:17 9.2 C 73 %
787 09-03-2017 13:15:17 9.2 C 73 %
788 09-03-2017 13:27:17 9.3 C 73 %
789 09-03-2017 13:39:17 9.3 C 73 %
790 09-03-2017 13:51:17 9.3 C 73 %
791 09-03-2017 14:03:17 9.3 C 73 %
792 09-03-2017 14:15:17 9.4 C 73 %
793 09-03-2017 14:27:18 9.4 C 73 %
794 09-03-2017 14:39:17 9.4 C 73 %
795 09-03-2017 14:51:17 9.5 C 73 %
796 09-03-2017 15:03:17 9.5 C 73 %
797 09-03-2017 15:15:18 9.5 C 73 %
798 09-03-2017 15:27:18 9.5 C 73 %
799 09-03-2017 15:39:17 9.5 C 73 %
800 09-03-2017 15:51:17 9.6 C 73 %
Sensor: Nr:Datum:Temp:Feuchte:
G-T/H 801 09-03-2017 16:03:17 9.6 C 73 %
802 09-03-2017 16:15:17 9.6 C 73 %
803 09-03-2017 16:27:17 9.6 C 73 %
804 09-03-2017 16:39:17 9.6 C 73 %
805 09-03-2017 16:51:17 10.5 C 71 %
806 09-03-2017 17:03:17 10.7 C 69 %
807 09-03-2017 17:15:17 11 C 67 %
808 09-03-2017 17:27:17 11.2 C 66 %
809 09-03-2017 17:39:17 11.3 C 66 %
810 09-03-2017 17:51:17 11.4 C 64 %
811 09-03-2017 18:03:17 11.6 C 64 %
812 09-03-2017 18:15:17 11.7 C 65 %
813 09-03-2017 18:27:17 11.6 C 66 %
814 09-03-2017 18:39:17 11.5 C 66 %
815 09-03-2017 18:51:17 11.4 C 67 %
816 09-03-2017 19:03:17 11.4 C 67 %
817 09-03-2017 19:15:17 11.3 C 67 %
818 09-03-2017 19:27:17 11.2 C 68 %
819 09-03-2017 19:39:17 11.2 C 68 %
820 09-03-2017 19:51:17 11.1 C 68 %
821 09-03-2017 20:03:17 11.1 C 68 %
822 09-03-2017 20:15:17 11.1 C 68 %
823 09-03-2017 20:27:17 11 C 68 %
824 09-03-2017 20:39:17 11 C 68 %
825 09-03-2017 20:51:17 11 C 69 %
Sensor: Nr:Datum:Temp:Feuchte:
G-T/H 826 09-03-2017 21:03:17 10.9 C 69 %
827 09-03-2017 21:15:17 10.9 C 69 %
828 09-03-2017 21:27:17 10.9 C 70 %
829 09-03-2017 21:39:17 10.9 C 70 %
830 09-03-2017 21:51:17 10.9 C 70 %
831 09-03-2017 22:03:17 10.8 C 70 %
832 09-03-2017 22:15:17 10.8 C 70 %
833 09-03-2017 22:27:17 10.8 C 70 %
834 09-03-2017 22:39:17 10.8 C 70 %
835 09-03-2017 22:51:17 10.8 C 70 %
836 09-03-2017 23:03:17 10.7 C 70 %
837 09-03-2017 23:15:17 10.7 C 70 %
838 09-03-2017 23:27:17 10.7 C 70 %
839 09-03-2017 23:39:17 10.7 C 70 %
840 09-03-2017 23:51:17 10.6 C 70 %
841 10-03-2017 00:03:18 10.6 C 70 %
842 10-03-2017 00:15:17 10.6 C 69 %
843 10-03-2017 00:27:17 10.6 C 69 %
844 10-03-2017 00:39:17 10.6 C 69 %
845 10-03-2017 00:51:17 10.4 C 69 %
846 10-03-2017 01:03:17 10.5 C 69 %
847 10-03-2017 01:15:17 10.5 C 69 %
848 10-03-2017 01:27:17 10.5 C 69 %
849 10-03-2017 01:39:17 10.5 C 69 %
850 10-03-2017 01:51:17 10.5 C 69 %
Sensor: Nr:Datum:Temp:Feuchte:
G-T/H 851 10-03-2017 02:03:17 10.5 C 69 %
852 10-03-2017 02:15:17 10.5 C 69 %
853 10-03-2017 02:27:17 10.5 C 69 %
854 10-03-2017 02:39:17 10.5 C 69 %
855 10-03-2017 02:51:17 10.4 C 69 %
856 10-03-2017 03:03:17 10.4 C 69 %
857 10-03-2017 03:15:17 10.4 C 69 %
858 10-03-2017 03:27:17 10.4 C 69 %
859 10-03-2017 03:39:17 10.4 C 69 %
860 10-03-2017 03:51:17 10.4 C 69 %
861 10-03-2017 04:03:17 10.4 C 69 %
862 10-03-2017 04:15:17 10.4 C 69 %
863 10-03-2017 04:27:17 10.3 C 69 %
864 10-03-2017 04:39:17 10.3 C 69 %
865 10-03-2017 04:51:17 10.3 C 69 %
866 10-03-2017 05:03:17 10.3 C 69 %
867 10-03-2017 05:15:18 10.3 C 69 %
868 10-03-2017 05:27:18 10.3 C 69 %
869 10-03-2017 05:39:17 10.2 C 69 %
870 10-03-2017 05:51:17 10.2 C 69 %
871 10-03-2017 06:03:17 10.1 C 68 %
872 10-03-2017 06:15:17 10.1 C 67 %
873 10-03-2017 06:27:17 10 C 67 %
874 10-03-2017 06:39:17 10 C 67 %
875 10-03-2017 06:51:17 10 C 67 %
Sensor: Nr:Datum:Temp:Feuchte:
G-T/H 876 10-03-2017 07:03:17 10 C 67 %
877 10-03-2017 07:15:17 10 C 67 %
878 10-03-2017 07:27:17 10 C 67 %
879 10-03-2017 07:39:17 10 C 67 %
880 10-03-2017 07:51:17 10 C 67 %
881 10-03-2017 08:03:17 10 C 67 %
882 10-03-2017 08:15:17 10 C 67 %
883 10-03-2017 08:27:17 10 C 68 %
884 10-03-2017 08:39:17 10 C 68 %
885 10-03-2017 08:51:17 10 C 68 %
886 10-03-2017 09:03:17 10 C 68 %
887 10-03-2017 09:15:17 10 C 68 %
888 10-03-2017 09:27:17 10 C 67 %
889 10-03-2017 09:39:17 9.9 C 68 %
890 10-03-2017 09:51:17 9.8 C 67 %
891 10-03-2017 10:03:17 9.8 C 66 %
892 10-03-2017 10:15:17 9.7 C 65 %
893 10-03-2017 10:27:17 9.8 C 65 %
894 10-03-2017 10:39:17 9.7 C 64 %
895 10-03-2017 10:51:17 9.7 C 64 %
896 10-03-2017 11:03:18 9.7 C 64 %
897 10-03-2017 11:15:17 9.7 C 64 %
898 10-03-2017 11:27:17 9.7 C 64 %
899 10-03-2017 11:39:17 9.8 C 64 %
900 10-03-2017 11:51:17 9.8 C 65 %
Sensor: Nr:Datum:Temp:Feuchte:
G-T/H 901 10-03-2017 12:03:17 9.8 C 65 %
902 10-03-2017 12:15:17 9.8 C 65 %
903 10-03-2017 12:27:17 9.8 C 66 %
904 10-03-2017 12:39:17 9.8 C 66 %
905 10-03-2017 12:51:17 9.8 C 66 %
906 10-03-2017 13:03:17 9.8 C 66 %
907 10-03-2017 13:15:16 9.8 C 66 %
908 10-03-2017 13:27:17 9.9 C 67 %
909 10-03-2017 13:39:17 9.9 C 67 %
910 10-03-2017 13:51:17 9.9 C 67 %
911 10-03-2017 14:03:17 9.9 C 67 %
912 10-03-2017 14:15:17 9.9 C 67 %
913 10-03-2017 14:27:17 9.9 C 67 %
914 10-03-2017 14:39:17 9.9 C 67 %
915 10-03-2017 14:51:17 9.9 C 67 %
916 10-03-2017 15:03:17 9.9 C 68 %
917 10-03-2017 15:15:17 9.9 C 67 %
918 10-03-2017 15:27:17 9.9 C 66 %
919 10-03-2017 15:39:17 9.9 C 66 %
920 10-03-2017 15:51:17 9.9 C 66 %
921 10-03-2017 16:03:18 9.9 C 64 %
922 10-03-2017 16:15:17 9.9 C 64 %
923 10-03-2017 16:27:17 9.9 C 64 %
924 10-03-2017 16:39:17 9.8 C 64 %
925 10-03-2017 16:51:17 9.8 C 63 %
Sensor: Nr:Datum:Temp:Feuchte:
G-T/H 926 10-03-2017 17:03:17 9.8 C 63 %
927 10-03-2017 17:15:17 9.8 C 63 %
928 10-03-2017 17:27:17 9.8 C 63 %
929 10-03-2017 17:39:17 9.8 C 63 %
930 10-03-2017 17:51:17 9.8 C 63 %
931 10-03-2017 18:03:17 9.8 C 64 %
932 10-03-2017 18:15:18 9.8 C 64 %
933 10-03-2017 18:27:18 9.8 C 64 %
934 10-03-2017 18:39:17 9.8 C 64 %
935 10-03-2017 18:51:17 9.8 C 65 %
936 10-03-2017 19:03:17 9.8 C 65 %
937 10-03-2017 19:15:17 9.8 C 65 %
938 10-03-2017 19:27:17 9.8 C 65 %
939 10-03-2017 19:39:17 9.8 C 65 %
940 10-03-2017 19:51:17 9.8 C 66 %
941 10-03-2017 20:03:17 9.8 C 66 %
942 10-03-2017 20:15:17 9.8 C 66 %
943 10-03-2017 20:27:17 9.8 C 66 %
944 10-03-2017 20:39:17 9.8 C 66 %
945 10-03-2017 20:51:17 9.7 C 66 %
946 10-03-2017 21:03:17 9.7 C 66 %
947 10-03-2017 21:15:17 9.6 C 65 %
948 10-03-2017 21:27:17 9.5 C 65 %
949 10-03-2017 21:39:17 9.5 C 65 %
950 10-03-2017 21:51:17 9.4 C 64 %
Sensor: Nr:Datum:Temp:Feuchte:
G-T/H 951 10-03-2017 22:03:17 9.3 C 64 %
952 10-03-2017 22:15:18 9.3 C 64 %
953 10-03-2017 22:27:18 9.3 C 63 %
954 10-03-2017 22:39:17 9.2 C 63 %
955 10-03-2017 22:51:17 9.2 C 63 %
956 10-03-2017 23:03:17 9.2 C 63 %
957 10-03-2017 23:15:17 9.2 C 63 %
958 10-03-2017 23:27:17 9.3 C 63 %
959 10-03-2017 23:39:17 9.3 C 63 %
960 10-03-2017 23:51:17 9.3 C 64 %
961 11-03-2017 00:03:17 9.4 C 64 %
962 11-03-2017 00:15:17 9.4 C 64 %
963 11-03-2017 00:27:17 9.4 C 64 %
964 11-03-2017 00:39:18 9.4 C 65 %
965 11-03-2017 00:51:17 9.3 C 65 %
966 11-03-2017 01:03:17 9.3 C 65 %
967 11-03-2017 01:15:17 9.3 C 65 %
968 11-03-2017 01:27:17 9.3 C 65 %
969 11-03-2017 01:39:17 9.3 C 65 %
970 11-03-2017 01:51:17 9.3 C 65 %
971 11-03-2017 02:03:17 9.3 C 65 %
972 11-03-2017 02:15:17 9.2 C 65 %
973 11-03-2017 02:27:17 9.2 C 66 %
974 11-03-2017 02:39:17 9.2 C 66 %
975 11-03-2017 02:51:17 9.2 C 66 %
Sensor: Nr:Datum:Temp:Feuchte:
G-T/H 976 11-03-2017 03:03:17 9.2 C 66 %
977 11-03-2017 03:15:17 9.2 C 66 %
978 11-03-2017 03:27:17 9.2 C 66 %
979 11-03-2017 03:39:17 9.1 C 66 %
980 11-03-2017 03:51:17 9.1 C 66 %
981 11-03-2017 04:03:17 9.1 C 66 %
982 11-03-2017 04:15:17 9.1 C 66 %
983 11-03-2017 04:27:17 8.9 C 66 %
984 11-03-2017 04:39:17 8.9 C 66 %
985 11-03-2017 04:51:17 8.9 C 65 %
986 11-03-2017 05:03:17 8.8 C 65 %
987 11-03-2017 05:15:17 8.8 C 65 %
988 11-03-2017 05:27:17 8.8 C 65 %
989 11-03-2017 05:39:17 8.7 C 65 %
990 11-03-2017 05:51:17 8.7 C 65 %
991 11-03-2017 06:03:17 8.8 C 65 %
992 11-03-2017 06:15:18 8.8 C 65 %
993 11-03-2017 06:27:18 8.8 C 65 %
994 11-03-2017 06:39:17 8.8 C 65 %
995 11-03-2017 06:51:17 8.7 C 65 %
996 11-03-2017 07:03:18 8.6 C 65 %
997 11-03-2017 07:15:17 8.6 C 64 %
998 11-03-2017 07:27:17 8.6 C 64 %
999 11-03-2017 07:39:17 8.5 C 64 %
1000 11-03-2017 07:51:17 8.5 C 64 %
Sensor: Nr:Datum:Temp:Feuchte:
G-T/H 1001 11-03-2017 08:03:17 8.4 C 64 %
1002 11-03-2017 08:15:17 8.4 C 64 %
1003 11-03-2017 08:27:17 8.4 C 64 %
1004 11-03-2017 08:39:17 8.5 C 64 %
1005 11-03-2017 08:51:17 8.5 C 64 %
1006 11-03-2017 09:03:17 8.5 C 64 %
1007 11-03-2017 09:15:17 8.5 C 64 %
1008 11-03-2017 09:27:17 8.5 C 64 %
1009 11-03-2017 09:39:17 8.5 C 64 %
1010 11-03-2017 09:51:17 8.5 C 65 %
1011 11-03-2017 10:03:17 8.5 C 65 %
1012 11-03-2017 10:15:17 8.5 C 65 %
1013 11-03-2017 10:27:17 8.5 C 66 %
1014 11-03-2017 10:39:17 8.5 C 66 %
1015 11-03-2017 10:51:17 8.6 C 66 %
1016 11-03-2017 11:03:17 8.5 C 66 %
1017 11-03-2017 11:15:17 8.5 C 66 %
1018 11-03-2017 11:27:17 8.5 C 66 %
1019 11-03-2017 11:39:17 8.6 C 66 %
1020 11-03-2017 11:51:17 8.6 C 66 %
1021 11-03-2017 12:03:17 8.6 C 67 %
1022 11-03-2017 12:15:18 8.7 C 67 %
1023 11-03-2017 12:27:18 8.8 C 66 %
1024 11-03-2017 12:39:17 8.9 C 66 %
1025 11-03-2017 12:51:17 8.9 C 65 %
Sensor: Nr:Datum:Temp:Feuchte:
G-T/H 1026 11-03-2017 13:03:17 8.9 C 65 %
1027 11-03-2017 13:15:17 8.8 C 64 %
1028 11-03-2017 13:27:17 8.9 C 64 %
1029 11-03-2017 13:39:17 8.9 C 64 %
1030 11-03-2017 13:51:17 8.9 C 64 %
1031 11-03-2017 14:03:17 9.2 C 61 %
1032 11-03-2017 14:15:17 9.6 C 57 %
1033 11-03-2017 14:27:17 9.9 C 55 %
1034 11-03-2017 14:39:17 10.2 C 53 %
1035 11-03-2017 14:51:17 10.2 C 53 %
1036 11-03-2017 15:03:17 10.3 C 52 %
1037 11-03-2017 15:15:17 10.4 C 51 %
1038 11-03-2017 15:27:17 10.4 C 50 %
1039 11-03-2017 15:39:17 10.5 C 50 %
1040 11-03-2017 15:51:17 10.6 C 49 %
1041 11-03-2017 16:03:17 10.6 C 48 %
1042 11-03-2017 16:15:17 10.8 C 45 %
1043 11-03-2017 16:27:17 11 C 46 %
1044 11-03-2017 16:39:17 10.9 C 49 %
1045 11-03-2017 16:51:17 10.9 C 49 %
1046 11-03-2017 17:03:17 10.7 C 51 %
1047 11-03-2017 17:15:17 10.7 C 53 %
1048 11-03-2017 17:27:17 10.6 C 53 %
1049 11-03-2017 17:39:17 10.5 C 55 %
1050 11-03-2017 17:51:17 10.5 C 55 %
Sensor: Nr:Datum:Temp:Feuchte:
G-T/H 1051 11-03-2017 18:03:18 10.4 C 56 %
1052 11-03-2017 18:15:17 10.4 C 56 %
1053 11-03-2017 18:27:17 10.3 C 57 %
1054 11-03-2017 18:39:17 10.5 C 57 %
1055 11-03-2017 18:51:17 10.2 C 58 %
1056 11-03-2017 19:03:17 10.2 C 58 %
1057 11-03-2017 19:15:17 10.2 C 59 %
1058 11-03-2017 19:27:17 10.2 C 59 %
1059 11-03-2017 19:39:17 10.1 C 59 %
1060 11-03-2017 19:51:17 10.1 C 59 %
1061 11-03-2017 20:03:17 10.1 C 60 %
1062 11-03-2017 20:15:17 10 C 60 %
1063 11-03-2017 20:27:17 10 C 60 %
1064 11-03-2017 20:39:17 10 C 60 %
1065 11-03-2017 20:51:17 10 C 60 %
1066 11-03-2017 21:03:17 10 C 61 %
1067 11-03-2017 21:15:17 10 C 61 %
1068 11-03-2017 21:27:17 9.9 C 62 %
1069 11-03-2017 21:39:18 9.9 C 62 %
1070 11-03-2017 21:51:17 9.9 C 62 %
1071 11-03-2017 22:03:17 9.9 C 62 %
1072 11-03-2017 22:15:17 9.8 C 62 %
1073 11-03-2017 22:27:17 9.8 C 62 %
1074 11-03-2017 22:39:17 9.8 C 62 %
1075 11-03-2017 22:51:17 9.8 C 62 %
Sensor: Nr:Datum:Temp:Feuchte:
G-T/H 1076 11-03-2017 23:03:17 9.8 C 62 %
1077 11-03-2017 23:15:17 9.8 C 62 %
1078 11-03-2017 23:27:17 9.8 C 63 %
1079 11-03-2017 23:39:17 9.8 C 63 %
1080 11-03-2017 23:51:18 9.8 C 63 %
1081 12-03-2017 00:03:17 9.8 C 63 %
1082 12-03-2017 00:15:17 9.5 C 62 %
1083 12-03-2017 00:27:17 9.5 C 62 %
1084 12-03-2017 00:39:17 9.4 C 61 %
1085 12-03-2017 00:51:17 9.3 C 61 %
1086 12-03-2017 01:03:17 9.3 C 61 %
1087 12-03-2017 01:15:17 9.2 C 60 %
1088 12-03-2017 01:27:17 9.2 C 60 %
1089 12-03-2017 01:39:17 9.1 C 60 %
1090 12-03-2017 01:51:17 9.1 C 60 %
1091 12-03-2017 02:03:17 9.1 C 59 %
1092 12-03-2017 02:15:17 9 C 59 %
1093 12-03-2017 02:27:17 9 C 59 %
1094 12-03-2017 02:39:17 8.9 C 60 %
1095 12-03-2017 02:51:17 8.9 C 60 %
1096 12-03-2017 03:03:17 8.9 C 59 %
1097 12-03-2017 03:15:17 8.8 C 59 %
1098 12-03-2017 03:27:17 8.8 C 59 %
1099 12-03-2017 03:39:17 8.8 C 59 %
1100 12-03-2017 03:51:17 8.7 C 59 %
Sensor: Nr:Datum:Temp:Feuchte:
G-T/H 1101 12-03-2017 04:03:17 8.7 C 59 %
1102 12-03-2017 04:15:17 8.8 C 59 %
1103 12-03-2017 04:27:17 8.8 C 59 %
1104 12-03-2017 04:39:17 8.8 C 60 %
1105 12-03-2017 04:51:17 8.8 C 60 %
1106 12-03-2017 05:03:17 8.8 C 60 %
1107 12-03-2017 05:15:17 8.8 C 61 %
1108 12-03-2017 05:27:17 8.8 C 61 %
1109 12-03-2017 05:39:17 8.8 C 61 %
1110 12-03-2017 05:51:17 8.7 C 61 %
1111 12-03-2017 06:03:17 8.7 C 61 %
1112 12-03-2017 06:15:17 8.7 C 61 %
1113 12-03-2017 06:27:17 8.5 C 60 %
1114 12-03-2017 06:39:17 8.5 C 60 %
1115 12-03-2017 06:51:17 8.5 C 59 %
1116 12-03-2017 07:03:17 8.4 C 59 %
1117 12-03-2017 07:15:17 8.4 C 59 %
1118 12-03-2017 07:27:17 8.5 C 60 %
1119 12-03-2017 07:39:17 8.5 C 60 %
1120 12-03-2017 07:51:17 8.5 C 60 %
1121 12-03-2017 08:03:17 8.5 C 60 %
1122 12-03-2017 08:15:17 8.5 C 61 %
1123 12-03-2017 08:27:17 8.5 C 61 %
1124 12-03-2017 08:39:17 8.5 C 61 %
1125 12-03-2017 08:51:17 8.5 C 61 %
Sensor: Nr:Datum:Temp:Feuchte:
G-T/H 1126 12-03-2017 09:03:17 8.5 C 61 %
1127 12-03-2017 09:15:17 8.5 C 61 %
1128 12-03-2017 09:27:17 8.5 C 62 %
1129 12-03-2017 09:39:17 8.5 C 62 %
1130 12-03-2017 09:51:17 8.5 C 62 %
1131 12-03-2017 10:03:17 8.5 C 62 %
1132 12-03-2017 10:15:17 8.5 C 62 %
1133 12-03-2017 10:27:17 8.5 C 62 %
1134 12-03-2017 10:39:17 8.5 C 62 %
1135 12-03-2017 10:51:17 8.5 C 63 %
1136 12-03-2017 11:03:17 8.5 C 63 %
1137 12-03-2017 11:15:17 8.5 C 63 %
1138 12-03-2017 11:27:17 8.5 C 63 %
1139 12-03-2017 11:39:17 8.5 C 63 %
1140 12-03-2017 11:51:17 8.5 C 63 %
1141 12-03-2017 12:03:17 8.5 C 63 %
1142 12-03-2017 12:15:17 8.5 C 63 %
1143 12-03-2017 12:27:17 8.5 C 63 %
1144 12-03-2017 12:39:17 8.5 C 63 %
1145 12-03-2017 12:51:17 8.5 C 64 %
1146 12-03-2017 13:03:17 8.5 C 64 %
1147 12-03-2017 13:15:17 8.5 C 64 %
1148 12-03-2017 13:27:17 8.6 C 64 %
1149 12-03-2017 13:39:17 8.6 C 64 %
1150 12-03-2017 13:51:17 8.6 C 63 %
Sensor: Nr:Datum:Temp:Feuchte:
G-T/H 1151 12-03-2017 14:03:17 9.1 C 58 %
1152 12-03-2017 14:15:17 9.7 C 51 %
1153 12-03-2017 14:27:17 9.9 C 48 %
1154 12-03-2017 14:39:17 10.1 C 46 %
1155 12-03-2017 14:51:17 10.1 C 45 %
1156 12-03-2017 15:03:17 10.3 C 44 %
1157 12-03-2017 15:15:18 10.4 C 43 %
1158 12-03-2017 15:27:18 10.5 C 43 %
1159 12-03-2017 15:39:17 10.6 C 41 %
1160 12-03-2017 15:51:17 10.7 C 41 %
1161 12-03-2017 16:03:17 10.7 C 41 %
1162 12-03-2017 16:15:18 10.8 C 41 %
1163 12-03-2017 16:27:18 10.8 C 41 %
1164 12-03-2017 16:39:17 10.8 C 41 %
1165 12-03-2017 16:51:17 10.9 C 41 %
1166 12-03-2017 17:03:17 11 C 40 %
1167 12-03-2017 17:15:17 11.2 C 41 %
1168 12-03-2017 17:27:17 11.1 C 43 %
1169 12-03-2017 17:39:17 11.1 C 43 %
1170 12-03-2017 17:51:17 10.9 C 46 %
1171 12-03-2017 18:03:17 10.8 C 47 %
1172 12-03-2017 18:15:17 10.7 C 49 %
1173 12-03-2017 18:27:17 10.6 C 50 %
1174 12-03-2017 18:39:17 10.5 C 50 %
1175 12-03-2017 18:51:17 10.5 C 51 %
Sensor: Nr:Datum:Temp:Feuchte:
G-T/H 1176 12-03-2017 19:03:17 10.4 C 52 %
1177 12-03-2017 19:15:17 10.4 C 52 %
1178 12-03-2017 19:27:17 10.3 C 53 %
1179 12-03-2017 19:39:17 10.3 C 53 %
1180 12-03-2017 19:51:17 10.2 C 54 %
1181 12-03-2017 20:03:17 10.2 C 54 %
1182 12-03-2017 20:15:16 10.2 C 54 %
1183 12-03-2017 20:27:17 10.2 C 55 %
1184 12-03-2017 20:39:17 10.1 C 55 %